<?xml version="1.0" encoding="UTF-8"?>
<gpx xmlns="http://www.topografix.com/GPX/1/1" xmlns:xsi="http://www.w3.org/2001/XMLSchema-instance" version="1.1" xsi:schemaLocation="http://www.topografix.com/GPX/1/1 http://www.topografix.com/GPX/1/1/gpx.xsd">
  <metadata>
    <name>100% HALF l'Ametlla de Mar</name>
  </metadata>
  <trk>
    <name>100% HALF l'Ametlla de Mar</name>
    <trkseg>
      <trkpt lat="40.885295" lon="0.806594">
        <ele>9.658435</ele>
        <time>2022-06-05T08:08:00.000Z</time>
      </trkpt>
      <trkpt lat="40.885059" lon="0.80631">
        <ele>9.658441</ele>
        <time>2022-06-05T08:08:04.000Z</time>
      </trkpt>
      <trkpt lat="40.885069" lon="0.806303">
        <ele>9.658446</ele>
        <time>2022-06-05T08:08:04.000Z</time>
      </trkpt>
      <trkpt lat="40.885045" lon="0.806189">
        <ele>9.65843</ele>
        <time>2022-06-05T08:08:05.000Z</time>
      </trkpt>
      <trkpt lat="40.885032" lon="0.806182">
        <ele>9.65843</ele>
        <time>2022-06-05T08:08:05.000Z</time>
      </trkpt>
      <trkpt lat="40.88504" lon="0.806139">
        <ele>9.658441</ele>
        <time>2022-06-05T08:08:05.000Z</time>
      </trkpt>
      <trkpt lat="40.885049" lon="0.805801">
        <ele>9.658446</ele>
        <time>2022-06-05T08:08:08.000Z</time>
      </trkpt>
      <trkpt lat="40.884935" lon="0.805493">
        <ele>9.914502</ele>
        <time>2022-06-05T08:08:11.000Z</time>
      </trkpt>
      <trkpt lat="40.884895" lon="0.805411">
        <ele>10.203578</ele>
        <time>2022-06-05T08:08:12.000Z</time>
      </trkpt>
      <trkpt lat="40.884893" lon="0.805391">
        <ele>10.256374</ele>
        <time>2022-06-05T08:08:12.000Z</time>
      </trkpt>
      <trkpt lat="40.884896" lon="0.805341">
        <ele>10.389472</ele>
        <time>2022-06-05T08:08:12.000Z</time>
      </trkpt>
      <trkpt lat="40.884877" lon="0.804983">
        <ele>11.394548</ele>
        <time>2022-06-05T08:08:15.000Z</time>
      </trkpt>
      <trkpt lat="40.88486" lon="0.804929">
        <ele>11.595356</ele>
        <time>2022-06-05T08:08:15.000Z</time>
      </trkpt>
      <trkpt lat="40.884858" lon="0.804927">
        <ele>11.595354</ele>
        <time>2022-06-05T08:08:15.000Z</time>
      </trkpt>
      <trkpt lat="40.884864" lon="0.804919">
        <ele>11.595367</ele>
        <time>2022-06-05T08:08:15.000Z</time>
      </trkpt>
      <trkpt lat="40.88487" lon="0.804927">
        <ele>11.595362</ele>
        <time>2022-06-05T08:08:15.000Z</time>
      </trkpt>
      <trkpt lat="40.884805" lon="0.804835">
        <ele>11.93173</ele>
        <time>2022-06-05T08:08:16.000Z</time>
      </trkpt>
      <trkpt lat="40.884794" lon="0.804839">
        <ele>11.931739</ele>
        <time>2022-06-05T08:08:16.000Z</time>
      </trkpt>
      <trkpt lat="40.884808" lon="0.804832">
        <ele>11.931738</ele>
        <time>2022-06-05T08:08:16.000Z</time>
      </trkpt>
      <trkpt lat="40.884831" lon="0.804782">
        <ele>12.109974</ele>
        <time>2022-06-05T08:08:16.000Z</time>
      </trkpt>
      <trkpt lat="40.884829" lon="0.804784">
        <ele>12.10997</ele>
        <time>2022-06-05T08:08:16.000Z</time>
      </trkpt>
      <trkpt lat="40.884835" lon="0.8048">
        <ele>12.109976</ele>
        <time>2022-06-05T08:08:16.000Z</time>
      </trkpt>
      <trkpt lat="40.88498" lon="0.80453">
        <ele>13.030764</ele>
        <time>2022-06-05T08:08:19.000Z</time>
      </trkpt>
      <trkpt lat="40.884983" lon="0.804531">
        <ele>13.030753</ele>
        <time>2022-06-05T08:08:19.000Z</time>
      </trkpt>
      <trkpt lat="40.884982" lon="0.804532">
        <ele>13.030767</ele>
        <time>2022-06-05T08:08:19.000Z</time>
      </trkpt>
      <trkpt lat="40.885352" lon="0.803764">
        <ele>15.670703</ele>
        <time>2022-06-05T08:08:27.000Z</time>
      </trkpt>
      <trkpt lat="40.885725" lon="0.802983">
        <ele>17.613674</ele>
        <time>2022-06-05T08:08:35.000Z</time>
      </trkpt>
      <trkpt lat="40.886106" lon="0.802202">
        <ele>19.252756</ele>
        <time>2022-06-05T08:08:43.000Z</time>
      </trkpt>
      <trkpt lat="40.886479" lon="0.801434">
        <ele>20.753883</ele>
        <time>2022-06-05T08:08:51.000Z</time>
      </trkpt>
      <trkpt lat="40.886483" lon="0.801423">
        <ele>20.753886</ele>
        <time>2022-06-05T08:08:51.000Z</time>
      </trkpt>
      <trkpt lat="40.886477" lon="0.801437">
        <ele>20.753887</ele>
        <time>2022-06-05T08:08:51.000Z</time>
      </trkpt>
      <trkpt lat="40.886325" lon="0.801146">
        <ele>20.918847</ele>
        <time>2022-06-05T08:08:54.000Z</time>
      </trkpt>
      <trkpt lat="40.886336" lon="0.801135">
        <ele>20.922575</ele>
        <time>2022-06-05T08:08:54.000Z</time>
      </trkpt>
      <trkpt lat="40.886287" lon="0.801106">
        <ele>20.948276</ele>
        <time>2022-06-05T08:08:55.000Z</time>
      </trkpt>
      <trkpt lat="40.88623" lon="0.801049">
        <ele>20.997312</ele>
        <time>2022-06-05T08:08:56.000Z</time>
      </trkpt>
      <trkpt lat="40.885732" lon="0.800561">
        <ele>21.389797</ele>
        <time>2022-06-05T08:09:03.000Z</time>
      </trkpt>
      <trkpt lat="40.885684" lon="0.800518">
        <ele>21.430988</ele>
        <time>2022-06-05T08:09:04.000Z</time>
      </trkpt>
      <trkpt lat="40.88556" lon="0.800399">
        <ele>21.522143</ele>
        <time>2022-06-05T08:09:06.000Z</time>
      </trkpt>
      <trkpt lat="40.885508" lon="0.800343">
        <ele>21.566518</ele>
        <time>2022-06-05T08:09:07.000Z</time>
      </trkpt>
      <trkpt lat="40.88547" lon="0.800304">
        <ele>21.601843</ele>
        <time>2022-06-05T08:09:08.000Z</time>
      </trkpt>
      <trkpt lat="40.885428" lon="0.800245">
        <ele>21.634783</ele>
        <time>2022-06-05T08:09:09.000Z</time>
      </trkpt>
      <trkpt lat="40.88538" lon="0.800218">
        <ele>21.666358</ele>
        <time>2022-06-05T08:09:10.000Z</time>
      </trkpt>
      <trkpt lat="40.884955" lon="0.799796">
        <ele>21.899462</ele>
        <time>2022-06-05T08:09:16.000Z</time>
      </trkpt>
      <trkpt lat="40.88491" lon="0.799657">
        <ele>21.923247</ele>
        <time>2022-06-05T08:09:17.000Z</time>
      </trkpt>
      <trkpt lat="40.884916" lon="0.79964">
        <ele>21.92655</ele>
        <time>2022-06-05T08:09:17.000Z</time>
      </trkpt>
      <trkpt lat="40.885038" lon="0.799422">
        <ele>21.968651</ele>
        <time>2022-06-05T08:09:19.000Z</time>
      </trkpt>
      <trkpt lat="40.885079" lon="0.799389">
        <ele>21.978057</ele>
        <time>2022-06-05T08:09:20.000Z</time>
      </trkpt>
      <trkpt lat="40.885095" lon="0.799347">
        <ele>21.986902</ele>
        <time>2022-06-05T08:09:20.000Z</time>
      </trkpt>
      <trkpt lat="40.885181" lon="0.799276">
        <ele>22.006499</ele>
        <time>2022-06-05T08:09:21.000Z</time>
      </trkpt>
      <trkpt lat="40.885234" lon="0.799259">
        <ele>22.017061</ele>
        <time>2022-06-05T08:09:22.000Z</time>
      </trkpt>
      <trkpt lat="40.885275" lon="0.799251">
        <ele>22.024963</ele>
        <time>2022-06-05T08:09:22.000Z</time>
      </trkpt>
      <trkpt lat="40.885314" lon="0.799247">
        <ele>22.036259</ele>
        <time>2022-06-05T08:09:22.000Z</time>
      </trkpt>
      <trkpt lat="40.885338" lon="0.799253">
        <ele>22.041044</ele>
        <time>2022-06-05T08:09:22.000Z</time>
      </trkpt>
      <trkpt lat="40.885455" lon="0.799307">
        <ele>22.067565</ele>
        <time>2022-06-05T08:09:23.000Z</time>
      </trkpt>
      <trkpt lat="40.885504" lon="0.799331">
        <ele>22.078171</ele>
        <time>2022-06-05T08:09:24.000Z</time>
      </trkpt>
      <trkpt lat="40.885534" lon="0.799347">
        <ele>22.08314</ele>
        <time>2022-06-05T08:09:24.000Z</time>
      </trkpt>
      <trkpt lat="40.885542" lon="0.799345">
        <ele>22.088312</ele>
        <time>2022-06-05T08:09:24.000Z</time>
      </trkpt>
      <trkpt lat="40.885588" lon="0.799371">
        <ele>22.099101</ele>
        <time>2022-06-05T08:09:25.000Z</time>
      </trkpt>
      <trkpt lat="40.885681" lon="0.799421">
        <ele>22.118127</ele>
        <time>2022-06-05T08:09:26.000Z</time>
      </trkpt>
      <trkpt lat="40.88575" lon="0.799444">
        <ele>22.135414</ele>
        <time>2022-06-05T08:09:27.000Z</time>
      </trkpt>
      <trkpt lat="40.885806" lon="0.79946">
        <ele>22.144404</ele>
        <time>2022-06-05T08:09:28.000Z</time>
      </trkpt>
      <trkpt lat="40.885998" lon="0.799493">
        <ele>22.186536</ele>
        <time>2022-06-05T08:09:30.000Z</time>
      </trkpt>
      <trkpt lat="40.886263" lon="0.79934">
        <ele>22.346761</ele>
        <time>2022-06-05T08:09:33.000Z</time>
      </trkpt>
      <trkpt lat="40.886285" lon="0.799329">
        <ele>22.389383</ele>
        <time>2022-06-05T08:09:33.000Z</time>
      </trkpt>
      <trkpt lat="40.886744" lon="0.798867">
        <ele>23.114761</ele>
        <time>2022-06-05T08:09:39.000Z</time>
      </trkpt>
      <trkpt lat="40.886806" lon="0.798806">
        <ele>23.210075</ele>
        <time>2022-06-05T08:09:40.000Z</time>
      </trkpt>
      <trkpt lat="40.886864" lon="0.798747">
        <ele>23.308041</ele>
        <time>2022-06-05T08:09:41.000Z</time>
      </trkpt>
      <trkpt lat="40.88708" lon="0.798639">
        <ele>23.609415</ele>
        <time>2022-06-05T08:09:44.000Z</time>
      </trkpt>
      <trkpt lat="40.887193" lon="0.798603">
        <ele>23.755034</ele>
        <time>2022-06-05T08:09:45.000Z</time>
      </trkpt>
      <trkpt lat="40.887394" lon="0.798599">
        <ele>23.991167</ele>
        <time>2022-06-05T08:09:47.000Z</time>
      </trkpt>
      <trkpt lat="40.887434" lon="0.798609">
        <ele>24.062807</ele>
        <time>2022-06-05T08:09:47.000Z</time>
      </trkpt>
      <trkpt lat="40.887448" lon="0.798627">
        <ele>24.07824</ele>
        <time>2022-06-05T08:09:47.000Z</time>
      </trkpt>
      <trkpt lat="40.887466" lon="0.79864">
        <ele>24.114292</ele>
        <time>2022-06-05T08:09:47.000Z</time>
      </trkpt>
      <trkpt lat="40.88749" lon="0.798657">
        <ele>24.149499</ele>
        <time>2022-06-05T08:09:47.000Z</time>
      </trkpt>
      <trkpt lat="40.887533" lon="0.798684">
        <ele>24.202839</ele>
        <time>2022-06-05T08:09:48.000Z</time>
      </trkpt>
      <trkpt lat="40.887617" lon="0.798657">
        <ele>24.306245</ele>
        <time>2022-06-05T08:09:49.000Z</time>
      </trkpt>
      <trkpt lat="40.887645" lon="0.798638">
        <ele>24.359475</ele>
        <time>2022-06-05T08:09:49.000Z</time>
      </trkpt>
      <trkpt lat="40.88768" lon="0.79858">
        <ele>24.418765</ele>
        <time>2022-06-05T08:09:50.000Z</time>
      </trkpt>
      <trkpt lat="40.887744" lon="0.798519">
        <ele>24.519896</ele>
        <time>2022-06-05T08:09:51.000Z</time>
      </trkpt>
      <trkpt lat="40.887785" lon="0.798513">
        <ele>24.584148</ele>
        <time>2022-06-05T08:09:51.000Z</time>
      </trkpt>
      <trkpt lat="40.887844" lon="0.798484">
        <ele>24.707873</ele>
        <time>2022-06-05T08:09:52.000Z</time>
      </trkpt>
      <trkpt lat="40.888512" lon="0.798227">
        <ele>25.923652</ele>
        <time>2022-06-05T08:10:00.000Z</time>
      </trkpt>
      <trkpt lat="40.888583" lon="0.798202">
        <ele>26.051728</ele>
        <time>2022-06-05T08:10:01.000Z</time>
      </trkpt>
      <trkpt lat="40.888781" lon="0.79813">
        <ele>26.440074</ele>
        <time>2022-06-05T08:10:03.000Z</time>
      </trkpt>
      <trkpt lat="40.888885" lon="0.798078">
        <ele>26.609895</ele>
        <time>2022-06-05T08:10:04.000Z</time>
      </trkpt>
      <trkpt lat="40.889058" lon="0.79801">
        <ele>26.937866</ele>
        <time>2022-06-05T08:10:06.000Z</time>
      </trkpt>
      <trkpt lat="40.889228" lon="0.797922">
        <ele>27.272838</ele>
        <time>2022-06-05T08:10:08.000Z</time>
      </trkpt>
      <trkpt lat="40.889254" lon="0.797889">
        <ele>27.332101</ele>
        <time>2022-06-05T08:10:08.000Z</time>
      </trkpt>
      <trkpt lat="40.889716" lon="0.797637">
        <ele>28.390658</ele>
        <time>2022-06-05T08:10:14.000Z</time>
      </trkpt>
      <trkpt lat="40.890217" lon="0.797331">
        <ele>29.698396</ele>
        <time>2022-06-05T08:10:20.000Z</time>
      </trkpt>
      <trkpt lat="40.890263" lon="0.797309">
        <ele>29.82687</ele>
        <time>2022-06-05T08:10:21.000Z</time>
      </trkpt>
      <trkpt lat="40.890524" lon="0.797163">
        <ele>30.466945</ele>
        <time>2022-06-05T08:10:24.000Z</time>
      </trkpt>
      <trkpt lat="40.89057" lon="0.797136">
        <ele>30.621748</ele>
        <time>2022-06-05T08:10:25.000Z</time>
      </trkpt>
      <trkpt lat="40.890756" lon="0.79703">
        <ele>31.083283</ele>
        <time>2022-06-05T08:10:27.000Z</time>
      </trkpt>
      <trkpt lat="40.890891" lon="0.796949">
        <ele>31.428747</ele>
        <time>2022-06-05T08:10:29.000Z</time>
      </trkpt>
      <trkpt lat="40.891005" lon="0.796876">
        <ele>31.725814</ele>
        <time>2022-06-05T08:10:30.000Z</time>
      </trkpt>
      <trkpt lat="40.891032" lon="0.796841">
        <ele>31.829728</ele>
        <time>2022-06-05T08:10:30.000Z</time>
      </trkpt>
      <trkpt lat="40.891113" lon="0.796793">
        <ele>32.026555</ele>
        <time>2022-06-05T08:10:31.000Z</time>
      </trkpt>
      <trkpt lat="40.891213" lon="0.796714">
        <ele>32.36208</ele>
        <time>2022-06-05T08:10:32.000Z</time>
      </trkpt>
      <trkpt lat="40.891625" lon="0.796337">
        <ele>33.6473</ele>
        <time>2022-06-05T08:10:38.000Z</time>
      </trkpt>
      <trkpt lat="40.891705" lon="0.7963">
        <ele>33.904477</ele>
        <time>2022-06-05T08:10:39.000Z</time>
      </trkpt>
      <trkpt lat="40.891752" lon="0.796294">
        <ele>33.998596</ele>
        <time>2022-06-05T08:10:40.000Z</time>
      </trkpt>
      <trkpt lat="40.89178" lon="0.796274">
        <ele>34.090626</ele>
        <time>2022-06-05T08:10:40.000Z</time>
      </trkpt>
      <trkpt lat="40.891797" lon="0.796231">
        <ele>34.182183</ele>
        <time>2022-06-05T08:10:40.000Z</time>
      </trkpt>
      <trkpt lat="40.891829" lon="0.796179">
        <ele>34.310809</ele>
        <time>2022-06-05T08:10:41.000Z</time>
      </trkpt>
      <trkpt lat="40.891843" lon="0.796119">
        <ele>34.439534</ele>
        <time>2022-06-05T08:10:42.000Z</time>
      </trkpt>
      <trkpt lat="40.891862" lon="0.795981">
        <ele>34.718998</ele>
        <time>2022-06-05T08:10:43.000Z</time>
      </trkpt>
      <trkpt lat="40.891933" lon="0.795766">
        <ele>35.155809</ele>
        <time>2022-06-05T08:10:45.000Z</time>
      </trkpt>
      <trkpt lat="40.892241" lon="0.795173">
        <ele>36.622529</ele>
        <time>2022-06-05T08:10:51.000Z</time>
      </trkpt>
      <trkpt lat="40.89248" lon="0.794747">
        <ele>37.404508</ele>
        <time>2022-06-05T08:10:55.000Z</time>
      </trkpt>
      <trkpt lat="40.892563" lon="0.794587">
        <ele>37.684554</ele>
        <time>2022-06-05T08:10:57.000Z</time>
      </trkpt>
      <trkpt lat="40.892968" lon="0.793867">
        <ele>39.024116</ele>
        <time>2022-06-05T08:11:05.000Z</time>
      </trkpt>
      <trkpt lat="40.893321" lon="0.793272">
        <ele>40.148518</ele>
        <time>2022-06-05T08:11:11.000Z</time>
      </trkpt>
      <trkpt lat="40.893479" lon="0.792994">
        <ele>40.760221</ele>
        <time>2022-06-05T08:11:14.000Z</time>
      </trkpt>
      <trkpt lat="40.893725" lon="0.792435">
        <ele>42.000288</ele>
        <time>2022-06-05T08:11:19.000Z</time>
      </trkpt>
      <trkpt lat="40.893785" lon="0.79226">
        <ele>42.39273</ele>
        <time>2022-06-05T08:11:21.000Z</time>
      </trkpt>
      <trkpt lat="40.893783" lon="0.792231">
        <ele>42.430404</ele>
        <time>2022-06-05T08:11:21.000Z</time>
      </trkpt>
      <trkpt lat="40.893806" lon="0.792175">
        <ele>42.569587</ele>
        <time>2022-06-05T08:11:22.000Z</time>
      </trkpt>
      <trkpt lat="40.893837" lon="0.79212">
        <ele>42.688194</ele>
        <time>2022-06-05T08:11:23.000Z</time>
      </trkpt>
      <trkpt lat="40.893851" lon="0.792057">
        <ele>42.821116</ele>
        <time>2022-06-05T08:11:24.000Z</time>
      </trkpt>
      <trkpt lat="40.893892" lon="0.791929">
        <ele>43.094265</ele>
        <time>2022-06-05T08:11:25.000Z</time>
      </trkpt>
      <trkpt lat="40.893942" lon="0.791784">
        <ele>43.371981</ele>
        <time>2022-06-05T08:11:26.000Z</time>
      </trkpt>
      <trkpt lat="40.894018" lon="0.791609">
        <ele>43.7603</ele>
        <time>2022-06-05T08:11:28.000Z</time>
      </trkpt>
      <trkpt lat="40.89407" lon="0.791452">
        <ele>44.080131</ele>
        <time>2022-06-05T08:11:29.000Z</time>
      </trkpt>
      <trkpt lat="40.894139" lon="0.791296">
        <ele>44.421264</ele>
        <time>2022-06-05T08:11:31.000Z</time>
      </trkpt>
      <trkpt lat="40.89419" lon="0.791199">
        <ele>44.667496</ele>
        <time>2022-06-05T08:11:32.000Z</time>
      </trkpt>
      <trkpt lat="40.894343" lon="0.790979">
        <ele>45.257193</ele>
        <time>2022-06-05T08:11:35.000Z</time>
      </trkpt>
      <trkpt lat="40.89449" lon="0.79079">
        <ele>45.812386</ele>
        <time>2022-06-05T08:11:37.000Z</time>
      </trkpt>
      <trkpt lat="40.894626" lon="0.790603">
        <ele>46.325549</ele>
        <time>2022-06-05T08:11:39.000Z</time>
      </trkpt>
      <trkpt lat="40.894959" lon="0.790165">
        <ele>47.574854</ele>
        <time>2022-06-05T08:11:44.000Z</time>
      </trkpt>
      <trkpt lat="40.895216" lon="0.789838">
        <ele>48.534049</ele>
        <time>2022-06-05T08:11:48.000Z</time>
      </trkpt>
      <trkpt lat="40.895403" lon="0.789584">
        <ele>49.217324</ele>
        <time>2022-06-05T08:11:51.000Z</time>
      </trkpt>
      <trkpt lat="40.895571" lon="0.789351">
        <ele>49.776517</ele>
        <time>2022-06-05T08:11:54.000Z</time>
      </trkpt>
      <trkpt lat="40.895625" lon="0.789288">
        <ele>49.932883</ele>
        <time>2022-06-05T08:11:55.000Z</time>
      </trkpt>
      <trkpt lat="40.895774" lon="0.789091">
        <ele>50.315309</ele>
        <time>2022-06-05T08:11:57.000Z</time>
      </trkpt>
      <trkpt lat="40.895794" lon="0.789038">
        <ele>50.404408</ele>
        <time>2022-06-05T08:11:57.000Z</time>
      </trkpt>
      <trkpt lat="40.89581" lon="0.789">
        <ele>50.470682</ele>
        <time>2022-06-05T08:11:57.000Z</time>
      </trkpt>
      <trkpt lat="40.895828" lon="0.788986">
        <ele>50.505005</ele>
        <time>2022-06-05T08:11:57.000Z</time>
      </trkpt>
      <trkpt lat="40.895844" lon="0.788956">
        <ele>50.572402</ele>
        <time>2022-06-05T08:11:57.000Z</time>
      </trkpt>
      <trkpt lat="40.895999" lon="0.788654">
        <ele>51.079165</ele>
        <time>2022-06-05T08:12:00.000Z</time>
      </trkpt>
      <trkpt lat="40.896033" lon="0.788531">
        <ele>51.267109</ele>
        <time>2022-06-05T08:12:01.000Z</time>
      </trkpt>
      <trkpt lat="40.896103" lon="0.788338">
        <ele>51.579356</ele>
        <time>2022-06-05T08:12:03.000Z</time>
      </trkpt>
      <trkpt lat="40.896202" lon="0.788103">
        <ele>51.962052</ele>
        <time>2022-06-05T08:12:05.000Z</time>
      </trkpt>
      <trkpt lat="40.896622" lon="0.78698">
        <ele>53.744996</ele>
        <time>2022-06-05T08:12:16.000Z</time>
      </trkpt>
      <trkpt lat="40.897629" lon="0.785">
        <ele>57.41632</ele>
        <time>2022-06-05T08:12:36.000Z</time>
      </trkpt>
      <trkpt lat="40.897685" lon="0.784858">
        <ele>57.688009</ele>
        <time>2022-06-05T08:12:37.000Z</time>
      </trkpt>
      <trkpt lat="40.897772" lon="0.784657">
        <ele>58.126621</ele>
        <time>2022-06-05T08:12:39.000Z</time>
      </trkpt>
      <trkpt lat="40.898055" lon="0.784044">
        <ele>59.443998</ele>
        <time>2022-06-05T08:12:45.000Z</time>
      </trkpt>
      <trkpt lat="40.898269" lon="0.783704">
        <ele>60.267923</ele>
        <time>2022-06-05T08:12:49.000Z</time>
      </trkpt>
      <trkpt lat="40.898945" lon="0.78286">
        <ele>62.730283</ele>
        <time>2022-06-05T08:12:59.000Z</time>
      </trkpt>
      <trkpt lat="40.899523" lon="0.782348">
        <ele>64.644544</ele>
        <time>2022-06-05T08:13:07.000Z</time>
      </trkpt>
      <trkpt lat="40.899674" lon="0.782208">
        <ele>65.141691</ele>
        <time>2022-06-05T08:13:09.000Z</time>
      </trkpt>
      <trkpt lat="40.899746" lon="0.782146">
        <ele>65.401276</ele>
        <time>2022-06-05T08:13:10.000Z</time>
      </trkpt>
      <trkpt lat="40.900358" lon="0.781421">
        <ele>67.341416</ele>
        <time>2022-06-05T08:13:19.000Z</time>
      </trkpt>
      <trkpt lat="40.901249" lon="0.780095">
        <ele>70.438148</ele>
        <time>2022-06-05T08:13:34.000Z</time>
      </trkpt>
      <trkpt lat="40.901978" lon="0.77928">
        <ele>72.615954</ele>
        <time>2022-06-05T08:13:45.000Z</time>
      </trkpt>
      <trkpt lat="40.902258" lon="0.778899">
        <ele>73.523075</ele>
        <time>2022-06-05T08:13:49.000Z</time>
      </trkpt>
      <trkpt lat="40.902467" lon="0.778652">
        <ele>74.150969</ele>
        <time>2022-06-05T08:13:52.000Z</time>
      </trkpt>
      <trkpt lat="40.902597" lon="0.778488">
        <ele>74.575179</ele>
        <time>2022-06-05T08:13:54.000Z</time>
      </trkpt>
      <trkpt lat="40.903266" lon="0.777672">
        <ele>76.607641</ele>
        <time>2022-06-05T08:14:04.000Z</time>
      </trkpt>
      <trkpt lat="40.903897" lon="0.776857">
        <ele>78.581831</ele>
        <time>2022-06-05T08:14:14.000Z</time>
      </trkpt>
      <trkpt lat="40.904304" lon="0.776348">
        <ele>79.810064</ele>
        <time>2022-06-05T08:14:20.000Z</time>
      </trkpt>
      <trkpt lat="40.904721" lon="0.775843">
        <ele>81.027032</ele>
        <time>2022-06-05T08:14:26.000Z</time>
      </trkpt>
      <trkpt lat="40.905647" lon="0.774955">
        <ele>83.406923</ele>
        <time>2022-06-05T08:14:39.000Z</time>
      </trkpt>
      <trkpt lat="40.905852" lon="0.774768">
        <ele>83.890694</ele>
        <time>2022-06-05T08:14:42.000Z</time>
      </trkpt>
      <trkpt lat="40.906582" lon="0.774074">
        <ele>85.699579</ele>
        <time>2022-06-05T08:14:52.000Z</time>
      </trkpt>
      <trkpt lat="40.906815" lon="0.773845">
        <ele>86.276961</ele>
        <time>2022-06-05T08:14:55.000Z</time>
      </trkpt>
      <trkpt lat="40.907274" lon="0.773458">
        <ele>87.351122</ele>
        <time>2022-06-05T08:15:01.000Z</time>
      </trkpt>
      <trkpt lat="40.907886" lon="0.773064">
        <ele>88.689947</ele>
        <time>2022-06-05T08:15:09.000Z</time>
      </trkpt>
      <trkpt lat="40.907934" lon="0.773026">
        <ele>88.802739</ele>
        <time>2022-06-05T08:15:10.000Z</time>
      </trkpt>
      <trkpt lat="40.908049" lon="0.772942">
        <ele>89.06959</ele>
        <time>2022-06-05T08:15:11.000Z</time>
      </trkpt>
      <trkpt lat="40.90821" lon="0.7728">
        <ele>89.477572</ele>
        <time>2022-06-05T08:15:13.000Z</time>
      </trkpt>
      <trkpt lat="40.90835" lon="0.772674">
        <ele>89.861239</ele>
        <time>2022-06-05T08:15:15.000Z</time>
      </trkpt>
      <trkpt lat="40.908818" lon="0.772265">
        <ele>91.035269</ele>
        <time>2022-06-05T08:15:21.000Z</time>
      </trkpt>
      <trkpt lat="40.910077" lon="0.771125">
        <ele>94.184726</ele>
        <time>2022-06-05T08:15:38.000Z</time>
      </trkpt>
      <trkpt lat="40.910313" lon="0.770858">
        <ele>94.824242</ele>
        <time>2022-06-05T08:15:41.000Z</time>
      </trkpt>
      <trkpt lat="40.913157" lon="0.766882">
        <ele>102.870588</ele>
        <time>2022-06-05T08:16:27.000Z</time>
      </trkpt>
      <trkpt lat="40.913249" lon="0.766721">
        <ele>103.154141</ele>
        <time>2022-06-05T08:16:29.000Z</time>
      </trkpt>
      <trkpt lat="40.913342" lon="0.76656">
        <ele>103.456859</ele>
        <time>2022-06-05T08:16:31.000Z</time>
      </trkpt>
      <trkpt lat="40.913462" lon="0.766313">
        <ele>103.852012</ele>
        <time>2022-06-05T08:16:33.000Z</time>
      </trkpt>
      <trkpt lat="40.913468" lon="0.76627">
        <ele>103.916893</ele>
        <time>2022-06-05T08:16:33.000Z</time>
      </trkpt>
      <trkpt lat="40.913478" lon="0.766252">
        <ele>103.968608</ele>
        <time>2022-06-05T08:16:33.000Z</time>
      </trkpt>
      <trkpt lat="40.913901" lon="0.765373">
        <ele>105.374463</ele>
        <time>2022-06-05T08:16:42.000Z</time>
      </trkpt>
      <trkpt lat="40.914142" lon="0.765025">
        <ele>106.037951</ele>
        <time>2022-06-05T08:16:46.000Z</time>
      </trkpt>
      <trkpt lat="40.914952" lon="0.764151">
        <ele>107.705208</ele>
        <time>2022-06-05T08:16:58.000Z</time>
      </trkpt>
      <trkpt lat="40.915967" lon="0.763317">
        <ele>109.473429</ele>
        <time>2022-06-05T08:17:11.000Z</time>
      </trkpt>
      <trkpt lat="40.916205" lon="0.763062">
        <ele>109.968172</ele>
        <time>2022-06-05T08:17:14.000Z</time>
      </trkpt>
      <trkpt lat="40.916303" lon="0.762986">
        <ele>110.152221</ele>
        <time>2022-06-05T08:17:15.000Z</time>
      </trkpt>
      <trkpt lat="40.916608" lon="0.762666">
        <ele>110.790893</ele>
        <time>2022-06-05T08:17:19.000Z</time>
      </trkpt>
      <trkpt lat="40.916724" lon="0.762556">
        <ele>111.031768</ele>
        <time>2022-06-05T08:17:21.000Z</time>
      </trkpt>
      <trkpt lat="40.916935" lon="0.762378">
        <ele>111.452127</ele>
        <time>2022-06-05T08:17:24.000Z</time>
      </trkpt>
      <trkpt lat="40.91772" lon="0.761651">
        <ele>112.51634</ele>
        <time>2022-06-05T08:17:35.000Z</time>
      </trkpt>
      <trkpt lat="40.917737" lon="0.761634">
        <ele>112.527591</ele>
        <time>2022-06-05T08:17:35.000Z</time>
      </trkpt>
      <trkpt lat="40.917788" lon="0.761552">
        <ele>112.567787</ele>
        <time>2022-06-05T08:17:36.000Z</time>
      </trkpt>
      <trkpt lat="40.918007" lon="0.761053">
        <ele>112.780869</ele>
        <time>2022-06-05T08:17:41.000Z</time>
      </trkpt>
      <trkpt lat="40.918225" lon="0.760093">
        <ele>113.150047</ele>
        <time>2022-06-05T08:17:49.000Z</time>
      </trkpt>
      <trkpt lat="40.918447" lon="0.759332">
        <ele>113.475995</ele>
        <time>2022-06-05T08:17:56.000Z</time>
      </trkpt>
      <trkpt lat="40.918517" lon="0.759064">
        <ele>113.597539</ele>
        <time>2022-06-05T08:17:58.000Z</time>
      </trkpt>
      <trkpt lat="40.918606" lon="0.758794">
        <ele>113.719644</ele>
        <time>2022-06-05T08:18:00.000Z</time>
      </trkpt>
      <trkpt lat="40.918646" lon="0.758725">
        <ele>113.753072</ele>
        <time>2022-06-05T08:18:01.000Z</time>
      </trkpt>
      <trkpt lat="40.918797" lon="0.758619">
        <ele>113.844032</ele>
        <time>2022-06-05T08:18:03.000Z</time>
      </trkpt>
      <trkpt lat="40.918825" lon="0.758632">
        <ele>113.861195</ele>
        <time>2022-06-05T08:18:03.000Z</time>
      </trkpt>
      <trkpt lat="40.919781" lon="0.759495">
        <ele>115.165523</ele>
        <time>2022-06-05T08:18:16.000Z</time>
      </trkpt>
      <trkpt lat="40.920869" lon="0.760431">
        <ele>117.318578</ele>
        <time>2022-06-05T08:18:30.000Z</time>
      </trkpt>
      <trkpt lat="40.923056" lon="0.762332">
        <ele>118.448533</ele>
        <time>2022-06-05T08:18:59.000Z</time>
      </trkpt>
      <trkpt lat="40.923117" lon="0.762363">
        <ele>118.380836</ele>
        <time>2022-06-05T08:19:00.000Z</time>
      </trkpt>
      <trkpt lat="40.923162" lon="0.762409">
        <ele>118.311381</ele>
        <time>2022-06-05T08:19:01.000Z</time>
      </trkpt>
      <trkpt lat="40.923494" lon="0.762576">
        <ele>117.938925</ele>
        <time>2022-06-05T08:19:05.000Z</time>
      </trkpt>
      <trkpt lat="40.923587" lon="0.762611">
        <ele>117.820439</ele>
        <time>2022-06-05T08:19:06.000Z</time>
      </trkpt>
      <trkpt lat="40.923848" lon="0.762656">
        <ele>117.546795</ele>
        <time>2022-06-05T08:19:09.000Z</time>
      </trkpt>
      <trkpt lat="40.924556" lon="0.762761">
        <ele>114.657983</ele>
        <time>2022-06-05T08:19:17.000Z</time>
      </trkpt>
      <trkpt lat="40.924702" lon="0.762816">
        <ele>113.981803</ele>
        <time>2022-06-05T08:19:19.000Z</time>
      </trkpt>
      <trkpt lat="40.924849" lon="0.763033">
        <ele>113.034857</ele>
        <time>2022-06-05T08:19:21.000Z</time>
      </trkpt>
      <trkpt lat="40.924855" lon="0.763379">
        <ele>111.90122</ele>
        <time>2022-06-05T08:19:24.000Z</time>
      </trkpt>
      <trkpt lat="40.924779" lon="0.763556">
        <ele>111.170696</ele>
        <time>2022-06-05T08:19:26.000Z</time>
      </trkpt>
      <trkpt lat="40.924636" lon="0.763665">
        <ele>110.519779</ele>
        <time>2022-06-05T08:19:28.000Z</time>
      </trkpt>
      <trkpt lat="40.923938" lon="0.763731">
        <ele>108.482724</ele>
        <time>2022-06-05T08:19:36.000Z</time>
      </trkpt>
      <trkpt lat="40.923692" lon="0.763862">
        <ele>107.86086</ele>
        <time>2022-06-05T08:19:39.000Z</time>
      </trkpt>
      <trkpt lat="40.923546" lon="0.764086">
        <ele>107.342774</ele>
        <time>2022-06-05T08:19:41.000Z</time>
      </trkpt>
      <trkpt lat="40.923208" lon="0.764794">
        <ele>105.85605</ele>
        <time>2022-06-05T08:19:48.000Z</time>
      </trkpt>
      <trkpt lat="40.923161" lon="0.764889">
        <ele>105.675065</ele>
        <time>2022-06-05T08:19:49.000Z</time>
      </trkpt>
      <trkpt lat="40.922882" lon="0.765486">
        <ele>106.30264</ele>
        <time>2022-06-05T08:19:55.000Z</time>
      </trkpt>
      <trkpt lat="40.922768" lon="0.765818">
        <ele>106.834997</ele>
        <time>2022-06-05T08:19:58.000Z</time>
      </trkpt>
      <trkpt lat="40.922771" lon="0.766256">
        <ele>107.423944</ele>
        <time>2022-06-05T08:20:02.000Z</time>
      </trkpt>
      <trkpt lat="40.922949" lon="0.767105">
        <ele>108.639943</ele>
        <time>2022-06-05T08:20:09.000Z</time>
      </trkpt>
      <trkpt lat="40.923197" lon="0.767709">
        <ele>111.059952</ele>
        <time>2022-06-05T08:20:15.000Z</time>
      </trkpt>
      <trkpt lat="40.923291" lon="0.767777">
        <ele>111.594542</ele>
        <time>2022-06-05T08:20:16.000Z</time>
      </trkpt>
      <trkpt lat="40.923404" lon="0.767769">
        <ele>112.212853</ele>
        <time>2022-06-05T08:20:17.000Z</time>
      </trkpt>
      <trkpt lat="40.924384" lon="0.767582">
        <ele>117.416313</ele>
        <time>2022-06-05T08:20:28.000Z</time>
      </trkpt>
      <trkpt lat="40.924672" lon="0.767711">
        <ele>118.759623</ele>
        <time>2022-06-05T08:20:31.000Z</time>
      </trkpt>
      <trkpt lat="40.924753" lon="0.767782">
        <ele>119.129516</ele>
        <time>2022-06-05T08:20:32.000Z</time>
      </trkpt>
      <trkpt lat="40.92569" lon="0.768942">
        <ele>124.291033</ele>
        <time>2022-06-05T08:20:46.000Z</time>
      </trkpt>
      <trkpt lat="40.926069" lon="0.769438">
        <ele>125.469189</ele>
        <time>2022-06-05T08:20:52.000Z</time>
      </trkpt>
      <trkpt lat="40.926437" lon="0.76988">
        <ele>125.762943</ele>
        <time>2022-06-05T08:20:58.000Z</time>
      </trkpt>
      <trkpt lat="40.926928" lon="0.770498">
        <ele>126.161554</ele>
        <time>2022-06-05T08:21:06.000Z</time>
      </trkpt>
      <trkpt lat="40.927138" lon="0.770844">
        <ele>126.356186</ele>
        <time>2022-06-05T08:21:10.000Z</time>
      </trkpt>
      <trkpt lat="40.927162" lon="0.770874">
        <ele>126.360161</ele>
        <time>2022-06-05T08:21:10.000Z</time>
      </trkpt>
      <trkpt lat="40.927182" lon="0.770949">
        <ele>126.35971</ele>
        <time>2022-06-05T08:21:11.000Z</time>
      </trkpt>
      <trkpt lat="40.927222" lon="0.771054">
        <ele>126.359039</ele>
        <time>2022-06-05T08:21:12.000Z</time>
      </trkpt>
      <trkpt lat="40.927256" lon="0.771202">
        <ele>126.35809</ele>
        <time>2022-06-05T08:21:13.000Z</time>
      </trkpt>
      <trkpt lat="40.927733" lon="0.773563">
        <ele>126.898299</ele>
        <time>2022-06-05T08:21:34.000Z</time>
      </trkpt>
      <trkpt lat="40.927945" lon="0.774648">
        <ele>128.26272</ele>
        <time>2022-06-05T08:21:43.000Z</time>
      </trkpt>
      <trkpt lat="40.927975" lon="0.774826">
        <ele>128.503174</ele>
        <time>2022-06-05T08:21:45.000Z</time>
      </trkpt>
      <trkpt lat="40.928162" lon="0.775735">
        <ele>129.934182</ele>
        <time>2022-06-05T08:21:53.000Z</time>
      </trkpt>
      <trkpt lat="40.92821" lon="0.776057">
        <ele>130.645027</ele>
        <time>2022-06-05T08:21:56.000Z</time>
      </trkpt>
      <trkpt lat="40.928259" lon="0.776322">
        <ele>131.259859</ele>
        <time>2022-06-05T08:21:58.000Z</time>
      </trkpt>
      <trkpt lat="40.928379" lon="0.776939">
        <ele>132.644799</ele>
        <time>2022-06-05T08:22:03.000Z</time>
      </trkpt>
      <trkpt lat="40.928485" lon="0.777254">
        <ele>133.40278</ele>
        <time>2022-06-05T08:22:06.000Z</time>
      </trkpt>
      <trkpt lat="40.928624" lon="0.777518">
        <ele>134.091019</ele>
        <time>2022-06-05T08:22:09.000Z</time>
      </trkpt>
      <trkpt lat="40.928989" lon="0.777778">
        <ele>134.782713</ele>
        <time>2022-06-05T08:22:14.000Z</time>
      </trkpt>
      <trkpt lat="40.929636" lon="0.778026">
        <ele>135.492067</ele>
        <time>2022-06-05T08:22:21.000Z</time>
      </trkpt>
      <trkpt lat="40.929832" lon="0.77801">
        <ele>135.697548</ele>
        <time>2022-06-05T08:22:23.000Z</time>
      </trkpt>
      <trkpt lat="40.930043" lon="0.777908">
        <ele>135.93511</ele>
        <time>2022-06-05T08:22:25.000Z</time>
      </trkpt>
      <trkpt lat="40.930175" lon="0.777931">
        <ele>136.090602</ele>
        <time>2022-06-05T08:22:26.000Z</time>
      </trkpt>
      <trkpt lat="40.930259" lon="0.77809">
        <ele>136.241227</ele>
        <time>2022-06-05T08:22:28.000Z</time>
      </trkpt>
      <trkpt lat="40.930258" lon="0.778246">
        <ele>136.360014</ele>
        <time>2022-06-05T08:22:29.000Z</time>
      </trkpt>
      <trkpt lat="40.930122" lon="0.77863">
        <ele>135.679721</ele>
        <time>2022-06-05T08:22:33.000Z</time>
      </trkpt>
      <trkpt lat="40.929873" lon="0.779029">
        <ele>134.810103</ele>
        <time>2022-06-05T08:22:37.000Z</time>
      </trkpt>
      <trkpt lat="40.929834" lon="0.779124">
        <ele>134.614256</ele>
        <time>2022-06-05T08:22:38.000Z</time>
      </trkpt>
      <trkpt lat="40.929474" lon="0.779856">
        <ele>133.103553</ele>
        <time>2022-06-05T08:22:45.000Z</time>
      </trkpt>
      <trkpt lat="40.929626" lon="0.780423">
        <ele>132.129456</ele>
        <time>2022-06-05T08:22:50.000Z</time>
      </trkpt>
      <trkpt lat="40.929509" lon="0.781032">
        <ele>131.534486</ele>
        <time>2022-06-05T08:22:55.000Z</time>
      </trkpt>
      <trkpt lat="40.929526" lon="0.781212">
        <ele>131.367826</ele>
        <time>2022-06-05T08:22:57.000Z</time>
      </trkpt>
      <trkpt lat="40.929654" lon="0.781366">
        <ele>131.158216</ele>
        <time>2022-06-05T08:22:59.000Z</time>
      </trkpt>
      <trkpt lat="40.930315" lon="0.781738">
        <ele>130.245535</ele>
        <time>2022-06-05T08:23:07.000Z</time>
      </trkpt>
      <trkpt lat="40.930495" lon="0.781904">
        <ele>129.965265</ele>
        <time>2022-06-05T08:23:09.000Z</time>
      </trkpt>
      <trkpt lat="40.931037" lon="0.78301">
        <ele>131.258945</ele>
        <time>2022-06-05T08:23:20.000Z</time>
      </trkpt>
      <trkpt lat="40.931051" lon="0.783026">
        <ele>131.296875</ele>
        <time>2022-06-05T08:23:20.000Z</time>
      </trkpt>
      <trkpt lat="40.931138" lon="0.783228">
        <ele>131.530145</ele>
        <time>2022-06-05T08:23:22.000Z</time>
      </trkpt>
      <trkpt lat="40.931276" lon="0.783694">
        <ele>132.016118</ele>
        <time>2022-06-05T08:23:26.000Z</time>
      </trkpt>
      <trkpt lat="40.931291" lon="0.783832">
        <ele>132.160542</ele>
        <time>2022-06-05T08:23:27.000Z</time>
      </trkpt>
      <trkpt lat="40.931326" lon="0.783966">
        <ele>132.300834</ele>
        <time>2022-06-05T08:23:28.000Z</time>
      </trkpt>
      <trkpt lat="40.931603" lon="0.785581">
        <ele>132.581851</ele>
        <time>2022-06-05T08:23:42.000Z</time>
      </trkpt>
      <trkpt lat="40.931728" lon="0.787288">
        <ele>131.161515</ele>
        <time>2022-06-05T08:23:56.000Z</time>
      </trkpt>
      <trkpt lat="40.931813" lon="0.787703">
        <ele>130.493939</ele>
        <time>2022-06-05T08:24:00.000Z</time>
      </trkpt>
      <trkpt lat="40.931833" lon="0.787804">
        <ele>130.319503</ele>
        <time>2022-06-05T08:24:01.000Z</time>
      </trkpt>
      <trkpt lat="40.932671" lon="0.792428">
        <ele>121.400848</ele>
        <time>2022-06-05T08:24:41.000Z</time>
      </trkpt>
      <trkpt lat="40.933148" lon="0.793665">
        <ele>118.594628</ele>
        <time>2022-06-05T08:24:53.000Z</time>
      </trkpt>
      <trkpt lat="40.933406" lon="0.794723">
        <ele>116.146976</ele>
        <time>2022-06-05T08:25:02.000Z</time>
      </trkpt>
      <trkpt lat="40.933586" lon="0.795432">
        <ele>114.530579</ele>
        <time>2022-06-05T08:25:08.000Z</time>
      </trkpt>
      <trkpt lat="40.93363" lon="0.795606">
        <ele>114.351855</ele>
        <time>2022-06-05T08:25:10.000Z</time>
      </trkpt>
      <trkpt lat="40.933765" lon="0.795792">
        <ele>114.142884</ele>
        <time>2022-06-05T08:25:12.000Z</time>
      </trkpt>
      <trkpt lat="40.934326" lon="0.795672">
        <ele>113.551046</ele>
        <time>2022-06-05T08:25:18.000Z</time>
      </trkpt>
      <trkpt lat="40.93453" lon="0.795773">
        <ele>113.340607</ele>
        <time>2022-06-05T08:25:20.000Z</time>
      </trkpt>
      <trkpt lat="40.934612" lon="0.795996">
        <ele>113.154665</ele>
        <time>2022-06-05T08:25:22.000Z</time>
      </trkpt>
      <trkpt lat="40.93469" lon="0.796524">
        <ele>112.737525</ele>
        <time>2022-06-05T08:25:27.000Z</time>
      </trkpt>
      <trkpt lat="40.934784" lon="0.796735">
        <ele>112.888272</ele>
        <time>2022-06-05T08:25:29.000Z</time>
      </trkpt>
      <trkpt lat="40.934876" lon="0.796821">
        <ele>113.199316</ele>
        <time>2022-06-05T08:25:30.000Z</time>
      </trkpt>
      <trkpt lat="40.934959" lon="0.796908">
        <ele>113.503633</ele>
        <time>2022-06-05T08:25:31.000Z</time>
      </trkpt>
      <trkpt lat="40.935175" lon="0.797116">
        <ele>114.287451</ele>
        <time>2022-06-05T08:25:34.000Z</time>
      </trkpt>
      <trkpt lat="40.936281" lon="0.797712">
        <ele>117.790136</ele>
        <time>2022-06-05T08:25:47.000Z</time>
      </trkpt>
      <trkpt lat="40.93765" lon="0.798575">
        <ele>124.678342</ele>
        <time>2022-06-05T08:26:04.000Z</time>
      </trkpt>
      <trkpt lat="40.9379" lon="0.798819">
        <ele>126.122023</ele>
        <time>2022-06-05T08:26:07.000Z</time>
      </trkpt>
      <trkpt lat="40.938533" lon="0.799627">
        <ele>128.859953</ele>
        <time>2022-06-05T08:26:17.000Z</time>
      </trkpt>
      <trkpt lat="40.938871" lon="0.800263">
        <ele>130.652015</ele>
        <time>2022-06-05T08:26:24.000Z</time>
      </trkpt>
      <trkpt lat="40.938953" lon="0.800468">
        <ele>131.205128</ele>
        <time>2022-06-05T08:26:26.000Z</time>
      </trkpt>
      <trkpt lat="40.939143" lon="0.800833">
        <ele>131.563607</ele>
        <time>2022-06-05T08:26:30.000Z</time>
      </trkpt>
      <trkpt lat="40.939266" lon="0.801105">
        <ele>131.342907</ele>
        <time>2022-06-05T08:26:33.000Z</time>
      </trkpt>
      <trkpt lat="40.939783" lon="0.802241">
        <ele>130.40189</ele>
        <time>2022-06-05T08:26:44.000Z</time>
      </trkpt>
      <trkpt lat="40.939905" lon="0.802837">
        <ele>129.766394</ele>
        <time>2022-06-05T08:26:49.000Z</time>
      </trkpt>
      <trkpt lat="40.940012" lon="0.803904">
        <ele>126.991494</ele>
        <time>2022-06-05T08:26:58.000Z</time>
      </trkpt>
      <trkpt lat="40.940057" lon="0.80456">
        <ele>125.325108</ele>
        <time>2022-06-05T08:27:04.000Z</time>
      </trkpt>
      <trkpt lat="40.940089" lon="0.805347">
        <ele>123.580186</ele>
        <time>2022-06-05T08:27:11.000Z</time>
      </trkpt>
      <trkpt lat="40.940109" lon="0.805616">
        <ele>123.218997</ele>
        <time>2022-06-05T08:27:13.000Z</time>
      </trkpt>
      <trkpt lat="40.940174" lon="0.805788">
        <ele>122.945663</ele>
        <time>2022-06-05T08:27:15.000Z</time>
      </trkpt>
      <trkpt lat="40.940303" lon="0.805748">
        <ele>122.701886</ele>
        <time>2022-06-05T08:27:16.000Z</time>
      </trkpt>
      <trkpt lat="40.940592" lon="0.805544">
        <ele>122.100097</ele>
        <time>2022-06-05T08:27:20.000Z</time>
      </trkpt>
      <trkpt lat="40.9407" lon="0.805565">
        <ele>121.870571</ele>
        <time>2022-06-05T08:27:21.000Z</time>
      </trkpt>
      <trkpt lat="40.94086" lon="0.805818">
        <ele>121.411261</ele>
        <time>2022-06-05T08:27:24.000Z</time>
      </trkpt>
      <trkpt lat="40.940908" lon="0.806176">
        <ele>120.902361</ele>
        <time>2022-06-05T08:27:27.000Z</time>
      </trkpt>
      <trkpt lat="40.941011" lon="0.806443">
        <ele>120.614134</ele>
        <time>2022-06-05T08:27:30.000Z</time>
      </trkpt>
      <trkpt lat="40.942455" lon="0.808152">
        <ele>120.7388</ele>
        <time>2022-06-05T08:27:52.000Z</time>
      </trkpt>
      <trkpt lat="40.942613" lon="0.808649">
        <ele>120.608527</ele>
        <time>2022-06-05T08:27:57.000Z</time>
      </trkpt>
      <trkpt lat="40.942738" lon="0.810204">
        <ele>120.222939</ele>
        <time>2022-06-05T08:28:10.000Z</time>
      </trkpt>
      <trkpt lat="40.942687" lon="0.814721">
        <ele>116.573409</ele>
        <time>2022-06-05T08:28:48.000Z</time>
      </trkpt>
      <trkpt lat="40.9427" lon="0.815415">
        <ele>116.562033</ele>
        <time>2022-06-05T08:28:54.000Z</time>
      </trkpt>
      <trkpt lat="40.942695" lon="0.815438">
        <ele>116.570933</ele>
        <time>2022-06-05T08:28:54.000Z</time>
      </trkpt>
      <trkpt lat="40.942701" lon="0.815411">
        <ele>116.579824</ele>
        <time>2022-06-05T08:28:54.000Z</time>
      </trkpt>
      <trkpt lat="40.942688" lon="0.814725">
        <ele>116.878071</ele>
        <time>2022-06-05T08:29:00.000Z</time>
      </trkpt>
      <trkpt lat="40.942739" lon="0.810205">
        <ele>120.024323</ele>
        <time>2022-06-05T08:29:38.000Z</time>
      </trkpt>
      <trkpt lat="40.942613" lon="0.808649">
        <ele>120.760704</ele>
        <time>2022-06-05T08:29:51.000Z</time>
      </trkpt>
      <trkpt lat="40.942458" lon="0.808147">
        <ele>120.715642</ele>
        <time>2022-06-05T08:29:56.000Z</time>
      </trkpt>
      <trkpt lat="40.941001" lon="0.806438">
        <ele>121.087148</ele>
        <time>2022-06-05T08:30:18.000Z</time>
      </trkpt>
      <trkpt lat="40.940911" lon="0.806173">
        <ele>121.261551</ele>
        <time>2022-06-05T08:30:20.000Z</time>
      </trkpt>
      <trkpt lat="40.940862" lon="0.805808">
        <ele>121.480623</ele>
        <time>2022-06-05T08:30:23.000Z</time>
      </trkpt>
      <trkpt lat="40.940711" lon="0.805564">
        <ele>121.678348</ele>
        <time>2022-06-05T08:30:26.000Z</time>
      </trkpt>
      <trkpt lat="40.940577" lon="0.805533">
        <ele>121.777139</ele>
        <time>2022-06-05T08:30:28.000Z</time>
      </trkpt>
      <trkpt lat="40.940294" lon="0.805756">
        <ele>122.134141</ele>
        <time>2022-06-05T08:30:32.000Z</time>
      </trkpt>
      <trkpt lat="40.940169" lon="0.805789">
        <ele>122.553559</ele>
        <time>2022-06-05T08:30:33.000Z</time>
      </trkpt>
      <trkpt lat="40.940113" lon="0.805604">
        <ele>123.023805</ele>
        <time>2022-06-05T08:30:35.000Z</time>
      </trkpt>
      <trkpt lat="40.940092" lon="0.805346">
        <ele>123.645223</ele>
        <time>2022-06-05T08:30:37.000Z</time>
      </trkpt>
      <trkpt lat="40.940059" lon="0.80456">
        <ele>125.558341</ele>
        <time>2022-06-05T08:30:44.000Z</time>
      </trkpt>
      <trkpt lat="40.940023" lon="0.803902">
        <ele>127.121134</ele>
        <time>2022-06-05T08:30:50.000Z</time>
      </trkpt>
      <trkpt lat="40.939904" lon="0.802833">
        <ele>129.199643</ele>
        <time>2022-06-05T08:30:59.000Z</time>
      </trkpt>
      <trkpt lat="40.939791" lon="0.802235">
        <ele>130.301237</ele>
        <time>2022-06-05T08:31:04.000Z</time>
      </trkpt>
      <trkpt lat="40.939277" lon="0.8011">
        <ele>131.466339</ele>
        <time>2022-06-05T08:31:15.000Z</time>
      </trkpt>
      <trkpt lat="40.939142" lon="0.800838">
        <ele>131.089692</ele>
        <time>2022-06-05T08:31:18.000Z</time>
      </trkpt>
      <trkpt lat="40.938959" lon="0.800468">
        <ele>130.544013</ele>
        <time>2022-06-05T08:31:22.000Z</time>
      </trkpt>
      <trkpt lat="40.938873" lon="0.800248">
        <ele>130.257264</ele>
        <time>2022-06-05T08:31:24.000Z</time>
      </trkpt>
      <trkpt lat="40.938533" lon="0.799613">
        <ele>129.328219</ele>
        <time>2022-06-05T08:31:31.000Z</time>
      </trkpt>
      <trkpt lat="40.937896" lon="0.798818">
        <ele>125.871646</ele>
        <time>2022-06-05T08:31:41.000Z</time>
      </trkpt>
      <trkpt lat="40.937644" lon="0.798577">
        <ele>124.471683</ele>
        <time>2022-06-05T08:31:44.000Z</time>
      </trkpt>
      <trkpt lat="40.936285" lon="0.797706">
        <ele>118.125344</ele>
        <time>2022-06-05T08:32:01.000Z</time>
      </trkpt>
      <trkpt lat="40.935179" lon="0.797101">
        <ele>113.895772</ele>
        <time>2022-06-05T08:32:14.000Z</time>
      </trkpt>
      <trkpt lat="40.934953" lon="0.79691">
        <ele>113.751957</ele>
        <time>2022-06-05T08:32:17.000Z</time>
      </trkpt>
      <trkpt lat="40.934864" lon="0.796837">
        <ele>113.696112</ele>
        <time>2022-06-05T08:32:18.000Z</time>
      </trkpt>
      <trkpt lat="40.934784" lon="0.796727">
        <ele>113.639049</ele>
        <time>2022-06-05T08:32:19.000Z</time>
      </trkpt>
      <trkpt lat="40.934694" lon="0.796522">
        <ele>113.532839</ele>
        <time>2022-06-05T08:32:21.000Z</time>
      </trkpt>
      <trkpt lat="40.934598" lon="0.795995">
        <ele>113.31517</ele>
        <time>2022-06-05T08:32:26.000Z</time>
      </trkpt>
      <trkpt lat="40.934518" lon="0.795771">
        <ele>113.218153</ele>
        <time>2022-06-05T08:32:28.000Z</time>
      </trkpt>
      <trkpt lat="40.934329" lon="0.795674">
        <ele>113.10833</ele>
        <time>2022-06-05T08:32:30.000Z</time>
      </trkpt>
      <trkpt lat="40.933769" lon="0.795795">
        <ele>113.982196</ele>
        <time>2022-06-05T08:32:36.000Z</time>
      </trkpt>
      <trkpt lat="40.933624" lon="0.795606">
        <ele>114.502098</ele>
        <time>2022-06-05T08:32:38.000Z</time>
      </trkpt>
      <trkpt lat="40.933588" lon="0.79544">
        <ele>114.862699</ele>
        <time>2022-06-05T08:32:39.000Z</time>
      </trkpt>
      <trkpt lat="40.933407" lon="0.794733">
        <ele>116.297695</ele>
        <time>2022-06-05T08:32:45.000Z</time>
      </trkpt>
      <trkpt lat="40.93315" lon="0.793661">
        <ele>118.537191</ele>
        <time>2022-06-05T08:32:54.000Z</time>
      </trkpt>
      <trkpt lat="40.932678" lon="0.792446">
        <ele>121.390724</ele>
        <time>2022-06-05T08:33:05.000Z</time>
      </trkpt>
      <trkpt lat="40.931827" lon="0.787815">
        <ele>130.432525</ele>
        <time>2022-06-05T08:33:45.000Z</time>
      </trkpt>
      <trkpt lat="40.931808" lon="0.787711">
        <ele>130.633071</ele>
        <time>2022-06-05T08:33:46.000Z</time>
      </trkpt>
      <trkpt lat="40.931739" lon="0.787296">
        <ele>131.40061</ele>
        <time>2022-06-05T08:33:50.000Z</time>
      </trkpt>
      <trkpt lat="40.931591" lon="0.785589">
        <ele>132.608872</ele>
        <time>2022-06-05T08:34:04.000Z</time>
      </trkpt>
      <trkpt lat="40.931319" lon="0.783973">
        <ele>132.116372</ele>
        <time>2022-06-05T08:34:18.000Z</time>
      </trkpt>
      <trkpt lat="40.931303" lon="0.783831">
        <ele>131.972768</ele>
        <time>2022-06-05T08:34:19.000Z</time>
      </trkpt>
      <trkpt lat="40.931277" lon="0.783701">
        <ele>131.824946</ele>
        <time>2022-06-05T08:34:20.000Z</time>
      </trkpt>
      <trkpt lat="40.931138" lon="0.783233">
        <ele>131.327487</ele>
        <time>2022-06-05T08:34:24.000Z</time>
      </trkpt>
      <trkpt lat="40.931039" lon="0.783032">
        <ele>131.08871</ele>
        <time>2022-06-05T08:34:26.000Z</time>
      </trkpt>
      <trkpt lat="40.931037" lon="0.782999">
        <ele>131.049897</ele>
        <time>2022-06-05T08:34:26.000Z</time>
      </trkpt>
      <trkpt lat="40.930481" lon="0.781901">
        <ele>130.649263</ele>
        <time>2022-06-05T08:34:37.000Z</time>
      </trkpt>
      <trkpt lat="40.930317" lon="0.781742">
        <ele>130.642614</ele>
        <time>2022-06-05T08:34:39.000Z</time>
      </trkpt>
      <trkpt lat="40.929638" lon="0.781353">
        <ele>130.620976</ele>
        <time>2022-06-05T08:34:47.000Z</time>
      </trkpt>
      <trkpt lat="40.929531" lon="0.781215">
        <ele>130.659642</ele>
        <time>2022-06-05T08:34:49.000Z</time>
      </trkpt>
      <trkpt lat="40.929509" lon="0.781025">
        <ele>130.995636</ele>
        <time>2022-06-05T08:34:51.000Z</time>
      </trkpt>
      <trkpt lat="40.929609" lon="0.780432">
        <ele>132.195204</ele>
        <time>2022-06-05T08:34:56.000Z</time>
      </trkpt>
      <trkpt lat="40.92948" lon="0.779845">
        <ele>133.378418</ele>
        <time>2022-06-05T08:35:01.000Z</time>
      </trkpt>
      <trkpt lat="40.929833" lon="0.779117">
        <ele>135.053894</ele>
        <time>2022-06-05T08:35:08.000Z</time>
      </trkpt>
      <trkpt lat="40.929889" lon="0.779037">
        <ele>135.223003</ele>
        <time>2022-06-05T08:35:09.000Z</time>
      </trkpt>
      <trkpt lat="40.93012" lon="0.778641">
        <ele>135.389098</ele>
        <time>2022-06-05T08:35:13.000Z</time>
      </trkpt>
      <trkpt lat="40.930261" lon="0.778242">
        <ele>135.535502</ele>
        <time>2022-06-05T08:35:17.000Z</time>
      </trkpt>
      <trkpt lat="40.930256" lon="0.778088">
        <ele>135.584742</ele>
        <time>2022-06-05T08:35:18.000Z</time>
      </trkpt>
      <trkpt lat="40.930189" lon="0.777935">
        <ele>135.647155</ele>
        <time>2022-06-05T08:35:19.000Z</time>
      </trkpt>
      <trkpt lat="40.930045" lon="0.7779">
        <ele>135.711599</ele>
        <time>2022-06-05T08:35:21.000Z</time>
      </trkpt>
      <trkpt lat="40.929837" lon="0.778016">
        <ele>135.810036</ele>
        <time>2022-06-05T08:35:24.000Z</time>
      </trkpt>
      <trkpt lat="40.929633" lon="0.778024">
        <ele>135.895186</ele>
        <time>2022-06-05T08:35:26.000Z</time>
      </trkpt>
      <trkpt lat="40.929003" lon="0.777771">
        <ele>134.908242</ele>
        <time>2022-06-05T08:35:33.000Z</time>
      </trkpt>
      <trkpt lat="40.92862" lon="0.777507">
        <ele>133.806584</ele>
        <time>2022-06-05T08:35:38.000Z</time>
      </trkpt>
      <trkpt lat="40.928489" lon="0.777258">
        <ele>133.184071</ele>
        <time>2022-06-05T08:35:41.000Z</time>
      </trkpt>
      <trkpt lat="40.928391" lon="0.77694">
        <ele>132.498482</ele>
        <time>2022-06-05T08:35:44.000Z</time>
      </trkpt>
      <trkpt lat="40.928276" lon="0.776324">
        <ele>131.250367</ele>
        <time>2022-06-05T08:35:49.000Z</time>
      </trkpt>
      <trkpt lat="40.928209" lon="0.776039">
        <ele>130.739318</ele>
        <time>2022-06-05T08:35:52.000Z</time>
      </trkpt>
      <trkpt lat="40.92816" lon="0.77574">
        <ele>130.148458</ele>
        <time>2022-06-05T08:35:55.000Z</time>
      </trkpt>
      <trkpt lat="40.927972" lon="0.774824">
        <ele>128.460949</ele>
        <time>2022-06-05T08:36:03.000Z</time>
      </trkpt>
      <trkpt lat="40.927936" lon="0.774646">
        <ele>128.106552</ele>
        <time>2022-06-05T08:36:05.000Z</time>
      </trkpt>
      <trkpt lat="40.927728" lon="0.773567">
        <ele>126.827427</ele>
        <time>2022-06-05T08:36:14.000Z</time>
      </trkpt>
      <trkpt lat="40.927258" lon="0.771208">
        <ele>126.257213</ele>
        <time>2022-06-05T08:36:34.000Z</time>
      </trkpt>
      <trkpt lat="40.927223" lon="0.771043">
        <ele>126.264538</ele>
        <time>2022-06-05T08:36:35.000Z</time>
      </trkpt>
      <trkpt lat="40.927181" lon="0.770946">
        <ele>126.269768</ele>
        <time>2022-06-05T08:36:36.000Z</time>
      </trkpt>
      <trkpt lat="40.927156" lon="0.77087">
        <ele>126.273242</ele>
        <time>2022-06-05T08:36:37.000Z</time>
      </trkpt>
      <trkpt lat="40.927148" lon="0.770841">
        <ele>126.274988</ele>
        <time>2022-06-05T08:36:37.000Z</time>
      </trkpt>
      <trkpt lat="40.926941" lon="0.770505">
        <ele>126.295272</ele>
        <time>2022-06-05T08:36:41.000Z</time>
      </trkpt>
      <trkpt lat="40.926438" lon="0.769873">
        <ele>126.336824</ele>
        <time>2022-06-05T08:36:49.000Z</time>
      </trkpt>
      <trkpt lat="40.926079" lon="0.769429">
        <ele>125.193757</ele>
        <time>2022-06-05T08:36:54.000Z</time>
      </trkpt>
      <trkpt lat="40.925685" lon="0.768956">
        <ele>123.776794</ele>
        <time>2022-06-05T08:37:00.000Z</time>
      </trkpt>
      <trkpt lat="40.924743" lon="0.767783">
        <ele>119.164409</ele>
        <time>2022-06-05T08:37:14.000Z</time>
      </trkpt>
      <trkpt lat="40.924678" lon="0.767712">
        <ele>118.678937</ele>
        <time>2022-06-05T08:37:15.000Z</time>
      </trkpt>
      <trkpt lat="40.924401" lon="0.767584">
        <ele>117.126463</ele>
        <time>2022-06-05T08:37:18.000Z</time>
      </trkpt>
      <trkpt lat="40.923398" lon="0.767765">
        <ele>111.947446</ele>
        <time>2022-06-05T08:37:29.000Z</time>
      </trkpt>
      <trkpt lat="40.923273" lon="0.767776">
        <ele>111.533033</ele>
        <time>2022-06-05T08:37:30.000Z</time>
      </trkpt>
      <trkpt lat="40.923195" lon="0.767708">
        <ele>111.174723</ele>
        <time>2022-06-05T08:37:31.000Z</time>
      </trkpt>
      <trkpt lat="40.922951" lon="0.767106">
        <ele>109.393961</ele>
        <time>2022-06-05T08:37:37.000Z</time>
      </trkpt>
      <trkpt lat="40.922774" lon="0.766253">
        <ele>107.068002</ele>
        <time>2022-06-05T08:37:44.000Z</time>
      </trkpt>
      <trkpt lat="40.922753" lon="0.765823">
        <ele>105.941476</ele>
        <time>2022-06-05T08:37:48.000Z</time>
      </trkpt>
      <trkpt lat="40.922884" lon="0.765481">
        <ele>106.053896</ele>
        <time>2022-06-05T08:37:51.000Z</time>
      </trkpt>
      <trkpt lat="40.923151" lon="0.764884">
        <ele>106.484531</ele>
        <time>2022-06-05T08:37:57.000Z</time>
      </trkpt>
      <trkpt lat="40.923203" lon="0.7648">
        <ele>106.548472</ele>
        <time>2022-06-05T08:37:58.000Z</time>
      </trkpt>
      <trkpt lat="40.923542" lon="0.764083">
        <ele>107.073695</ele>
        <time>2022-06-05T08:38:05.000Z</time>
      </trkpt>
      <trkpt lat="40.923692" lon="0.763876">
        <ele>107.256719</ele>
        <time>2022-06-05T08:38:07.000Z</time>
      </trkpt>
      <trkpt lat="40.92393" lon="0.763737">
        <ele>108.077364</ele>
        <time>2022-06-05T08:38:10.000Z</time>
      </trkpt>
      <trkpt lat="40.924643" lon="0.763663">
        <ele>110.900278</ele>
        <time>2022-06-05T08:38:18.000Z</time>
      </trkpt>
      <trkpt lat="40.924776" lon="0.763557">
        <ele>111.498323</ele>
        <time>2022-06-05T08:38:20.000Z</time>
      </trkpt>
      <trkpt lat="40.924864" lon="0.763363">
        <ele>112.169541</ele>
        <time>2022-06-05T08:38:22.000Z</time>
      </trkpt>
      <trkpt lat="40.924852" lon="0.76302">
        <ele>113.211127</ele>
        <time>2022-06-05T08:38:25.000Z</time>
      </trkpt>
      <trkpt lat="40.924693" lon="0.76282">
        <ele>114.081186</ele>
        <time>2022-06-05T08:38:27.000Z</time>
      </trkpt>
      <trkpt lat="40.92455" lon="0.762755">
        <ele>114.64242</ele>
        <time>2022-06-05T08:38:29.000Z</time>
      </trkpt>
      <trkpt lat="40.923846" lon="0.762656">
        <ele>116.689036</ele>
        <time>2022-06-05T08:38:37.000Z</time>
      </trkpt>
      <trkpt lat="40.923588" lon="0.762611">
        <ele>117.42038</ele>
        <time>2022-06-05T08:38:40.000Z</time>
      </trkpt>
      <trkpt lat="40.92348" lon="0.762587">
        <ele>117.737075</ele>
        <time>2022-06-05T08:38:41.000Z</time>
      </trkpt>
      <trkpt lat="40.923169" lon="0.762421">
        <ele>118.732554</ele>
        <time>2022-06-05T08:38:45.000Z</time>
      </trkpt>
      <trkpt lat="40.923102" lon="0.762376">
        <ele>118.918192</ele>
        <time>2022-06-05T08:38:46.000Z</time>
      </trkpt>
      <trkpt lat="40.923056" lon="0.762321">
        <ele>119.09911</ele>
        <time>2022-06-05T08:38:47.000Z</time>
      </trkpt>
      <trkpt lat="40.920865" lon="0.76044">
        <ele>117.199694</ele>
        <time>2022-06-05T08:39:16.000Z</time>
      </trkpt>
      <trkpt lat="40.919776" lon="0.759493">
        <ele>115.10413</ele>
        <time>2022-06-05T08:39:30.000Z</time>
      </trkpt>
      <trkpt lat="40.918826" lon="0.758632">
        <ele>113.876864</ele>
        <time>2022-06-05T08:39:43.000Z</time>
      </trkpt>
      <trkpt lat="40.918789" lon="0.758635">
        <ele>113.843155</ele>
        <time>2022-06-05T08:39:43.000Z</time>
      </trkpt>
      <trkpt lat="40.918644" lon="0.758729">
        <ele>113.66441</ele>
        <time>2022-06-05T08:39:45.000Z</time>
      </trkpt>
      <trkpt lat="40.918612" lon="0.75879">
        <ele>113.598733</ele>
        <time>2022-06-05T08:39:46.000Z</time>
      </trkpt>
      <trkpt lat="40.918519" lon="0.759061">
        <ele>113.358745</ele>
        <time>2022-06-05T08:39:49.000Z</time>
      </trkpt>
      <trkpt lat="40.918449" lon="0.759348">
        <ele>113.273667</ele>
        <time>2022-06-05T08:39:52.000Z</time>
      </trkpt>
      <trkpt lat="40.918217" lon="0.760099">
        <ele>113.150793</ele>
        <time>2022-06-05T08:39:59.000Z</time>
      </trkpt>
      <trkpt lat="40.918016" lon="0.761045">
        <ele>112.997867</ele>
        <time>2022-06-05T08:40:07.000Z</time>
      </trkpt>
      <trkpt lat="40.917801" lon="0.76156">
        <ele>112.709601</ele>
        <time>2022-06-05T08:40:12.000Z</time>
      </trkpt>
      <trkpt lat="40.917735" lon="0.761627">
        <ele>112.601989</ele>
        <time>2022-06-05T08:40:13.000Z</time>
      </trkpt>
      <trkpt lat="40.917719" lon="0.761651">
        <ele>112.571854</ele>
        <time>2022-06-05T08:40:13.000Z</time>
      </trkpt>
      <trkpt lat="40.916941" lon="0.762365">
        <ele>111.336936</ele>
        <time>2022-06-05T08:40:24.000Z</time>
      </trkpt>
      <trkpt lat="40.916731" lon="0.762566">
        <ele>111.001431</ele>
        <time>2022-06-05T08:40:27.000Z</time>
      </trkpt>
      <trkpt lat="40.916618" lon="0.762674">
        <ele>110.809177</ele>
        <time>2022-06-05T08:40:29.000Z</time>
      </trkpt>
      <trkpt lat="40.916294" lon="0.762982">
        <ele>110.231368</ele>
        <time>2022-06-05T08:40:33.000Z</time>
      </trkpt>
      <trkpt lat="40.916209" lon="0.763078">
        <ele>110.050862</ele>
        <time>2022-06-05T08:40:34.000Z</time>
      </trkpt>
      <trkpt lat="40.915971" lon="0.763321">
        <ele>109.565671</ele>
        <time>2022-06-05T08:40:37.000Z</time>
      </trkpt>
      <trkpt lat="40.914966" lon="0.764153">
        <ele>107.652086</ele>
        <time>2022-06-05T08:40:50.000Z</time>
      </trkpt>
      <trkpt lat="40.914154" lon="0.765022">
        <ele>106.006821</ele>
        <time>2022-06-05T08:41:02.000Z</time>
      </trkpt>
      <trkpt lat="40.913892" lon="0.765369">
        <ele>105.43163</ele>
        <time>2022-06-05T08:41:06.000Z</time>
      </trkpt>
      <trkpt lat="40.913486" lon="0.766247">
        <ele>104.03449</ele>
        <time>2022-06-05T08:41:15.000Z</time>
      </trkpt>
      <trkpt lat="40.913467" lon="0.766276">
        <ele>103.977608</ele>
        <time>2022-06-05T08:41:15.000Z</time>
      </trkpt>
      <trkpt lat="40.913452" lon="0.766316">
        <ele>103.906228</ele>
        <time>2022-06-05T08:41:15.000Z</time>
      </trkpt>
      <trkpt lat="40.913343" lon="0.76656">
        <ele>103.471574</ele>
        <time>2022-06-05T08:41:17.000Z</time>
      </trkpt>
      <trkpt lat="40.913243" lon="0.766732">
        <ele>103.161638</ele>
        <time>2022-06-05T08:41:19.000Z</time>
      </trkpt>
      <trkpt lat="40.913158" lon="0.76687">
        <ele>102.871877</ele>
        <time>2022-06-05T08:41:20.000Z</time>
      </trkpt>
      <trkpt lat="40.910312" lon="0.770848">
        <ele>94.861465</ele>
        <time>2022-06-05T08:42:06.000Z</time>
      </trkpt>
      <trkpt lat="40.91007" lon="0.771132">
        <ele>94.231618</ele>
        <time>2022-06-05T08:42:10.000Z</time>
      </trkpt>
      <trkpt lat="40.908813" lon="0.772262">
        <ele>91.022245</ele>
        <time>2022-06-05T08:42:27.000Z</time>
      </trkpt>
      <trkpt lat="40.908364" lon="0.772675">
        <ele>89.868592</ele>
        <time>2022-06-05T08:42:33.000Z</time>
      </trkpt>
      <trkpt lat="40.908197" lon="0.772807">
        <ele>89.494248</ele>
        <time>2022-06-05T08:42:35.000Z</time>
      </trkpt>
      <trkpt lat="40.908046" lon="0.772944">
        <ele>89.09572</ele>
        <time>2022-06-05T08:42:37.000Z</time>
      </trkpt>
      <trkpt lat="40.907934" lon="0.773034">
        <ele>88.817153</ele>
        <time>2022-06-05T08:42:38.000Z</time>
      </trkpt>
      <trkpt lat="40.907886" lon="0.773069">
        <ele>88.699413</ele>
        <time>2022-06-05T08:42:39.000Z</time>
      </trkpt>
      <trkpt lat="40.907266" lon="0.773467">
        <ele>87.301855</ele>
        <time>2022-06-05T08:42:47.000Z</time>
      </trkpt>
      <trkpt lat="40.906813" lon="0.773846">
        <ele>86.234</ele>
        <time>2022-06-05T08:42:53.000Z</time>
      </trkpt>
      <trkpt lat="40.906575" lon="0.774057">
        <ele>85.680029</ele>
        <time>2022-06-05T08:42:56.000Z</time>
      </trkpt>
      <trkpt lat="40.905843" lon="0.774771">
        <ele>83.962678</ele>
        <time>2022-06-05T08:43:06.000Z</time>
      </trkpt>
      <trkpt lat="40.905643" lon="0.774952">
        <ele>83.503975</ele>
        <time>2022-06-05T08:43:09.000Z</time>
      </trkpt>
      <trkpt lat="40.904722" lon="0.775836">
        <ele>81.001725</ele>
        <time>2022-06-05T08:43:22.000Z</time>
      </trkpt>
      <trkpt lat="40.904303" lon="0.776356">
        <ele>79.779788</ele>
        <time>2022-06-05T08:43:28.000Z</time>
      </trkpt>
      <trkpt lat="40.903906" lon="0.776866">
        <ele>78.545231</ele>
        <time>2022-06-05T08:43:34.000Z</time>
      </trkpt>
      <trkpt lat="40.903268" lon="0.777673">
        <ele>76.611054</ele>
        <time>2022-06-05T08:43:44.000Z</time>
      </trkpt>
      <trkpt lat="40.902604" lon="0.77848">
        <ele>74.597916</ele>
        <time>2022-06-05T08:43:54.000Z</time>
      </trkpt>
      <trkpt lat="40.902459" lon="0.77866">
        <ele>74.166805</ele>
        <time>2022-06-05T08:43:56.000Z</time>
      </trkpt>
      <trkpt lat="40.902258" lon="0.778897">
        <ele>73.529556</ele>
        <time>2022-06-05T08:43:59.000Z</time>
      </trkpt>
      <trkpt lat="40.901969" lon="0.779266">
        <ele>72.609653</ele>
        <time>2022-06-05T08:44:03.000Z</time>
      </trkpt>
      <trkpt lat="40.90124" lon="0.780086">
        <ele>70.426688</ele>
        <time>2022-06-05T08:44:14.000Z</time>
      </trkpt>
      <trkpt lat="40.900358" lon="0.781432">
        <ele>67.433882</ele>
        <time>2022-06-05T08:44:29.000Z</time>
      </trkpt>
      <trkpt lat="40.899748" lon="0.782143">
        <ele>65.300694</ele>
        <time>2022-06-05T08:44:38.000Z</time>
      </trkpt>
      <trkpt lat="40.899665" lon="0.78221">
        <ele>65.052567</ele>
        <time>2022-06-05T08:44:39.000Z</time>
      </trkpt>
      <trkpt lat="40.89953" lon="0.782347">
        <ele>64.577351</ele>
        <time>2022-06-05T08:44:41.000Z</time>
      </trkpt>
      <trkpt lat="40.898941" lon="0.782865">
        <ele>62.747563</ele>
        <time>2022-06-05T08:44:49.000Z</time>
      </trkpt>
      <trkpt lat="40.898278" lon="0.78371">
        <ele>60.323161</ele>
        <time>2022-06-05T08:44:59.000Z</time>
      </trkpt>
      <trkpt lat="40.898065" lon="0.78404">
        <ele>59.427544</ele>
        <time>2022-06-05T08:45:03.000Z</time>
      </trkpt>
      <trkpt lat="40.897771" lon="0.784653">
        <ele>57.995579</ele>
        <time>2022-06-05T08:45:09.000Z</time>
      </trkpt>
      <trkpt lat="40.897678" lon="0.784856">
        <ele>57.633969</ele>
        <time>2022-06-05T08:45:11.000Z</time>
      </trkpt>
      <trkpt lat="40.897626" lon="0.785001">
        <ele>57.417721</ele>
        <time>2022-06-05T08:45:12.000Z</time>
      </trkpt>
      <trkpt lat="40.896609" lon="0.786987">
        <ele>54.321892</ele>
        <time>2022-06-05T08:45:32.000Z</time>
      </trkpt>
      <trkpt lat="40.8962" lon="0.7881">
        <ele>53.805828</ele>
        <time>2022-06-05T08:45:42.000Z</time>
      </trkpt>
      <trkpt lat="40.896112" lon="0.788341">
        <ele>53.695559</ele>
        <time>2022-06-05T08:45:44.000Z</time>
      </trkpt>
      <trkpt lat="40.896199" lon="0.788099">
        <ele>53.58526</ele>
        <time>2022-06-05T08:45:46.000Z</time>
      </trkpt>
      <trkpt lat="40.896612" lon="0.786977">
        <ele>54.451278</ele>
        <time>2022-06-05T08:45:56.000Z</time>
      </trkpt>
      <trkpt lat="40.897631" lon="0.784988">
        <ele>57.494498</ele>
        <time>2022-06-05T08:46:16.000Z</time>
      </trkpt>
      <trkpt lat="40.897674" lon="0.784872">
        <ele>57.74688</ele>
        <time>2022-06-05T08:46:17.000Z</time>
      </trkpt>
      <trkpt lat="40.897763" lon="0.784648">
        <ele>58.154327</ele>
        <time>2022-06-05T08:46:19.000Z</time>
      </trkpt>
      <trkpt lat="40.898059" lon="0.784056">
        <ele>59.378028</ele>
        <time>2022-06-05T08:46:25.000Z</time>
      </trkpt>
      <trkpt lat="40.898269" lon="0.783706">
        <ele>60.22367</ele>
        <time>2022-06-05T08:46:29.000Z</time>
      </trkpt>
      <trkpt lat="40.898954" lon="0.782876">
        <ele>62.760426</ele>
        <time>2022-06-05T08:46:39.000Z</time>
      </trkpt>
      <trkpt lat="40.899521" lon="0.782351">
        <ele>64.685412</ele>
        <time>2022-06-05T08:46:47.000Z</time>
      </trkpt>
      <trkpt lat="40.899676" lon="0.78221">
        <ele>65.129594</ele>
        <time>2022-06-05T08:46:49.000Z</time>
      </trkpt>
      <trkpt lat="40.899754" lon="0.78214">
        <ele>65.357825</ele>
        <time>2022-06-05T08:46:50.000Z</time>
      </trkpt>
      <trkpt lat="40.900369" lon="0.781435">
        <ele>67.325544</ele>
        <time>2022-06-05T08:46:59.000Z</time>
      </trkpt>
      <trkpt lat="40.901242" lon="0.780083">
        <ele>70.446117</ele>
        <time>2022-06-05T08:47:14.000Z</time>
      </trkpt>
      <trkpt lat="40.901978" lon="0.779263">
        <ele>72.604677</ele>
        <time>2022-06-05T08:47:25.000Z</time>
      </trkpt>
      <trkpt lat="40.902258" lon="0.778907">
        <ele>73.51193</ele>
        <time>2022-06-05T08:47:29.000Z</time>
      </trkpt>
      <trkpt lat="40.902464" lon="0.77866">
        <ele>74.147656</ele>
        <time>2022-06-05T08:47:32.000Z</time>
      </trkpt>
      <trkpt lat="40.902608" lon="0.778491">
        <ele>74.577736</ele>
        <time>2022-06-05T08:47:34.000Z</time>
      </trkpt>
      <trkpt lat="40.903266" lon="0.777674">
        <ele>76.638276</ele>
        <time>2022-06-05T08:47:44.000Z</time>
      </trkpt>
      <trkpt lat="40.903897" lon="0.776855">
        <ele>78.578533</ele>
        <time>2022-06-05T08:47:54.000Z</time>
      </trkpt>
      <trkpt lat="40.904306" lon="0.776344">
        <ele>79.795127</ele>
        <time>2022-06-05T08:48:00.000Z</time>
      </trkpt>
      <trkpt lat="40.904727" lon="0.775837">
        <ele>81.000546</ele>
        <time>2022-06-05T08:48:06.000Z</time>
      </trkpt>
      <trkpt lat="40.905656" lon="0.774953">
        <ele>83.404635</ele>
        <time>2022-06-05T08:48:19.000Z</time>
      </trkpt>
      <trkpt lat="40.905847" lon="0.774758">
        <ele>83.906547</ele>
        <time>2022-06-05T08:48:22.000Z</time>
      </trkpt>
      <trkpt lat="40.906582" lon="0.774073">
        <ele>85.723709</ele>
        <time>2022-06-05T08:48:32.000Z</time>
      </trkpt>
      <trkpt lat="40.906822" lon="0.773846">
        <ele>86.289527</ele>
        <time>2022-06-05T08:48:35.000Z</time>
      </trkpt>
      <trkpt lat="40.907265" lon="0.773461">
        <ele>87.342186</ele>
        <time>2022-06-05T08:48:41.000Z</time>
      </trkpt>
      <trkpt lat="40.907882" lon="0.773065">
        <ele>88.679773</ele>
        <time>2022-06-05T08:48:49.000Z</time>
      </trkpt>
      <trkpt lat="40.907938" lon="0.77304">
        <ele>88.799743</ele>
        <time>2022-06-05T08:48:50.000Z</time>
      </trkpt>
      <trkpt lat="40.90805" lon="0.772933">
        <ele>89.083565</ele>
        <time>2022-06-05T08:48:52.000Z</time>
      </trkpt>
      <trkpt lat="40.908213" lon="0.772809">
        <ele>89.489611</ele>
        <time>2022-06-05T08:48:54.000Z</time>
      </trkpt>
      <trkpt lat="40.908351" lon="0.772668">
        <ele>89.871018</ele>
        <time>2022-06-05T08:48:56.000Z</time>
      </trkpt>
      <trkpt lat="40.90881" lon="0.772248">
        <ele>91.03805</ele>
        <time>2022-06-05T08:49:02.000Z</time>
      </trkpt>
      <trkpt lat="40.910066" lon="0.77112">
        <ele>94.181373</ele>
        <time>2022-06-05T08:49:19.000Z</time>
      </trkpt>
      <trkpt lat="40.910307" lon="0.77086">
        <ele>94.835093</ele>
        <time>2022-06-05T08:49:22.000Z</time>
      </trkpt>
      <trkpt lat="40.913153" lon="0.766868">
        <ele>102.84541</ele>
        <time>2022-06-05T08:50:08.000Z</time>
      </trkpt>
      <trkpt lat="40.913248" lon="0.766731">
        <ele>103.122923</ele>
        <time>2022-06-05T08:50:10.000Z</time>
      </trkpt>
      <trkpt lat="40.913337" lon="0.766562">
        <ele>103.419753</ele>
        <time>2022-06-05T08:50:12.000Z</time>
      </trkpt>
      <trkpt lat="40.913447" lon="0.766317">
        <ele>103.836025</ele>
        <time>2022-06-05T08:50:14.000Z</time>
      </trkpt>
      <trkpt lat="40.913473" lon="0.766267">
        <ele>103.904381</ele>
        <time>2022-06-05T08:50:15.000Z</time>
      </trkpt>
      <trkpt lat="40.913488" lon="0.766253">
        <ele>103.958865</ele>
        <time>2022-06-05T08:50:15.000Z</time>
      </trkpt>
      <trkpt lat="40.913906" lon="0.765377">
        <ele>105.439843</ele>
        <time>2022-06-05T08:50:24.000Z</time>
      </trkpt>
      <trkpt lat="40.914156" lon="0.765026">
        <ele>106.13878</ele>
        <time>2022-06-05T08:50:28.000Z</time>
      </trkpt>
      <trkpt lat="40.91496" lon="0.764159">
        <ele>107.664608</ele>
        <time>2022-06-05T08:50:40.000Z</time>
      </trkpt>
      <trkpt lat="40.915963" lon="0.763315">
        <ele>109.492007</ele>
        <time>2022-06-05T08:50:53.000Z</time>
      </trkpt>
      <trkpt lat="40.916207" lon="0.763075">
        <ele>110.001655</ele>
        <time>2022-06-05T08:50:56.000Z</time>
      </trkpt>
      <trkpt lat="40.91629" lon="0.762984">
        <ele>110.191246</ele>
        <time>2022-06-05T08:50:57.000Z</time>
      </trkpt>
      <trkpt lat="40.916611" lon="0.76267">
        <ele>110.849153</ele>
        <time>2022-06-05T08:51:01.000Z</time>
      </trkpt>
      <trkpt lat="40.916732" lon="0.762554">
        <ele>111.097291</ele>
        <time>2022-06-05T08:51:03.000Z</time>
      </trkpt>
      <trkpt lat="40.916948" lon="0.762371">
        <ele>111.530319</ele>
        <time>2022-06-05T08:51:06.000Z</time>
      </trkpt>
      <trkpt lat="40.917718" lon="0.761651">
        <ele>112.403062</ele>
        <time>2022-06-05T08:51:16.000Z</time>
      </trkpt>
      <trkpt lat="40.917732" lon="0.76164">
        <ele>112.420348</ele>
        <time>2022-06-05T08:51:16.000Z</time>
      </trkpt>
      <trkpt lat="40.917802" lon="0.761552">
        <ele>112.482047</ele>
        <time>2022-06-05T08:51:17.000Z</time>
      </trkpt>
      <trkpt lat="40.918002" lon="0.76105">
        <ele>112.809139</ele>
        <time>2022-06-05T08:51:22.000Z</time>
      </trkpt>
      <trkpt lat="40.918223" lon="0.7601">
        <ele>113.267723</ele>
        <time>2022-06-05T08:51:30.000Z</time>
      </trkpt>
      <trkpt lat="40.918445" lon="0.759344">
        <ele>113.479699</ele>
        <time>2022-06-05T08:51:37.000Z</time>
      </trkpt>
      <trkpt lat="40.918521" lon="0.759065">
        <ele>113.557708</ele>
        <time>2022-06-05T08:51:39.000Z</time>
      </trkpt>
      <trkpt lat="40.918611" lon="0.758782">
        <ele>113.636065</ele>
        <time>2022-06-05T08:51:42.000Z</time>
      </trkpt>
      <trkpt lat="40.918654" lon="0.758715">
        <ele>113.657522</ele>
        <time>2022-06-05T08:51:43.000Z</time>
      </trkpt>
      <trkpt lat="40.918801" lon="0.75863">
        <ele>113.715913</ele>
        <time>2022-06-05T08:51:45.000Z</time>
      </trkpt>
      <trkpt lat="40.918835" lon="0.758638">
        <ele>113.726912</ele>
        <time>2022-06-05T08:51:45.000Z</time>
      </trkpt>
      <trkpt lat="40.919783" lon="0.759486">
        <ele>115.259488</ele>
        <time>2022-06-05T08:51:58.000Z</time>
      </trkpt>
      <trkpt lat="40.920856" lon="0.760423">
        <ele>117.18929</ele>
        <time>2022-06-05T08:52:12.000Z</time>
      </trkpt>
      <trkpt lat="40.923062" lon="0.762322">
        <ele>118.72448</ele>
        <time>2022-06-05T08:52:41.000Z</time>
      </trkpt>
      <trkpt lat="40.923117" lon="0.762369">
        <ele>118.707922</ele>
        <time>2022-06-05T08:52:42.000Z</time>
      </trkpt>
      <trkpt lat="40.923173" lon="0.762412">
        <ele>118.690904</ele>
        <time>2022-06-05T08:52:43.000Z</time>
      </trkpt>
      <trkpt lat="40.923494" lon="0.762572">
        <ele>118.599754</ele>
        <time>2022-06-05T08:52:47.000Z</time>
      </trkpt>
      <trkpt lat="40.923587" lon="0.762615">
        <ele>118.417282</ele>
        <time>2022-06-05T08:52:48.000Z</time>
      </trkpt>
      <trkpt lat="40.923849" lon="0.762658">
        <ele>117.371736</ele>
        <time>2022-06-05T08:52:51.000Z</time>
      </trkpt>
      <trkpt lat="40.924558" lon="0.762754">
        <ele>114.445881</ele>
        <time>2022-06-05T08:52:59.000Z</time>
      </trkpt>
      <trkpt lat="40.924698" lon="0.762831">
        <ele>113.801802</ele>
        <time>2022-06-05T08:53:01.000Z</time>
      </trkpt>
      <trkpt lat="40.924859" lon="0.763027">
        <ele>112.899804</ele>
        <time>2022-06-05T08:53:03.000Z</time>
      </trkpt>
      <trkpt lat="40.924862" lon="0.763376">
        <ele>111.819976</ele>
        <time>2022-06-05T08:53:06.000Z</time>
      </trkpt>
      <trkpt lat="40.924774" lon="0.763559">
        <ele>111.132357</ele>
        <time>2022-06-05T08:53:08.000Z</time>
      </trkpt>
      <trkpt lat="40.924644" lon="0.76366">
        <ele>110.684009</ele>
        <time>2022-06-05T08:53:10.000Z</time>
      </trkpt>
      <trkpt lat="40.923932" lon="0.763731">
        <ele>108.567723</ele>
        <time>2022-06-05T08:53:18.000Z</time>
      </trkpt>
      <trkpt lat="40.923696" lon="0.763865">
        <ele>107.771604</ele>
        <time>2022-06-05T08:53:21.000Z</time>
      </trkpt>
      <trkpt lat="40.923535" lon="0.764088">
        <ele>107.108363</ele>
        <time>2022-06-05T08:53:24.000Z</time>
      </trkpt>
      <trkpt lat="40.923198" lon="0.764801">
        <ele>105.967649</ele>
        <time>2022-06-05T08:53:31.000Z</time>
      </trkpt>
      <trkpt lat="40.923151" lon="0.764882">
        <ele>106.04175</ele>
        <time>2022-06-05T08:53:32.000Z</time>
      </trkpt>
      <trkpt lat="40.922887" lon="0.765472">
        <ele>106.540795</ele>
        <time>2022-06-05T08:53:38.000Z</time>
      </trkpt>
      <trkpt lat="40.92276" lon="0.765822">
        <ele>106.820025</ele>
        <time>2022-06-05T08:53:41.000Z</time>
      </trkpt>
      <trkpt lat="40.922777" lon="0.766248">
        <ele>107.128946</ele>
        <time>2022-06-05T08:53:45.000Z</time>
      </trkpt>
      <trkpt lat="40.922946" lon="0.767107">
        <ele>108.854566</ele>
        <time>2022-06-05T08:53:52.000Z</time>
      </trkpt>
      <trkpt lat="40.923189" lon="0.767711">
        <ele>111.337391</ele>
        <time>2022-06-05T08:53:58.000Z</time>
      </trkpt>
      <trkpt lat="40.923285" lon="0.767764">
        <ele>111.836973</ele>
        <time>2022-06-05T08:53:59.000Z</time>
      </trkpt>
      <trkpt lat="40.923407" lon="0.767763">
        <ele>112.414766</ele>
        <time>2022-06-05T08:54:00.000Z</time>
      </trkpt>
      <trkpt lat="40.9244" lon="0.767594">
        <ele>117.205835</ele>
        <time>2022-06-05T08:54:11.000Z</time>
      </trkpt>
      <trkpt lat="40.924667" lon="0.767696">
        <ele>118.54356</ele>
        <time>2022-06-05T08:54:14.000Z</time>
      </trkpt>
      <trkpt lat="40.924749" lon="0.767778">
        <ele>118.961867</ele>
        <time>2022-06-05T08:54:15.000Z</time>
      </trkpt>
      <trkpt lat="40.925685" lon="0.768951">
        <ele>124.477695</ele>
        <time>2022-06-05T08:54:29.000Z</time>
      </trkpt>
      <trkpt lat="40.926081" lon="0.769437">
        <ele>125.086861</ele>
        <time>2022-06-05T08:54:35.000Z</time>
      </trkpt>
      <trkpt lat="40.926442" lon="0.769878">
        <ele>125.662089</ele>
        <time>2022-06-05T08:54:40.000Z</time>
      </trkpt>
      <trkpt lat="40.926945" lon="0.770505">
        <ele>126.430452</ele>
        <time>2022-06-05T08:54:48.000Z</time>
      </trkpt>
      <trkpt lat="40.927147" lon="0.770853">
        <ele>126.391505</ele>
        <time>2022-06-05T08:54:52.000Z</time>
      </trkpt>
      <trkpt lat="40.927156" lon="0.77087">
        <ele>126.388128</ele>
        <time>2022-06-05T08:54:52.000Z</time>
      </trkpt>
      <trkpt lat="40.927188" lon="0.770943">
        <ele>126.381469</ele>
        <time>2022-06-05T08:54:53.000Z</time>
      </trkpt>
      <trkpt lat="40.927215" lon="0.771052">
        <ele>126.371425</ele>
        <time>2022-06-05T08:54:54.000Z</time>
      </trkpt>
      <trkpt lat="40.927253" lon="0.771194">
        <ele>126.357375</ele>
        <time>2022-06-05T08:54:55.000Z</time>
      </trkpt>
      <trkpt lat="40.927729" lon="0.773567">
        <ele>127.057093</ele>
        <time>2022-06-05T08:55:16.000Z</time>
      </trkpt>
      <trkpt lat="40.927945" lon="0.774647">
        <ele>128.074779</ele>
        <time>2022-06-05T08:55:25.000Z</time>
      </trkpt>
      <trkpt lat="40.927984" lon="0.774828">
        <ele>128.254127</ele>
        <time>2022-06-05T08:55:27.000Z</time>
      </trkpt>
      <trkpt lat="40.928146" lon="0.775734">
        <ele>130.041642</ele>
        <time>2022-06-05T08:55:35.000Z</time>
      </trkpt>
      <trkpt lat="40.928213" lon="0.776042">
        <ele>130.739216</ele>
        <time>2022-06-05T08:55:38.000Z</time>
      </trkpt>
      <trkpt lat="40.928276" lon="0.776328">
        <ele>131.342562</ele>
        <time>2022-06-05T08:55:41.000Z</time>
      </trkpt>
      <trkpt lat="40.928392" lon="0.776945">
        <ele>132.701661</ele>
        <time>2022-06-05T08:55:46.000Z</time>
      </trkpt>
      <trkpt lat="40.92848" lon="0.777263">
        <ele>133.445489</ele>
        <time>2022-06-05T08:55:49.000Z</time>
      </trkpt>
      <trkpt lat="40.928634" lon="0.777518">
        <ele>133.876038</ele>
        <time>2022-06-05T08:55:52.000Z</time>
      </trkpt>
      <trkpt lat="40.928995" lon="0.77777">
        <ele>134.592596</ele>
        <time>2022-06-05T08:55:57.000Z</time>
      </trkpt>
      <trkpt lat="40.929645" lon="0.778021">
        <ele>135.728388</ele>
        <time>2022-06-05T08:56:05.000Z</time>
      </trkpt>
      <trkpt lat="40.929834" lon="0.778011">
        <ele>136.057397</ele>
        <time>2022-06-05T08:56:07.000Z</time>
      </trkpt>
      <trkpt lat="40.930043" lon="0.777913">
        <ele>136.437786</ele>
        <time>2022-06-05T08:56:09.000Z</time>
      </trkpt>
      <trkpt lat="40.930182" lon="0.777935">
        <ele>136.439028</ele>
        <time>2022-06-05T08:56:11.000Z</time>
      </trkpt>
      <trkpt lat="40.930257" lon="0.778087">
        <ele>136.176824</ele>
        <time>2022-06-05T08:56:13.000Z</time>
      </trkpt>
      <trkpt lat="40.930258" lon="0.778248">
        <ele>135.970022</ele>
        <time>2022-06-05T08:56:14.000Z</time>
      </trkpt>
      <trkpt lat="40.93012" lon="0.778635">
        <ele>135.354963</ele>
        <time>2022-06-05T08:56:18.000Z</time>
      </trkpt>
      <trkpt lat="40.929874" lon="0.779041">
        <ele>134.657199</ele>
        <time>2022-06-05T08:56:22.000Z</time>
      </trkpt>
      <trkpt lat="40.929821" lon="0.779114">
        <ele>134.500052</ele>
        <time>2022-06-05T08:56:23.000Z</time>
      </trkpt>
      <trkpt lat="40.929466" lon="0.779856">
        <ele>133.287886</ele>
        <time>2022-06-05T08:56:30.000Z</time>
      </trkpt>
      <trkpt lat="40.929625" lon="0.780422">
        <ele>132.424466</ele>
        <time>2022-06-05T08:56:35.000Z</time>
      </trkpt>
      <trkpt lat="40.92951" lon="0.781037">
        <ele>131.548677</ele>
        <time>2022-06-05T08:56:40.000Z</time>
      </trkpt>
      <trkpt lat="40.92953" lon="0.781208">
        <ele>131.303381</ele>
        <time>2022-06-05T08:56:41.000Z</time>
      </trkpt>
      <trkpt lat="40.929647" lon="0.781359">
        <ele>130.994824</ele>
        <time>2022-06-05T08:56:43.000Z</time>
      </trkpt>
      <trkpt lat="40.930314" lon="0.781738">
        <ele>130.022129</ele>
        <time>2022-06-05T08:56:51.000Z</time>
      </trkpt>
      <trkpt lat="40.930481" lon="0.781895">
        <ele>130.259146</ele>
        <time>2022-06-05T08:56:53.000Z</time>
      </trkpt>
      <trkpt lat="40.93103" lon="0.783007">
        <ele>131.322611</ele>
        <time>2022-06-05T08:57:04.000Z</time>
      </trkpt>
      <trkpt lat="40.931049" lon="0.783039">
        <ele>131.353698</ele>
        <time>2022-06-05T08:57:04.000Z</time>
      </trkpt>
      <trkpt lat="40.931147" lon="0.783238">
        <ele>131.544788</ele>
        <time>2022-06-05T08:57:06.000Z</time>
      </trkpt>
      <trkpt lat="40.931272" lon="0.783702">
        <ele>131.894644</ele>
        <time>2022-06-05T08:57:10.000Z</time>
      </trkpt>
      <trkpt lat="40.931305" lon="0.783839">
        <ele>131.968425</ele>
        <time>2022-06-05T08:57:11.000Z</time>
      </trkpt>
      <trkpt lat="40.931312" lon="0.783968">
        <ele>132.040069</ele>
        <time>2022-06-05T08:57:12.000Z</time>
      </trkpt>
      <trkpt lat="40.931594" lon="0.785591">
        <ele>132.872206</ele>
        <time>2022-06-05T08:57:26.000Z</time>
      </trkpt>
      <trkpt lat="40.931734" lon="0.787291">
        <ele>131.081726</ele>
        <time>2022-06-05T08:57:40.000Z</time>
      </trkpt>
      <trkpt lat="40.93181" lon="0.78771">
        <ele>130.513475</ele>
        <time>2022-06-05T08:57:44.000Z</time>
      </trkpt>
      <trkpt lat="40.931822" lon="0.787808">
        <ele>130.36499</ele>
        <time>2022-06-05T08:57:45.000Z</time>
      </trkpt>
      <trkpt lat="40.932684" lon="0.79243">
        <ele>121.43669</ele>
        <time>2022-06-05T08:58:25.000Z</time>
      </trkpt>
      <trkpt lat="40.933148" lon="0.793667">
        <ele>118.546822</ele>
        <time>2022-06-05T08:58:37.000Z</time>
      </trkpt>
      <trkpt lat="40.933397" lon="0.794734">
        <ele>116.094127</ele>
        <time>2022-06-05T08:58:46.000Z</time>
      </trkpt>
      <trkpt lat="40.933584" lon="0.795425">
        <ele>114.878902</ele>
        <time>2022-06-05T08:58:52.000Z</time>
      </trkpt>
      <trkpt lat="40.933628" lon="0.79562">
        <ele>114.643962</ele>
        <time>2022-06-05T08:58:54.000Z</time>
      </trkpt>
      <trkpt lat="40.933777" lon="0.795794">
        <ele>114.305257</ele>
        <time>2022-06-05T08:58:56.000Z</time>
      </trkpt>
      <trkpt lat="40.934339" lon="0.795668">
        <ele>113.34599</ele>
        <time>2022-06-05T08:59:02.000Z</time>
      </trkpt>
      <trkpt lat="40.934523" lon="0.79577">
        <ele>113.004898</ele>
        <time>2022-06-05T08:59:04.000Z</time>
      </trkpt>
      <trkpt lat="40.934611" lon="0.795999">
        <ele>112.703512</ele>
        <time>2022-06-05T08:59:06.000Z</time>
      </trkpt>
      <trkpt lat="40.934679" lon="0.796509">
        <ele>112.967861</ele>
        <time>2022-06-05T08:59:10.000Z</time>
      </trkpt>
      <trkpt lat="40.93479" lon="0.796738">
        <ele>113.409559</ele>
        <time>2022-06-05T08:59:12.000Z</time>
      </trkpt>
      <trkpt lat="40.934876" lon="0.796836">
        <ele>113.646928</ele>
        <time>2022-06-05T08:59:13.000Z</time>
      </trkpt>
      <trkpt lat="40.934955" lon="0.796914">
        <ele>113.879173</ele>
        <time>2022-06-05T08:59:14.000Z</time>
      </trkpt>
      <trkpt lat="40.935172" lon="0.797113">
        <ele>114.477329</ele>
        <time>2022-06-05T08:59:17.000Z</time>
      </trkpt>
      <trkpt lat="40.936288" lon="0.797715">
        <ele>117.862402</ele>
        <time>2022-06-05T08:59:30.000Z</time>
      </trkpt>
      <trkpt lat="40.937655" lon="0.79858">
        <ele>124.644141</ele>
        <time>2022-06-05T08:59:47.000Z</time>
      </trkpt>
      <trkpt lat="40.9379" lon="0.798822">
        <ele>125.806951</ele>
        <time>2022-06-05T08:59:50.000Z</time>
      </trkpt>
      <trkpt lat="40.938538" lon="0.799622">
        <ele>129.069272</ele>
        <time>2022-06-05T09:00:00.000Z</time>
      </trkpt>
      <trkpt lat="40.938864" lon="0.800257">
        <ele>131.206923</ele>
        <time>2022-06-05T09:00:06.000Z</time>
      </trkpt>
      <trkpt lat="40.938957" lon="0.800463">
        <ele>131.176504</ele>
        <time>2022-06-05T09:00:08.000Z</time>
      </trkpt>
      <trkpt lat="40.939145" lon="0.800831">
        <ele>131.118593</ele>
        <time>2022-06-05T09:00:12.000Z</time>
      </trkpt>
      <trkpt lat="40.939277" lon="0.8011">
        <ele>131.078605</ele>
        <time>2022-06-05T09:00:15.000Z</time>
      </trkpt>
      <trkpt lat="40.939789" lon="0.802243">
        <ele>130.908176</ele>
        <time>2022-06-05T09:00:26.000Z</time>
      </trkpt>
      <trkpt lat="40.939902" lon="0.802832">
        <ele>129.514493</ele>
        <time>2022-06-05T09:00:31.000Z</time>
      </trkpt>
      <trkpt lat="40.940012" lon="0.803902">
        <ele>126.866757</ele>
        <time>2022-06-05T09:00:40.000Z</time>
      </trkpt>
      <trkpt lat="40.940054" lon="0.804552">
        <ele>125.276741</ele>
        <time>2022-06-05T09:00:45.000Z</time>
      </trkpt>
      <trkpt lat="40.940096" lon="0.80535">
        <ele>123.804818</ele>
        <time>2022-06-05T09:00:52.000Z</time>
      </trkpt>
      <trkpt lat="40.940104" lon="0.805614">
        <ele>123.344126</ele>
        <time>2022-06-05T09:00:54.000Z</time>
      </trkpt>
      <trkpt lat="40.940178" lon="0.805793">
        <ele>122.995517</ele>
        <time>2022-06-05T09:00:56.000Z</time>
      </trkpt>
      <trkpt lat="40.940312" lon="0.805745">
        <ele>122.68457</ele>
        <time>2022-06-05T09:00:58.000Z</time>
      </trkpt>
      <trkpt lat="40.940577" lon="0.805541">
        <ele>121.917043</ele>
        <time>2022-06-05T09:01:01.000Z</time>
      </trkpt>
      <trkpt lat="40.94071" lon="0.805551">
        <ele>121.624294</ele>
        <time>2022-06-05T09:01:02.000Z</time>
      </trkpt>
      <trkpt lat="40.940865" lon="0.805813">
        <ele>121.038435</ele>
        <time>2022-06-05T09:01:05.000Z</time>
      </trkpt>
      <trkpt lat="40.940904" lon="0.806177">
        <ele>120.827623</ele>
        <time>2022-06-05T09:01:08.000Z</time>
      </trkpt>
      <trkpt lat="40.940999" lon="0.806432">
        <ele>120.816996</ele>
        <time>2022-06-05T09:01:10.000Z</time>
      </trkpt>
      <trkpt lat="40.942458" lon="0.808144">
        <ele>120.667294</ele>
        <time>2022-06-05T09:01:32.000Z</time>
      </trkpt>
      <trkpt lat="40.942598" lon="0.80864">
        <ele>120.606684</ele>
        <time>2022-06-05T09:01:36.000Z</time>
      </trkpt>
      <trkpt lat="40.942736" lon="0.810207">
        <ele>120.124911</ele>
        <time>2022-06-05T09:01:49.000Z</time>
      </trkpt>
      <trkpt lat="40.942683" lon="0.814714">
        <ele>116.630868</ele>
        <time>2022-06-05T09:02:27.000Z</time>
      </trkpt>
      <trkpt lat="40.942705" lon="0.815418">
        <ele>116.74469</ele>
        <time>2022-06-05T09:02:33.000Z</time>
      </trkpt>
      <trkpt lat="40.942706" lon="0.815447">
        <ele>116.74809</ele>
        <time>2022-06-05T09:02:33.000Z</time>
      </trkpt>
      <trkpt lat="40.942705" lon="0.815418">
        <ele>116.751473</ele>
        <time>2022-06-05T09:02:33.000Z</time>
      </trkpt>
      <trkpt lat="40.9427" lon="0.814721">
        <ele>116.865304</ele>
        <time>2022-06-05T09:02:39.000Z</time>
      </trkpt>
      <trkpt lat="40.942746" lon="0.810208">
        <ele>120.040108</ele>
        <time>2022-06-05T09:03:17.000Z</time>
      </trkpt>
      <trkpt lat="40.942602" lon="0.808637">
        <ele>120.675834</ele>
        <time>2022-06-05T09:03:30.000Z</time>
      </trkpt>
      <trkpt lat="40.942447" lon="0.808143">
        <ele>120.670178</ele>
        <time>2022-06-05T09:03:34.000Z</time>
      </trkpt>
      <trkpt lat="40.941" lon="0.806444">
        <ele>121.027783</ele>
        <time>2022-06-05T09:03:56.000Z</time>
      </trkpt>
      <trkpt lat="40.940904" lon="0.806168">
        <ele>121.109297</ele>
        <time>2022-06-05T09:03:59.000Z</time>
      </trkpt>
      <trkpt lat="40.940855" lon="0.80582">
        <ele>121.211704</ele>
        <time>2022-06-05T09:04:02.000Z</time>
      </trkpt>
      <trkpt lat="40.940707" lon="0.805556">
        <ele>121.304116</ele>
        <time>2022-06-05T09:04:05.000Z</time>
      </trkpt>
      <trkpt lat="40.940585" lon="0.80554">
        <ele>121.51118</ele>
        <time>2022-06-05T09:04:06.000Z</time>
      </trkpt>
      <trkpt lat="40.940304" lon="0.805752">
        <ele>122.441247</ele>
        <time>2022-06-05T09:04:10.000Z</time>
      </trkpt>
      <trkpt lat="40.940178" lon="0.805782">
        <ele>122.818032</ele>
        <time>2022-06-05T09:04:11.000Z</time>
      </trkpt>
      <trkpt lat="40.940119" lon="0.805612">
        <ele>123.240451</ele>
        <time>2022-06-05T09:04:13.000Z</time>
      </trkpt>
      <trkpt lat="40.940107" lon="0.805354">
        <ele>123.798682</ele>
        <time>2022-06-05T09:04:15.000Z</time>
      </trkpt>
      <trkpt lat="40.940058" lon="0.804562">
        <ele>125.517272</ele>
        <time>2022-06-05T09:04:22.000Z</time>
      </trkpt>
      <trkpt lat="40.940007" lon="0.803918">
        <ele>126.922169</ele>
        <time>2022-06-05T09:04:27.000Z</time>
      </trkpt>
      <trkpt lat="40.939898" lon="0.802833">
        <ele>129.265202</ele>
        <time>2022-06-05T09:04:36.000Z</time>
      </trkpt>
      <trkpt lat="40.939782" lon="0.802231">
        <ele>130.609549</ele>
        <time>2022-06-05T09:04:41.000Z</time>
      </trkpt>
      <trkpt lat="40.939265" lon="0.801089">
        <ele>131.112072</ele>
        <time>2022-06-05T09:04:52.000Z</time>
      </trkpt>
      <trkpt lat="40.93914" lon="0.800844">
        <ele>130.928744</ele>
        <time>2022-06-05T09:04:54.000Z</time>
      </trkpt>
      <trkpt lat="40.938952" lon="0.800463">
        <ele>130.663108</ele>
        <time>2022-06-05T09:04:58.000Z</time>
      </trkpt>
      <trkpt lat="40.938863" lon="0.800248">
        <ele>130.523521</ele>
        <time>2022-06-05T09:05:00.000Z</time>
      </trkpt>
      <trkpt lat="40.938536" lon="0.799629">
        <ele>129.445727</ele>
        <time>2022-06-05T09:05:06.000Z</time>
      </trkpt>
      <trkpt lat="40.937897" lon="0.798817">
        <ele>125.764275</ele>
        <time>2022-06-05T09:05:16.000Z</time>
      </trkpt>
      <trkpt lat="40.937639" lon="0.798571">
        <ele>124.452083</ele>
        <time>2022-06-05T09:05:20.000Z</time>
      </trkpt>
      <trkpt lat="40.936276" lon="0.797701">
        <ele>118.030428</ele>
        <time>2022-06-05T09:05:37.000Z</time>
      </trkpt>
      <trkpt lat="40.935186" lon="0.797108">
        <ele>114.346902</ele>
        <time>2022-06-05T09:05:50.000Z</time>
      </trkpt>
      <trkpt lat="40.934954" lon="0.796917">
        <ele>113.98652</ele>
        <time>2022-06-05T09:05:53.000Z</time>
      </trkpt>
      <trkpt lat="40.934877" lon="0.796839">
        <ele>113.84659</ele>
        <time>2022-06-05T09:05:54.000Z</time>
      </trkpt>
      <trkpt lat="40.934794" lon="0.79674">
        <ele>113.703577</ele>
        <time>2022-06-05T09:05:55.000Z</time>
      </trkpt>
      <trkpt lat="40.934678" lon="0.796513">
        <ele>113.437458</ele>
        <time>2022-06-05T09:05:57.000Z</time>
      </trkpt>
      <trkpt lat="40.934599" lon="0.795992">
        <ele>112.891992</ele>
        <time>2022-06-05T09:06:01.000Z</time>
      </trkpt>
      <trkpt lat="40.93453" lon="0.795768">
        <ele>112.648842</ele>
        <time>2022-06-05T09:06:03.000Z</time>
      </trkpt>
      <trkpt lat="40.934329" lon="0.795675">
        <ele>112.930454</ele>
        <time>2022-06-05T09:06:05.000Z</time>
      </trkpt>
      <trkpt lat="40.933771" lon="0.795799">
        <ele>114.209086</ele>
        <time>2022-06-05T09:06:11.000Z</time>
      </trkpt>
      <trkpt lat="40.933617" lon="0.795608">
        <ele>114.66058</ele>
        <time>2022-06-05T09:06:13.000Z</time>
      </trkpt>
      <trkpt lat="40.933572" lon="0.795442">
        <ele>114.973705</ele>
        <time>2022-06-05T09:06:14.000Z</time>
      </trkpt>
      <trkpt lat="40.933398" lon="0.794739">
        <ele>116.219867</ele>
        <time>2022-06-05T09:06:20.000Z</time>
      </trkpt>
      <trkpt lat="40.933143" lon="0.793653">
        <ele>118.519642</ele>
        <time>2022-06-05T09:06:30.000Z</time>
      </trkpt>
      <trkpt lat="40.932678" lon="0.792436">
        <ele>121.443082</ele>
        <time>2022-06-05T09:06:41.000Z</time>
      </trkpt>
      <trkpt lat="40.931832" lon="0.787816">
        <ele>130.521079</ele>
        <time>2022-06-05T09:07:21.000Z</time>
      </trkpt>
      <trkpt lat="40.931815" lon="0.787713">
        <ele>130.726398</ele>
        <time>2022-06-05T09:07:22.000Z</time>
      </trkpt>
      <trkpt lat="40.931731" lon="0.787294">
        <ele>131.157168</ele>
        <time>2022-06-05T09:07:26.000Z</time>
      </trkpt>
      <trkpt lat="40.931595" lon="0.785577">
        <ele>132.916456</ele>
        <time>2022-06-05T09:07:41.000Z</time>
      </trkpt>
      <trkpt lat="40.93132" lon="0.783981">
        <ele>132.002073</ele>
        <time>2022-06-05T09:07:55.000Z</time>
      </trkpt>
      <trkpt lat="40.9313" lon="0.783845">
        <ele>131.886301</ele>
        <time>2022-06-05T09:07:56.000Z</time>
      </trkpt>
      <trkpt lat="40.931276" lon="0.783696">
        <ele>131.767098</ele>
        <time>2022-06-05T09:07:57.000Z</time>
      </trkpt>
      <trkpt lat="40.931145" lon="0.783241">
        <ele>131.365985</ele>
        <time>2022-06-05T09:08:01.000Z</time>
      </trkpt>
      <trkpt lat="40.93104" lon="0.783038">
        <ele>131.19061</ele>
        <time>2022-06-05T09:08:03.000Z</time>
      </trkpt>
      <trkpt lat="40.93103" lon="0.783008">
        <ele>131.172787</ele>
        <time>2022-06-05T09:08:03.000Z</time>
      </trkpt>
      <trkpt lat="40.930486" lon="0.781905">
        <ele>130.563005</ele>
        <time>2022-06-05T09:08:14.000Z</time>
      </trkpt>
      <trkpt lat="40.930315" lon="0.781728">
        <ele>130.427109</ele>
        <time>2022-06-05T09:08:16.000Z</time>
      </trkpt>
      <trkpt lat="40.92964" lon="0.781357">
        <ele>130.581362</ele>
        <time>2022-06-05T09:08:24.000Z</time>
      </trkpt>
      <trkpt lat="40.929532" lon="0.781206">
        <ele>130.971777</ele>
        <time>2022-06-05T09:08:26.000Z</time>
      </trkpt>
      <trkpt lat="40.929499" lon="0.781029">
        <ele>131.282162</ele>
        <time>2022-06-05T09:08:28.000Z</time>
      </trkpt>
      <trkpt lat="40.929615" lon="0.780423">
        <ele>132.390319</ele>
        <time>2022-06-05T09:08:33.000Z</time>
      </trkpt>
      <trkpt lat="40.929478" lon="0.779849">
        <ele>133.483348</ele>
        <time>2022-06-05T09:08:38.000Z</time>
      </trkpt>
      <trkpt lat="40.929822" lon="0.77913">
        <ele>134.683595</ele>
        <time>2022-06-05T09:08:45.000Z</time>
      </trkpt>
      <trkpt lat="40.929882" lon="0.779031">
        <ele>134.781269</ele>
        <time>2022-06-05T09:08:46.000Z</time>
      </trkpt>
      <trkpt lat="40.930115" lon="0.778641">
        <ele>135.214935</ele>
        <time>2022-06-05T09:08:50.000Z</time>
      </trkpt>
      <trkpt lat="40.93026" lon="0.778243">
        <ele>135.597192</ele>
        <time>2022-06-05T09:08:54.000Z</time>
      </trkpt>
      <trkpt lat="40.930267" lon="0.778098">
        <ele>135.725736</ele>
        <time>2022-06-05T09:08:55.000Z</time>
      </trkpt>
      <trkpt lat="40.930182" lon="0.777933">
        <ele>135.888692</ele>
        <time>2022-06-05T09:08:57.000Z</time>
      </trkpt>
      <trkpt lat="40.930046" lon="0.777898">
        <ele>136.056924</ele>
        <time>2022-06-05T09:08:59.000Z</time>
      </trkpt>
      <trkpt lat="40.929824" lon="0.778009">
        <ele>136.313964</ele>
        <time>2022-06-05T09:09:02.000Z</time>
      </trkpt>
      <trkpt lat="40.929638" lon="0.778024">
        <ele>136.193236</ele>
        <time>2022-06-05T09:09:04.000Z</time>
      </trkpt>
      <trkpt lat="40.929004" lon="0.777765">
        <ele>134.681019</ele>
        <time>2022-06-05T09:09:11.000Z</time>
      </trkpt>
      <trkpt lat="40.92862" lon="0.777509">
        <ele>133.727002</ele>
        <time>2022-06-05T09:09:16.000Z</time>
      </trkpt>
      <trkpt lat="40.92849" lon="0.777268">
        <ele>133.187901</ele>
        <time>2022-06-05T09:09:18.000Z</time>
      </trkpt>
      <trkpt lat="40.928382" lon="0.776942">
        <ele>132.594182</ele>
        <time>2022-06-05T09:09:21.000Z</time>
      </trkpt>
      <trkpt lat="40.92827" lon="0.776327">
        <ele>131.359928</ele>
        <time>2022-06-05T09:09:26.000Z</time>
      </trkpt>
      <trkpt lat="40.928217" lon="0.77605">
        <ele>130.792582</ele>
        <time>2022-06-05T09:09:28.000Z</time>
      </trkpt>
      <trkpt lat="40.928159" lon="0.77573">
        <ele>130.136627</ele>
        <time>2022-06-05T09:09:31.000Z</time>
      </trkpt>
      <trkpt lat="40.927976" lon="0.77483">
        <ele>128.26322</ele>
        <time>2022-06-05T09:09:39.000Z</time>
      </trkpt>
      <trkpt lat="40.927935" lon="0.774646">
        <ele>127.869789</ele>
        <time>2022-06-05T09:09:41.000Z</time>
      </trkpt>
      <trkpt lat="40.927723" lon="0.773575">
        <ele>127.01223</ele>
        <time>2022-06-05T09:09:50.000Z</time>
      </trkpt>
      <trkpt lat="40.927266" lon="0.771192">
        <ele>126.317527</ele>
        <time>2022-06-05T09:10:11.000Z</time>
      </trkpt>
      <trkpt lat="40.927211" lon="0.771043">
        <ele>126.335779</ele>
        <time>2022-06-05T09:10:12.000Z</time>
      </trkpt>
      <trkpt lat="40.927186" lon="0.770938">
        <ele>126.348795</ele>
        <time>2022-06-05T09:10:13.000Z</time>
      </trkpt>
      <trkpt lat="40.927163" lon="0.770888">
        <ele>126.357471</ele>
        <time>2022-06-05T09:10:13.000Z</time>
      </trkpt>
      <trkpt lat="40.927145" lon="0.770853">
        <ele>126.361836</ele>
        <time>2022-06-05T09:10:13.000Z</time>
      </trkpt>
      <trkpt lat="40.926931" lon="0.770495">
        <ele>126.412425</ele>
        <time>2022-06-05T09:10:17.000Z</time>
      </trkpt>
      <trkpt lat="40.926453" lon="0.769876">
        <ele>125.938242</ele>
        <time>2022-06-05T09:10:24.000Z</time>
      </trkpt>
      <trkpt lat="40.926078" lon="0.769425">
        <ele>124.970874</ele>
        <time>2022-06-05T09:10:30.000Z</time>
      </trkpt>
      <trkpt lat="40.925679" lon="0.768951">
        <ele>123.946467</ele>
        <time>2022-06-05T09:10:36.000Z</time>
      </trkpt>
      <trkpt lat="40.924739" lon="0.767779">
        <ele>118.9895</ele>
        <time>2022-06-05T09:10:50.000Z</time>
      </trkpt>
      <trkpt lat="40.924679" lon="0.767705">
        <ele>118.526581</ele>
        <time>2022-06-05T09:10:51.000Z</time>
      </trkpt>
      <trkpt lat="40.924389" lon="0.767589">
        <ele>117.046174</ele>
        <time>2022-06-05T09:10:54.000Z</time>
      </trkpt>
      <trkpt lat="40.923398" lon="0.767773">
        <ele>112.353119</ele>
        <time>2022-06-05T09:11:05.000Z</time>
      </trkpt>
      <trkpt lat="40.923291" lon="0.767767">
        <ele>111.854245</ele>
        <time>2022-06-05T09:11:06.000Z</time>
      </trkpt>
      <trkpt lat="40.923188" lon="0.767693">
        <ele>111.422908</ele>
        <time>2022-06-05T09:11:07.000Z</time>
      </trkpt>
      <trkpt lat="40.922952" lon="0.767105">
        <ele>109.279236</ele>
        <time>2022-06-05T09:11:13.000Z</time>
      </trkpt>
      <trkpt lat="40.92277" lon="0.76626">
        <ele>106.47925</ele>
        <time>2022-06-05T09:11:20.000Z</time>
      </trkpt>
      <trkpt lat="40.922768" lon="0.765835">
        <ele>106.460581</ele>
        <time>2022-06-05T09:11:24.000Z</time>
      </trkpt>
      <trkpt lat="40.922886" lon="0.76548">
        <ele>106.45983</ele>
        <time>2022-06-05T09:11:27.000Z</time>
      </trkpt>
      <trkpt lat="40.923161" lon="0.764882">
        <ele>106.458478</ele>
        <time>2022-06-05T09:11:33.000Z</time>
      </trkpt>
      <trkpt lat="40.9232" lon="0.764799">
        <ele>106.458284</ele>
        <time>2022-06-05T09:11:34.000Z</time>
      </trkpt>
      <trkpt lat="40.923538" lon="0.764093">
        <ele>106.637715</ele>
        <time>2022-06-05T09:11:41.000Z</time>
      </trkpt>
      <trkpt lat="40.923687" lon="0.763863">
        <ele>107.431881</ele>
        <time>2022-06-05T09:11:44.000Z</time>
      </trkpt>
      <trkpt lat="40.923938" lon="0.763731">
        <ele>108.385124</ele>
        <time>2022-06-05T09:11:47.000Z</time>
      </trkpt>
      <trkpt lat="40.924638" lon="0.763675">
        <ele>110.919125</ele>
        <time>2022-06-05T09:11:55.000Z</time>
      </trkpt>
      <trkpt lat="40.924779" lon="0.763569">
        <ele>111.455974</ele>
        <time>2022-06-05T09:11:57.000Z</time>
      </trkpt>
      <trkpt lat="40.92486" lon="0.763377">
        <ele>112.058496</ele>
        <time>2022-06-05T09:11:59.000Z</time>
      </trkpt>
      <trkpt lat="40.924857" lon="0.763032">
        <ele>112.994299</ele>
        <time>2022-06-05T09:12:02.000Z</time>
      </trkpt>
      <trkpt lat="40.924687" lon="0.762823">
        <ele>113.781319</ele>
        <time>2022-06-05T09:12:05.000Z</time>
      </trkpt>
      <trkpt lat="40.924549" lon="0.762755">
        <ele>114.343288</ele>
        <time>2022-06-05T09:12:07.000Z</time>
      </trkpt>
      <trkpt lat="40.923836" lon="0.762648">
        <ele>116.89619</ele>
        <time>2022-06-05T09:12:15.000Z</time>
      </trkpt>
      <trkpt lat="40.923591" lon="0.762601">
        <ele>117.808462</ele>
        <time>2022-06-05T09:12:18.000Z</time>
      </trkpt>
      <trkpt lat="40.923485" lon="0.762572">
        <ele>118.203498</ele>
        <time>2022-06-05T09:12:19.000Z</time>
      </trkpt>
      <trkpt lat="40.923168" lon="0.762418">
        <ele>119.359862</ele>
        <time>2022-06-05T09:12:23.000Z</time>
      </trkpt>
      <trkpt lat="40.923101" lon="0.762369">
        <ele>119.333711</ele>
        <time>2022-06-05T09:12:24.000Z</time>
      </trkpt>
      <trkpt lat="40.92306" lon="0.762333">
        <ele>119.308233</ele>
        <time>2022-06-05T09:12:25.000Z</time>
      </trkpt>
      <trkpt lat="40.920865" lon="0.76043">
        <ele>117.138667</ele>
        <time>2022-06-05T09:12:54.000Z</time>
      </trkpt>
      <trkpt lat="40.919781" lon="0.759493">
        <ele>115.249858</ele>
        <time>2022-06-05T09:13:08.000Z</time>
      </trkpt>
      <trkpt lat="40.918835" lon="0.758637">
        <ele>113.741994</ele>
        <time>2022-06-05T09:13:21.000Z</time>
      </trkpt>
      <trkpt lat="40.9188" lon="0.758636">
        <ele>113.700599</ele>
        <time>2022-06-05T09:13:21.000Z</time>
      </trkpt>
      <trkpt lat="40.918643" lon="0.758721">
        <ele>113.49894</ele>
        <time>2022-06-05T09:13:23.000Z</time>
      </trkpt>
      <trkpt lat="40.91862" lon="0.758784">
        <ele>113.485037</ele>
        <time>2022-06-05T09:13:24.000Z</time>
      </trkpt>
      <trkpt lat="40.918524" lon="0.759071">
        <ele>113.434231</ele>
        <time>2022-06-05T09:13:27.000Z</time>
      </trkpt>
      <trkpt lat="40.91844" lon="0.759347">
        <ele>113.383691</ele>
        <time>2022-06-05T09:13:30.000Z</time>
      </trkpt>
      <trkpt lat="40.918226" lon="0.760093">
        <ele>113.246312</ele>
        <time>2022-06-05T09:13:37.000Z</time>
      </trkpt>
      <trkpt lat="40.918019" lon="0.761062">
        <ele>112.997565</ele>
        <time>2022-06-05T09:13:45.000Z</time>
      </trkpt>
      <trkpt lat="40.917789" lon="0.761557">
        <ele>112.535036</ele>
        <time>2022-06-05T09:13:50.000Z</time>
      </trkpt>
      <trkpt lat="40.917742" lon="0.761641">
        <ele>112.447804</ele>
        <time>2022-06-05T09:13:51.000Z</time>
      </trkpt>
      <trkpt lat="40.91773" lon="0.761659">
        <ele>112.423368</ele>
        <time>2022-06-05T09:13:51.000Z</time>
      </trkpt>
      <trkpt lat="40.916936" lon="0.762368">
        <ele>111.422305</ele>
        <time>2022-06-05T09:14:02.000Z</time>
      </trkpt>
      <trkpt lat="40.916738" lon="0.762563">
        <ele>111.126516</ele>
        <time>2022-06-05T09:14:05.000Z</time>
      </trkpt>
      <trkpt lat="40.916618" lon="0.762673">
        <ele>110.88181</ele>
        <time>2022-06-05T09:14:07.000Z</time>
      </trkpt>
      <trkpt lat="40.916294" lon="0.762973">
        <ele>110.233075</ele>
        <time>2022-06-05T09:14:11.000Z</time>
      </trkpt>
      <trkpt lat="40.916205" lon="0.763068">
        <ele>110.046106</ele>
        <time>2022-06-05T09:14:12.000Z</time>
      </trkpt>
      <trkpt lat="40.915966" lon="0.763324">
        <ele>109.543542</ele>
        <time>2022-06-05T09:14:15.000Z</time>
      </trkpt>
      <trkpt lat="40.914967" lon="0.764153">
        <ele>107.628924</ele>
        <time>2022-06-05T09:14:28.000Z</time>
      </trkpt>
      <trkpt lat="40.914144" lon="0.765026">
        <ele>106.078357</ele>
        <time>2022-06-05T09:14:40.000Z</time>
      </trkpt>
      <trkpt lat="40.913896" lon="0.765371">
        <ele>105.536267</ele>
        <time>2022-06-05T09:14:44.000Z</time>
      </trkpt>
      <trkpt lat="40.913493" lon="0.766251">
        <ele>103.999747</ele>
        <time>2022-06-05T09:14:53.000Z</time>
      </trkpt>
      <trkpt lat="40.913469" lon="0.766267">
        <ele>103.943154</ele>
        <time>2022-06-05T09:14:53.000Z</time>
      </trkpt>
      <trkpt lat="40.913459" lon="0.766316">
        <ele>103.872152</ele>
        <time>2022-06-05T09:14:53.000Z</time>
      </trkpt>
      <trkpt lat="40.913336" lon="0.766565">
        <ele>103.439813</ele>
        <time>2022-06-05T09:14:56.000Z</time>
      </trkpt>
      <trkpt lat="40.913244" lon="0.766725">
        <ele>103.131504</ele>
        <time>2022-06-05T09:14:58.000Z</time>
      </trkpt>
      <trkpt lat="40.913151" lon="0.766873">
        <ele>102.843288</ele>
        <time>2022-06-05T09:15:00.000Z</time>
      </trkpt>
      <trkpt lat="40.910314" lon="0.770852">
        <ele>94.870041</ele>
        <time>2022-06-05T09:15:46.000Z</time>
      </trkpt>
      <trkpt lat="40.910073" lon="0.771128">
        <ele>94.202866</ele>
        <time>2022-06-05T09:15:50.000Z</time>
      </trkpt>
      <trkpt lat="40.908808" lon="0.772263">
        <ele>91.030235</ele>
        <time>2022-06-05T09:16:07.000Z</time>
      </trkpt>
      <trkpt lat="40.908355" lon="0.772659">
        <ele>89.873025</ele>
        <time>2022-06-05T09:16:13.000Z</time>
      </trkpt>
      <trkpt lat="40.908203" lon="0.772798">
        <ele>89.494833</ele>
        <time>2022-06-05T09:16:15.000Z</time>
      </trkpt>
      <trkpt lat="40.908046" lon="0.77293">
        <ele>89.092188</ele>
        <time>2022-06-05T09:16:17.000Z</time>
      </trkpt>
      <trkpt lat="40.907931" lon="0.773022">
        <ele>88.810746</ele>
        <time>2022-06-05T09:16:18.000Z</time>
      </trkpt>
      <trkpt lat="40.907889" lon="0.773078">
        <ele>88.691804</ele>
        <time>2022-06-05T09:16:19.000Z</time>
      </trkpt>
      <trkpt lat="40.907275" lon="0.773454">
        <ele>87.302756</ele>
        <time>2022-06-05T09:16:27.000Z</time>
      </trkpt>
      <trkpt lat="40.906809" lon="0.773837">
        <ele>86.267733</ele>
        <time>2022-06-05T09:16:33.000Z</time>
      </trkpt>
      <trkpt lat="40.906588" lon="0.77406">
        <ele>85.711365</ele>
        <time>2022-06-05T09:16:36.000Z</time>
      </trkpt>
      <trkpt lat="40.905849" lon="0.774764">
        <ele>83.972243</ele>
        <time>2022-06-05T09:16:46.000Z</time>
      </trkpt>
      <trkpt lat="40.905658" lon="0.774938">
        <ele>83.455143</ele>
        <time>2022-06-05T09:16:49.000Z</time>
      </trkpt>
      <trkpt lat="40.904729" lon="0.775844">
        <ele>80.981785</ele>
        <time>2022-06-05T09:17:02.000Z</time>
      </trkpt>
      <trkpt lat="40.904308" lon="0.77635">
        <ele>79.777262</ele>
        <time>2022-06-05T09:17:08.000Z</time>
      </trkpt>
      <trkpt lat="40.903904" lon="0.776867">
        <ele>78.556703</ele>
        <time>2022-06-05T09:17:14.000Z</time>
      </trkpt>
      <trkpt lat="40.90326" lon="0.777669">
        <ele>76.645061</ele>
        <time>2022-06-05T09:17:24.000Z</time>
      </trkpt>
      <trkpt lat="40.902609" lon="0.778474">
        <ele>74.590949</ele>
        <time>2022-06-05T09:17:34.000Z</time>
      </trkpt>
      <trkpt lat="40.902472" lon="0.778645">
        <ele>74.158187</ele>
        <time>2022-06-05T09:17:36.000Z</time>
      </trkpt>
      <trkpt lat="40.902274" lon="0.778908">
        <ele>73.518497</ele>
        <time>2022-06-05T09:17:39.000Z</time>
      </trkpt>
      <trkpt lat="40.901976" lon="0.779271">
        <ele>72.595067</ele>
        <time>2022-06-05T09:17:44.000Z</time>
      </trkpt>
      <trkpt lat="40.90124" lon="0.780089">
        <ele>70.43684</ele>
        <time>2022-06-05T09:17:55.000Z</time>
      </trkpt>
      <trkpt lat="40.900362" lon="0.781421">
        <ele>67.359079</ele>
        <time>2022-06-05T09:18:10.000Z</time>
      </trkpt>
      <trkpt lat="40.899759" lon="0.782142">
        <ele>65.303625</ele>
        <time>2022-06-05T09:18:19.000Z</time>
      </trkpt>
      <trkpt lat="40.899673" lon="0.782217">
        <ele>65.065227</ele>
        <time>2022-06-05T09:18:20.000Z</time>
      </trkpt>
      <trkpt lat="40.899527" lon="0.782353">
        <ele>64.608648</ele>
        <time>2022-06-05T09:18:22.000Z</time>
      </trkpt>
      <trkpt lat="40.89894" lon="0.782872">
        <ele>62.783562</ele>
        <time>2022-06-05T09:18:30.000Z</time>
      </trkpt>
      <trkpt lat="40.898268" lon="0.783709">
        <ele>60.27735</ele>
        <time>2022-06-05T09:18:40.000Z</time>
      </trkpt>
      <trkpt lat="40.898065" lon="0.784054">
        <ele>59.351644</ele>
        <time>2022-06-05T09:18:44.000Z</time>
      </trkpt>
      <trkpt lat="40.897755" lon="0.784653">
        <ele>58.082344</ele>
        <time>2022-06-05T09:18:50.000Z</time>
      </trkpt>
      <trkpt lat="40.897682" lon="0.784859">
        <ele>57.7047</ele>
        <time>2022-06-05T09:18:52.000Z</time>
      </trkpt>
      <trkpt lat="40.897623" lon="0.784989">
        <ele>57.470767</ele>
        <time>2022-06-05T09:18:53.000Z</time>
      </trkpt>
      <trkpt lat="40.896617" lon="0.786989">
        <ele>54.463166</ele>
        <time>2022-06-05T09:19:13.000Z</time>
      </trkpt>
      <trkpt lat="40.896191" lon="0.788099">
        <ele>53.6399</ele>
        <time>2022-06-05T09:19:23.000Z</time>
      </trkpt>
      <trkpt lat="40.896099" lon="0.788342">
        <ele>53.463965</ele>
        <time>2022-06-05T09:19:25.000Z</time>
      </trkpt>
      <trkpt lat="40.896197" lon="0.788102">
        <ele>53.608613</ele>
        <time>2022-06-05T09:19:27.000Z</time>
      </trkpt>
      <trkpt lat="40.896619" lon="0.786979">
        <ele>54.471052</ele>
        <time>2022-06-05T09:19:38.000Z</time>
      </trkpt>
      <trkpt lat="40.897624" lon="0.785">
        <ele>57.475262</ele>
        <time>2022-06-05T09:19:58.000Z</time>
      </trkpt>
      <trkpt lat="40.89767" lon="0.78486">
        <ele>57.711334</ele>
        <time>2022-06-05T09:19:59.000Z</time>
      </trkpt>
      <trkpt lat="40.897772" lon="0.784651">
        <ele>58.092461</ele>
        <time>2022-06-05T09:20:01.000Z</time>
      </trkpt>
      <trkpt lat="40.89806" lon="0.784048">
        <ele>59.342042</ele>
        <time>2022-06-05T09:20:07.000Z</time>
      </trkpt>
      <trkpt lat="40.89827" lon="0.78371">
        <ele>60.270201</ele>
        <time>2022-06-05T09:20:11.000Z</time>
      </trkpt>
      <trkpt lat="40.898937" lon="0.782863">
        <ele>62.783055</ele>
        <time>2022-06-05T09:20:21.000Z</time>
      </trkpt>
      <trkpt lat="40.899528" lon="0.782344">
        <ele>64.615715</ele>
        <time>2022-06-05T09:20:29.000Z</time>
      </trkpt>
      <trkpt lat="40.899677" lon="0.782213">
        <ele>65.069987</ele>
        <time>2022-06-05T09:20:31.000Z</time>
      </trkpt>
      <trkpt lat="40.899758" lon="0.782138">
        <ele>65.30717</ele>
        <time>2022-06-05T09:20:32.000Z</time>
      </trkpt>
      <trkpt lat="40.900367" lon="0.781438">
        <ele>67.352227</ele>
        <time>2022-06-05T09:20:41.000Z</time>
      </trkpt>
      <trkpt lat="40.901244" lon="0.780088">
        <ele>70.438231</ele>
        <time>2022-06-05T09:20:56.000Z</time>
      </trkpt>
      <trkpt lat="40.901973" lon="0.779274">
        <ele>72.593508</ele>
        <time>2022-06-05T09:21:07.000Z</time>
      </trkpt>
      <trkpt lat="40.902263" lon="0.778903">
        <ele>73.516975</ele>
        <time>2022-06-05T09:21:11.000Z</time>
      </trkpt>
      <trkpt lat="40.902472" lon="0.778654">
        <ele>74.156697</ele>
        <time>2022-06-05T09:21:14.000Z</time>
      </trkpt>
      <trkpt lat="40.902614" lon="0.778488">
        <ele>74.589485</ele>
        <time>2022-06-05T09:21:16.000Z</time>
      </trkpt>
      <trkpt lat="40.90327" lon="0.777659">
        <ele>76.649756</ele>
        <time>2022-06-05T09:21:26.000Z</time>
      </trkpt>
      <trkpt lat="40.903897" lon="0.776868">
        <ele>78.559285</ele>
        <time>2022-06-05T09:21:36.000Z</time>
      </trkpt>
      <trkpt lat="40.904316" lon="0.776356">
        <ele>79.778481</ele>
        <time>2022-06-05T09:21:42.000Z</time>
      </trkpt>
      <trkpt lat="40.904727" lon="0.775834">
        <ele>80.981169</ele>
        <time>2022-06-05T09:21:48.000Z</time>
      </trkpt>
      <trkpt lat="40.905649" lon="0.774952">
        <ele>83.447519</ele>
        <time>2022-06-05T09:22:01.000Z</time>
      </trkpt>
      <trkpt lat="40.905856" lon="0.774764">
        <ele>83.963144</ele>
        <time>2022-06-05T09:22:04.000Z</time>
      </trkpt>
      <trkpt lat="40.906589" lon="0.774064">
        <ele>85.713647</ele>
        <time>2022-06-05T09:22:14.000Z</time>
      </trkpt>
      <trkpt lat="40.906814" lon="0.773841">
        <ele>86.270613</ele>
        <time>2022-06-05T09:22:17.000Z</time>
      </trkpt>
      <trkpt lat="40.907272" lon="0.773459">
        <ele>87.306773</ele>
        <time>2022-06-05T09:22:23.000Z</time>
      </trkpt>
      <trkpt lat="40.907873" lon="0.773077">
        <ele>88.690159</ele>
        <time>2022-06-05T09:22:30.000Z</time>
      </trkpt>
      <trkpt lat="40.907922" lon="0.773033">
        <ele>88.80932</ele>
        <time>2022-06-05T09:22:31.000Z</time>
      </trkpt>
      <trkpt lat="40.908049" lon="0.772945">
        <ele>89.091285</ele>
        <time>2022-06-05T09:22:33.000Z</time>
      </trkpt>
      <trkpt lat="40.908202" lon="0.7728">
        <ele>89.494669</ele>
        <time>2022-06-05T09:22:35.000Z</time>
      </trkpt>
      <trkpt lat="40.908364" lon="0.772658">
        <ele>89.873564</ele>
        <time>2022-06-05T09:22:37.000Z</time>
      </trkpt>
      <trkpt lat="40.908814" lon="0.772252">
        <ele>91.032937</ele>
        <time>2022-06-05T09:22:43.000Z</time>
      </trkpt>
      <trkpt lat="40.910072" lon="0.771131">
        <ele>94.20001</ele>
        <time>2022-06-05T09:23:00.000Z</time>
      </trkpt>
      <trkpt lat="40.910321" lon="0.770853">
        <ele>94.865605</ele>
        <time>2022-06-05T09:23:04.000Z</time>
      </trkpt>
      <trkpt lat="40.913153" lon="0.766884">
        <ele>102.840243</ele>
        <time>2022-06-05T09:23:50.000Z</time>
      </trkpt>
      <trkpt lat="40.913251" lon="0.766727">
        <ele>103.127788</ele>
        <time>2022-06-05T09:23:52.000Z</time>
      </trkpt>
      <trkpt lat="40.91333" lon="0.766554">
        <ele>103.435372</ele>
        <time>2022-06-05T09:23:54.000Z</time>
      </trkpt>
      <trkpt lat="40.913457" lon="0.766312">
        <ele>103.866693</ele>
        <time>2022-06-05T09:23:56.000Z</time>
      </trkpt>
      <trkpt lat="40.913464" lon="0.766274">
        <ele>103.937533</ele>
        <time>2022-06-05T09:23:56.000Z</time>
      </trkpt>
      <trkpt lat="40.913488" lon="0.766244">
        <ele>103.993989</ele>
        <time>2022-06-05T09:23:56.000Z</time>
      </trkpt>
      <trkpt lat="40.913901" lon="0.765377">
        <ele>105.528521</ele>
        <time>2022-06-05T09:24:05.000Z</time>
      </trkpt>
      <trkpt lat="40.914142" lon="0.765032">
        <ele>106.088445</ele>
        <time>2022-06-05T09:24:09.000Z</time>
      </trkpt>
      <trkpt lat="40.914958" lon="0.764161">
        <ele>107.630648</ele>
        <time>2022-06-05T09:24:21.000Z</time>
      </trkpt>
      <trkpt lat="40.915968" lon="0.763315">
        <ele>109.538185</ele>
        <time>2022-06-05T09:24:34.000Z</time>
      </trkpt>
      <trkpt lat="40.9162" lon="0.763072">
        <ele>110.042415</ele>
        <time>2022-06-05T09:24:37.000Z</time>
      </trkpt>
      <trkpt lat="40.916294" lon="0.762975">
        <ele>110.230004</ele>
        <time>2022-06-05T09:24:38.000Z</time>
      </trkpt>
      <trkpt lat="40.91661" lon="0.762662">
        <ele>110.880887</ele>
        <time>2022-06-05T09:24:42.000Z</time>
      </trkpt>
      <trkpt lat="40.916726" lon="0.762567">
        <ele>111.126413</ele>
        <time>2022-06-05T09:24:44.000Z</time>
      </trkpt>
      <trkpt lat="40.916943" lon="0.762362">
        <ele>111.443522</ele>
        <time>2022-06-05T09:24:47.000Z</time>
      </trkpt>
      <trkpt lat="40.917715" lon="0.761657">
        <ele>112.412874</ele>
        <time>2022-06-05T09:24:57.000Z</time>
      </trkpt>
      <trkpt lat="40.917743" lon="0.76163">
        <ele>112.436531</ele>
        <time>2022-06-05T09:24:57.000Z</time>
      </trkpt>
      <trkpt lat="40.917795" lon="0.761549">
        <ele>112.521018</ele>
        <time>2022-06-05T09:24:58.000Z</time>
      </trkpt>
      <trkpt lat="40.918015" lon="0.761053">
        <ele>112.968886</ele>
        <time>2022-06-05T09:25:03.000Z</time>
      </trkpt>
      <trkpt lat="40.918225" lon="0.760082">
        <ele>113.255261</ele>
        <time>2022-06-05T09:25:11.000Z</time>
      </trkpt>
      <trkpt lat="40.918446" lon="0.759336">
        <ele>113.397986</ele>
        <time>2022-06-05T09:25:18.000Z</time>
      </trkpt>
      <trkpt lat="40.918518" lon="0.759061">
        <ele>113.450499</ele>
        <time>2022-06-05T09:25:20.000Z</time>
      </trkpt>
      <trkpt lat="40.918618" lon="0.758792">
        <ele>113.503282</ele>
        <time>2022-06-05T09:25:23.000Z</time>
      </trkpt>
      <trkpt lat="40.918641" lon="0.758723">
        <ele>113.51772</ele>
        <time>2022-06-05T09:25:24.000Z</time>
      </trkpt>
      <trkpt lat="40.918793" lon="0.758635">
        <ele>113.675123</ele>
        <time>2022-06-05T09:25:26.000Z</time>
      </trkpt>
      <trkpt lat="40.918838" lon="0.758628">
        <ele>113.717466</ele>
        <time>2022-06-05T09:25:27.000Z</time>
      </trkpt>
      <trkpt lat="40.919786" lon="0.759503">
        <ele>115.259455</ele>
        <time>2022-06-05T09:25:40.000Z</time>
      </trkpt>
      <trkpt lat="40.92087" lon="0.760438">
        <ele>117.137671</ele>
        <time>2022-06-05T09:25:54.000Z</time>
      </trkpt>
      <trkpt lat="40.92306" lon="0.762326">
        <ele>119.237154</ele>
        <time>2022-06-05T09:26:23.000Z</time>
      </trkpt>
      <trkpt lat="40.923108" lon="0.762367">
        <ele>119.258729</ele>
        <time>2022-06-05T09:26:24.000Z</time>
      </trkpt>
      <trkpt lat="40.923174" lon="0.762411">
        <ele>119.280855</ele>
        <time>2022-06-05T09:26:25.000Z</time>
      </trkpt>
      <trkpt lat="40.923493" lon="0.762579">
        <ele>118.276893</ele>
        <time>2022-06-05T09:26:29.000Z</time>
      </trkpt>
      <trkpt lat="40.923599" lon="0.762597">
        <ele>117.873729</ele>
        <time>2022-06-05T09:26:30.000Z</time>
      </trkpt>
      <trkpt lat="40.923842" lon="0.762652">
        <ele>116.942686</ele>
        <time>2022-06-05T09:26:33.000Z</time>
      </trkpt>
      <trkpt lat="40.924548" lon="0.762763">
        <ele>114.337248</ele>
        <time>2022-06-05T09:26:41.000Z</time>
      </trkpt>
      <trkpt lat="40.92469" lon="0.762833">
        <ele>113.763717</ele>
        <time>2022-06-05T09:26:43.000Z</time>
      </trkpt>
      <trkpt lat="40.924847" lon="0.763018">
        <ele>112.960489</ele>
        <time>2022-06-05T09:26:45.000Z</time>
      </trkpt>
      <trkpt lat="40.924854" lon="0.763366">
        <ele>112.029135</ele>
        <time>2022-06-05T09:26:48.000Z</time>
      </trkpt>
      <trkpt lat="40.92477" lon="0.763559">
        <ele>111.436599</ele>
        <time>2022-06-05T09:26:50.000Z</time>
      </trkpt>
      <trkpt lat="40.924636" lon="0.763667">
        <ele>110.908632</ele>
        <time>2022-06-05T09:26:52.000Z</time>
      </trkpt>
      <trkpt lat="40.923934" lon="0.763731">
        <ele>108.416612</ele>
        <time>2022-06-05T09:27:00.000Z</time>
      </trkpt>
      <trkpt lat="40.923697" lon="0.763869">
        <ele>107.479154</ele>
        <time>2022-06-05T09:27:03.000Z</time>
      </trkpt>
      <trkpt lat="40.92354" lon="0.764094">
        <ele>106.698134</ele>
        <time>2022-06-05T09:27:06.000Z</time>
      </trkpt>
      <trkpt lat="40.923207" lon="0.764793">
        <ele>106.423772</ele>
        <time>2022-06-05T09:27:13.000Z</time>
      </trkpt>
      <trkpt lat="40.923153" lon="0.764878">
        <ele>106.432201</ele>
        <time>2022-06-05T09:27:14.000Z</time>
      </trkpt>
      <trkpt lat="40.922886" lon="0.765489">
        <ele>106.488975</ele>
        <time>2022-06-05T09:27:20.000Z</time>
      </trkpt>
      <trkpt lat="40.922758" lon="0.765828">
        <ele>106.520746</ele>
        <time>2022-06-05T09:27:23.000Z</time>
      </trkpt>
      <trkpt lat="40.922759" lon="0.766262">
        <ele>106.555891</ele>
        <time>2022-06-05T09:27:27.000Z</time>
      </trkpt>
      <trkpt lat="40.922961" lon="0.767103">
        <ele>109.243918</ele>
        <time>2022-06-05T09:27:34.000Z</time>
      </trkpt>
      <trkpt lat="40.923198" lon="0.7677">
        <ele>111.429205</ele>
        <time>2022-06-05T09:27:40.000Z</time>
      </trkpt>
      <trkpt lat="40.923291" lon="0.767769">
        <ele>111.868901</ele>
        <time>2022-06-05T09:27:41.000Z</time>
      </trkpt>
      <trkpt lat="40.923405" lon="0.767771">
        <ele>112.377453</ele>
        <time>2022-06-05T09:27:42.000Z</time>
      </trkpt>
      <trkpt lat="40.924401" lon="0.767591">
        <ele>117.047279</ele>
        <time>2022-06-05T09:27:53.000Z</time>
      </trkpt>
      <trkpt lat="40.924673" lon="0.767711">
        <ele>118.515661</ele>
        <time>2022-06-05T09:27:56.000Z</time>
      </trkpt>
      <trkpt lat="40.924751" lon="0.767782">
        <ele>118.97485</ele>
        <time>2022-06-05T09:27:57.000Z</time>
      </trkpt>
      <trkpt lat="40.925694" lon="0.768954">
        <ele>123.99115</ele>
        <time>2022-06-05T09:28:11.000Z</time>
      </trkpt>
      <trkpt lat="40.926076" lon="0.76943">
        <ele>124.965006</ele>
        <time>2022-06-05T09:28:17.000Z</time>
      </trkpt>
      <trkpt lat="40.926438" lon="0.769875">
        <ele>125.884647</ele>
        <time>2022-06-05T09:28:22.000Z</time>
      </trkpt>
      <trkpt lat="40.926931" lon="0.770502">
        <ele>126.419945</ele>
        <time>2022-06-05T09:28:30.000Z</time>
      </trkpt>
      <trkpt lat="40.927153" lon="0.770847">
        <ele>126.369173</ele>
        <time>2022-06-05T09:28:34.000Z</time>
      </trkpt>
      <trkpt lat="40.927154" lon="0.770876">
        <ele>126.364776</ele>
        <time>2022-06-05T09:28:34.000Z</time>
      </trkpt>
      <trkpt lat="40.927188" lon="0.77095">
        <ele>126.356086</ele>
        <time>2022-06-05T09:28:35.000Z</time>
      </trkpt>
      <trkpt lat="40.927216" lon="0.771044">
        <ele>126.34301</ele>
        <time>2022-06-05T09:28:36.000Z</time>
      </trkpt>
      <trkpt lat="40.927259" lon="0.771204">
        <ele>126.324699</ele>
        <time>2022-06-05T09:28:37.000Z</time>
      </trkpt>
      <trkpt lat="40.927734" lon="0.773574">
        <ele>127.028167</ele>
        <time>2022-06-05T09:28:58.000Z</time>
      </trkpt>
      <trkpt lat="40.927947" lon="0.774653">
        <ele>127.839182</ele>
        <time>2022-06-05T09:29:07.000Z</time>
      </trkpt>
      <trkpt lat="40.927986" lon="0.774829">
        <ele>128.236555</ele>
        <time>2022-06-05T09:29:09.000Z</time>
      </trkpt>
      <trkpt lat="40.928153" lon="0.775734">
        <ele>130.128654</ele>
        <time>2022-06-05T09:29:17.000Z</time>
      </trkpt>
      <trkpt lat="40.928215" lon="0.776051">
        <ele>130.791153</ele>
        <time>2022-06-05T09:29:20.000Z</time>
      </trkpt>
      <trkpt lat="40.928271" lon="0.776325">
        <ele>131.364162</ele>
        <time>2022-06-05T09:29:22.000Z</time>
      </trkpt>
      <trkpt lat="40.928378" lon="0.776945">
        <ele>132.623725</ele>
        <time>2022-06-05T09:29:27.000Z</time>
      </trkpt>
      <trkpt lat="40.928475" lon="0.777264">
        <ele>133.202918</ele>
        <time>2022-06-05T09:29:30.000Z</time>
      </trkpt>
      <trkpt lat="40.92863" lon="0.777505">
        <ele>133.728821</ele>
        <time>2022-06-05T09:29:33.000Z</time>
      </trkpt>
      <trkpt lat="40.929003" lon="0.777769">
        <ele>134.659496</ele>
        <time>2022-06-05T09:29:38.000Z</time>
      </trkpt>
      <trkpt lat="40.929643" lon="0.778025">
        <ele>136.134707</ele>
        <time>2022-06-05T09:29:45.000Z</time>
      </trkpt>
      <trkpt lat="40.929834" lon="0.778001">
        <ele>136.394136</ele>
        <time>2022-06-05T09:29:47.000Z</time>
      </trkpt>
      <trkpt lat="40.930037" lon="0.777902">
        <ele>136.118181</ele>
        <time>2022-06-05T09:29:49.000Z</time>
      </trkpt>
      <trkpt lat="40.930184" lon="0.777938">
        <ele>135.937583</ele>
        <time>2022-06-05T09:29:51.000Z</time>
      </trkpt>
      <trkpt lat="40.93026" lon="0.778092">
        <ele>135.762632</ele>
        <time>2022-06-05T09:29:53.000Z</time>
      </trkpt>
      <trkpt lat="40.930257" lon="0.778238">
        <ele>135.624659</ele>
        <time>2022-06-05T09:29:54.000Z</time>
      </trkpt>
      <trkpt lat="40.930114" lon="0.778633">
        <ele>135.214304</ele>
        <time>2022-06-05T09:29:58.000Z</time>
      </trkpt>
      <trkpt lat="40.929878" lon="0.779041">
        <ele>134.74875</ele>
        <time>2022-06-05T09:30:02.000Z</time>
      </trkpt>
      <trkpt lat="40.929823" lon="0.77912">
        <ele>134.643892</ele>
        <time>2022-06-05T09:30:03.000Z</time>
      </trkpt>
      <trkpt lat="40.929481" lon="0.779855">
        <ele>133.482728</ele>
        <time>2022-06-05T09:30:10.000Z</time>
      </trkpt>
      <trkpt lat="40.929614" lon="0.780438">
        <ele>132.408926</ele>
        <time>2022-06-05T09:30:15.000Z</time>
      </trkpt>
      <trkpt lat="40.929506" lon="0.781034">
        <ele>131.320307</ele>
        <time>2022-06-05T09:30:20.000Z</time>
      </trkpt>
      <trkpt lat="40.929536" lon="0.781209">
        <ele>131.015384</ele>
        <time>2022-06-05T09:30:22.000Z</time>
      </trkpt>
      <trkpt lat="40.929643" lon="0.781352">
        <ele>130.631834</ele>
        <time>2022-06-05T09:30:24.000Z</time>
      </trkpt>
      <trkpt lat="40.930309" lon="0.781737">
        <ele>130.386177</ele>
        <time>2022-06-05T09:30:32.000Z</time>
      </trkpt>
      <trkpt lat="40.930482" lon="0.78191">
        <ele>130.535993</ele>
        <time>2022-06-05T09:30:34.000Z</time>
      </trkpt>
      <trkpt lat="40.93103" lon="0.782999">
        <ele>131.208215</ele>
        <time>2022-06-05T09:30:45.000Z</time>
      </trkpt>
      <trkpt lat="40.931041" lon="0.783037">
        <ele>131.227848</ele>
        <time>2022-06-05T09:30:45.000Z</time>
      </trkpt>
      <trkpt lat="40.931139" lon="0.783236">
        <ele>131.383766</ele>
        <time>2022-06-05T09:30:47.000Z</time>
      </trkpt>
      <trkpt lat="40.931272" lon="0.783686">
        <ele>131.769571</ele>
        <time>2022-06-05T09:30:51.000Z</time>
      </trkpt>
      <trkpt lat="40.931304" lon="0.78384">
        <ele>131.884229</ele>
        <time>2022-06-05T09:30:52.000Z</time>
      </trkpt>
      <trkpt lat="40.931323" lon="0.783984">
        <ele>131.9956</ele>
        <time>2022-06-05T09:30:53.000Z</time>
      </trkpt>
      <trkpt lat="40.931597" lon="0.785585">
        <ele>132.964691</ele>
        <time>2022-06-05T09:31:07.000Z</time>
      </trkpt>
      <trkpt lat="40.93173" lon="0.787303">
        <ele>131.137157</ele>
        <time>2022-06-05T09:31:22.000Z</time>
      </trkpt>
      <trkpt lat="40.931815" lon="0.787697">
        <ele>130.689675</ele>
        <time>2022-06-05T09:31:25.000Z</time>
      </trkpt>
      <trkpt lat="40.931825" lon="0.787817">
        <ele>130.531749</ele>
        <time>2022-06-05T09:31:26.000Z</time>
      </trkpt>
      <trkpt lat="40.932677" lon="0.79243">
        <ele>121.452205</ele>
        <time>2022-06-05T09:32:06.000Z</time>
      </trkpt>
      <trkpt lat="40.933143" lon="0.793668">
        <ele>118.519439</ele>
        <time>2022-06-05T09:32:18.000Z</time>
      </trkpt>
      <trkpt lat="40.933406" lon="0.794723">
        <ele>116.192826</ele>
        <time>2022-06-05T09:32:27.000Z</time>
      </trkpt>
      <trkpt lat="40.933585" lon="0.795437">
        <ele>114.976527</ele>
        <time>2022-06-05T09:32:33.000Z</time>
      </trkpt>
      <trkpt lat="40.933628" lon="0.795604">
        <ele>114.670886</ele>
        <time>2022-06-05T09:32:34.000Z</time>
      </trkpt>
      <trkpt lat="40.933776" lon="0.79579">
        <ele>114.23021</ele>
        <time>2022-06-05T09:32:36.000Z</time>
      </trkpt>
      <trkpt lat="40.93434" lon="0.795667">
        <ele>112.982234</ele>
        <time>2022-06-05T09:32:42.000Z</time>
      </trkpt>
      <trkpt lat="40.934524" lon="0.795769">
        <ele>112.553927</ele>
        <time>2022-06-05T09:32:44.000Z</time>
      </trkpt>
      <trkpt lat="40.934609" lon="0.795985">
        <ele>112.815763</ele>
        <time>2022-06-05T09:32:46.000Z</time>
      </trkpt>
      <trkpt lat="40.934677" lon="0.796509">
        <ele>113.403175</ele>
        <time>2022-06-05T09:32:50.000Z</time>
      </trkpt>
      <trkpt lat="40.934792" lon="0.796733">
        <ele>113.689767</ele>
        <time>2022-06-05T09:32:52.000Z</time>
      </trkpt>
      <trkpt lat="40.934867" lon="0.796822">
        <ele>113.843776</ele>
        <time>2022-06-05T09:32:53.000Z</time>
      </trkpt>
      <trkpt lat="40.934946" lon="0.796902">
        <ele>113.994464</ele>
        <time>2022-06-05T09:32:54.000Z</time>
      </trkpt>
      <trkpt lat="40.935169" lon="0.797115">
        <ele>114.382568</ele>
        <time>2022-06-05T09:32:57.000Z</time>
      </trkpt>
      <trkpt lat="40.936279" lon="0.797709">
        <ele>118.013422</ele>
        <time>2022-06-05T09:33:10.000Z</time>
      </trkpt>
      <trkpt lat="40.937646" lon="0.798569">
        <ele>124.459905</ele>
        <time>2022-06-05T09:33:27.000Z</time>
      </trkpt>
      <trkpt lat="40.937901" lon="0.798818">
        <ele>125.7582</ele>
        <time>2022-06-05T09:33:31.000Z</time>
      </trkpt>
      <trkpt lat="40.938537" lon="0.79962">
        <ele>129.400636</ele>
        <time>2022-06-05T09:33:41.000Z</time>
      </trkpt>
      <trkpt lat="40.938866" lon="0.800251">
        <ele>130.580849</ele>
        <time>2022-06-05T09:33:47.000Z</time>
      </trkpt>
      <trkpt lat="40.938961" lon="0.800467">
        <ele>130.701261</ele>
        <time>2022-06-05T09:33:49.000Z</time>
      </trkpt>
      <trkpt lat="40.939144" lon="0.800839">
        <ele>130.930417</ele>
        <time>2022-06-05T09:33:53.000Z</time>
      </trkpt>
      <trkpt lat="40.939279" lon="0.8011">
        <ele>131.08857</ele>
        <time>2022-06-05T09:33:56.000Z</time>
      </trkpt>
      <trkpt lat="40.93979" lon="0.802236">
        <ele>130.656356</ele>
        <time>2022-06-05T09:34:07.000Z</time>
      </trkpt>
      <trkpt lat="40.939913" lon="0.802828">
        <ele>129.286963</ele>
        <time>2022-06-05T09:34:12.000Z</time>
      </trkpt>
      <trkpt lat="40.940006" lon="0.803917">
        <ele>126.900337</ele>
        <time>2022-06-05T09:34:21.000Z</time>
      </trkpt>
      <trkpt lat="40.940061" lon="0.80455">
        <ele>125.498771</ele>
        <time>2022-06-05T09:34:26.000Z</time>
      </trkpt>
      <trkpt lat="40.940104" lon="0.805348">
        <ele>123.81034</ele>
        <time>2022-06-05T09:34:33.000Z</time>
      </trkpt>
      <trkpt lat="40.940104" lon="0.805611">
        <ele>123.261906</ele>
        <time>2022-06-05T09:34:35.000Z</time>
      </trkpt>
      <trkpt lat="40.940174" lon="0.805787">
        <ele>122.846887</ele>
        <time>2022-06-05T09:34:37.000Z</time>
      </trkpt>
      <trkpt lat="40.940299" lon="0.805757">
        <ele>122.47673</ele>
        <time>2022-06-05T09:34:38.000Z</time>
      </trkpt>
      <trkpt lat="40.940583" lon="0.805539">
        <ele>121.562977</ele>
        <time>2022-06-05T09:34:42.000Z</time>
      </trkpt>
      <trkpt lat="40.940702" lon="0.805551">
        <ele>121.252203</ele>
        <time>2022-06-05T09:34:43.000Z</time>
      </trkpt>
      <trkpt lat="40.940862" lon="0.805813">
        <ele>121.170887</ele>
        <time>2022-06-05T09:34:46.000Z</time>
      </trkpt>
      <trkpt lat="40.940916" lon="0.80617">
        <ele>121.080799</ele>
        <time>2022-06-05T09:34:49.000Z</time>
      </trkpt>
      <trkpt lat="40.940998" lon="0.806428">
        <ele>121.009085</ele>
        <time>2022-06-05T09:34:51.000Z</time>
      </trkpt>
      <trkpt lat="40.942461" lon="0.80815">
        <ele>120.666548</ele>
        <time>2022-06-05T09:35:13.000Z</time>
      </trkpt>
      <trkpt lat="40.94261" lon="0.808638">
        <ele>120.665727</ele>
        <time>2022-06-05T09:35:17.000Z</time>
      </trkpt>
      <trkpt lat="40.942739" lon="0.810215">
        <ele>120.046944</ele>
        <time>2022-06-05T09:35:30.000Z</time>
      </trkpt>
      <trkpt lat="40.942688" lon="0.814708">
        <ele>116.851032</ele>
        <time>2022-06-05T09:36:08.000Z</time>
      </trkpt>
      <trkpt lat="40.942701" lon="0.815414">
        <ele>116.762182</ele>
        <time>2022-06-05T09:36:14.000Z</time>
      </trkpt>
      <trkpt lat="40.942689" lon="0.815449">
        <ele>116.759522</ele>
        <time>2022-06-05T09:36:14.000Z</time>
      </trkpt>
      <trkpt lat="40.942689" lon="0.815426">
        <ele>116.756881</ele>
        <time>2022-06-05T09:36:14.000Z</time>
      </trkpt>
      <trkpt lat="40.942694" lon="0.814724">
        <ele>116.668026</ele>
        <time>2022-06-05T09:36:20.000Z</time>
      </trkpt>
      <trkpt lat="40.94274" lon="0.810215">
        <ele>120.113509</ele>
        <time>2022-06-05T09:36:58.000Z</time>
      </trkpt>
      <trkpt lat="40.942604" lon="0.808647">
        <ele>120.611379</ele>
        <time>2022-06-05T09:37:11.000Z</time>
      </trkpt>
      <trkpt lat="40.942447" lon="0.808147">
        <ele>120.663627</ele>
        <time>2022-06-05T09:37:16.000Z</time>
      </trkpt>
      <trkpt lat="40.941008" lon="0.806444">
        <ele>120.843707</ele>
        <time>2022-06-05T09:37:37.000Z</time>
      </trkpt>
      <trkpt lat="40.940904" lon="0.80617">
        <ele>120.860533</ele>
        <time>2022-06-05T09:37:40.000Z</time>
      </trkpt>
      <trkpt lat="40.940868" lon="0.80582">
        <ele>120.978443</ele>
        <time>2022-06-05T09:37:43.000Z</time>
      </trkpt>
      <trkpt lat="40.940712" lon="0.805551">
        <ele>121.579506</ele>
        <time>2022-06-05T09:37:46.000Z</time>
      </trkpt>
      <trkpt lat="40.940578" lon="0.805534">
        <ele>121.879858</ele>
        <time>2022-06-05T09:37:47.000Z</time>
      </trkpt>
      <trkpt lat="40.940304" lon="0.80575">
        <ele>122.667316</ele>
        <time>2022-06-05T09:37:51.000Z</time>
      </trkpt>
      <trkpt lat="40.940181" lon="0.805793">
        <ele>122.986344</ele>
        <time>2022-06-05T09:37:52.000Z</time>
      </trkpt>
      <trkpt lat="40.940111" lon="0.805607">
        <ele>123.343998</ele>
        <time>2022-06-05T09:37:54.000Z</time>
      </trkpt>
      <trkpt lat="40.940093" lon="0.805343">
        <ele>123.816653</ele>
        <time>2022-06-05T09:37:56.000Z</time>
      </trkpt>
      <trkpt lat="40.940058" lon="0.804561">
        <ele>125.285021</ele>
        <time>2022-06-05T09:38:03.000Z</time>
      </trkpt>
      <trkpt lat="40.940016" lon="0.803901">
        <ele>126.859703</ele>
        <time>2022-06-05T09:38:09.000Z</time>
      </trkpt>
      <trkpt lat="40.939902" lon="0.802836">
        <ele>129.481861</ele>
        <time>2022-06-05T09:38:18.000Z</time>
      </trkpt>
      <trkpt lat="40.939776" lon="0.802228">
        <ele>130.986384</ele>
        <time>2022-06-05T09:38:23.000Z</time>
      </trkpt>
      <trkpt lat="40.939262" lon="0.801096">
        <ele>131.062987</ele>
        <time>2022-06-05T09:38:34.000Z</time>
      </trkpt>
      <trkpt lat="40.939143" lon="0.800832">
        <ele>131.078558</ele>
        <time>2022-06-05T09:38:37.000Z</time>
      </trkpt>
      <trkpt lat="40.93896" lon="0.800451">
        <ele>131.10111</ele>
        <time>2022-06-05T09:38:41.000Z</time>
      </trkpt>
      <trkpt lat="40.93886" lon="0.800258">
        <ele>131.11295</ele>
        <time>2022-06-05T09:38:43.000Z</time>
      </trkpt>
      <trkpt lat="40.938546" lon="0.799622">
        <ele>129.107581</ele>
        <time>2022-06-05T09:38:49.000Z</time>
      </trkpt>
      <trkpt lat="40.937897" lon="0.798821">
        <ele>125.788976</ele>
        <time>2022-06-05T09:38:59.000Z</time>
      </trkpt>
      <trkpt lat="40.937655" lon="0.79857">
        <ele>124.606086</ele>
        <time>2022-06-05T09:39:02.000Z</time>
      </trkpt>
      <trkpt lat="40.936276" lon="0.797702">
        <ele>117.879765</ele>
        <time>2022-06-05T09:39:19.000Z</time>
      </trkpt>
      <trkpt lat="40.935176" lon="0.797107">
        <ele>114.482768</ele>
        <time>2022-06-05T09:39:32.000Z</time>
      </trkpt>
      <trkpt lat="40.934949" lon="0.796912">
        <ele>113.910859</ele>
        <time>2022-06-05T09:39:35.000Z</time>
      </trkpt>
      <trkpt lat="40.934874" lon="0.796827">
        <ele>113.688816</ele>
        <time>2022-06-05T09:39:36.000Z</time>
      </trkpt>
      <trkpt lat="40.934796" lon="0.796732">
        <ele>113.461855</ele>
        <time>2022-06-05T09:39:37.000Z</time>
      </trkpt>
      <trkpt lat="40.934693" lon="0.796507">
        <ele>113.039531</ele>
        <time>2022-06-05T09:39:39.000Z</time>
      </trkpt>
      <trkpt lat="40.934599" lon="0.795984">
        <ele>112.638995</ele>
        <time>2022-06-05T09:39:44.000Z</time>
      </trkpt>
      <trkpt lat="40.934516" lon="0.79578">
        <ele>112.952939</ele>
        <time>2022-06-05T09:39:46.000Z</time>
      </trkpt>
      <trkpt lat="40.934326" lon="0.795676">
        <ele>113.308234</ele>
        <time>2022-06-05T09:39:48.000Z</time>
      </trkpt>
      <trkpt lat="40.933773" lon="0.795796">
        <ele>114.307458</ele>
        <time>2022-06-05T09:39:54.000Z</time>
      </trkpt>
      <trkpt lat="40.93362" lon="0.795617">
        <ele>114.660286</ele>
        <time>2022-06-05T09:39:56.000Z</time>
      </trkpt>
      <trkpt lat="40.933574" lon="0.795431">
        <ele>114.905008</ele>
        <time>2022-06-05T09:39:58.000Z</time>
      </trkpt>
      <trkpt lat="40.933402" lon="0.794726">
        <ele>116.091568</ele>
        <time>2022-06-05T09:40:04.000Z</time>
      </trkpt>
      <trkpt lat="40.933145" lon="0.79366">
        <ele>118.540926</ele>
        <time>2022-06-05T09:40:13.000Z</time>
      </trkpt>
      <trkpt lat="40.932673" lon="0.792442">
        <ele>121.440766</ele>
        <time>2022-06-05T09:40:25.000Z</time>
      </trkpt>
      <trkpt lat="40.931825" lon="0.787811">
        <ele>130.381016</ele>
        <time>2022-06-05T09:41:05.000Z</time>
      </trkpt>
      <trkpt lat="40.931806" lon="0.787698">
        <ele>130.525792</ele>
        <time>2022-06-05T09:41:06.000Z</time>
      </trkpt>
      <trkpt lat="40.931724" lon="0.787294">
        <ele>131.079862</ele>
        <time>2022-06-05T09:41:10.000Z</time>
      </trkpt>
      <trkpt lat="40.931601" lon="0.785579">
        <ele>132.919558</ele>
        <time>2022-06-05T09:41:24.000Z</time>
      </trkpt>
      <trkpt lat="40.931328" lon="0.783967">
        <ele>132.023515</ele>
        <time>2022-06-05T09:41:38.000Z</time>
      </trkpt>
      <trkpt lat="40.931291" lon="0.783838">
        <ele>131.946365</ele>
        <time>2022-06-05T09:41:39.000Z</time>
      </trkpt>
      <trkpt lat="40.931265" lon="0.783702">
        <ele>131.866926</ele>
        <time>2022-06-05T09:41:40.000Z</time>
      </trkpt>
      <trkpt lat="40.931135" lon="0.783232">
        <ele>131.534754</ele>
        <time>2022-06-05T09:41:44.000Z</time>
      </trkpt>
      <trkpt lat="40.931041" lon="0.783034">
        <ele>131.350758</ele>
        <time>2022-06-05T09:41:46.000Z</time>
      </trkpt>
      <trkpt lat="40.931022" lon="0.783011">
        <ele>131.320841</ele>
        <time>2022-06-05T09:41:46.000Z</time>
      </trkpt>
      <trkpt lat="40.930487" lon="0.781909">
        <ele>130.296898</ele>
        <time>2022-06-05T09:41:57.000Z</time>
      </trkpt>
      <trkpt lat="40.930314" lon="0.781732">
        <ele>130.068691</ele>
        <time>2022-06-05T09:41:59.000Z</time>
      </trkpt>
      <trkpt lat="40.929649" lon="0.781359">
        <ele>130.956313</ele>
        <time>2022-06-05T09:42:07.000Z</time>
      </trkpt>
      <trkpt lat="40.929533" lon="0.781209">
        <ele>131.276276</ele>
        <time>2022-06-05T09:42:09.000Z</time>
      </trkpt>
      <trkpt lat="40.929503" lon="0.78104">
        <ele>131.530675</ele>
        <time>2022-06-05T09:42:10.000Z</time>
      </trkpt>
      <trkpt lat="40.929612" lon="0.780432">
        <ele>132.438852</ele>
        <time>2022-06-05T09:42:15.000Z</time>
      </trkpt>
      <trkpt lat="40.929471" lon="0.779844">
        <ele>133.334675</ele>
        <time>2022-06-05T09:42:20.000Z</time>
      </trkpt>
      <trkpt lat="40.929832" lon="0.779122">
        <ele>134.502614</ele>
        <time>2022-06-05T09:42:27.000Z</time>
      </trkpt>
      <trkpt lat="40.92989" lon="0.779036">
        <ele>134.653636</ele>
        <time>2022-06-05T09:42:28.000Z</time>
      </trkpt>
      <trkpt lat="40.930117" lon="0.778636">
        <ele>135.324156</ele>
        <time>2022-06-05T09:42:32.000Z</time>
      </trkpt>
      <trkpt lat="40.930253" lon="0.778236">
        <ele>135.915183</ele>
        <time>2022-06-05T09:42:36.000Z</time>
      </trkpt>
      <trkpt lat="40.930267" lon="0.778098">
        <ele>136.113918</ele>
        <time>2022-06-05T09:42:37.000Z</time>
      </trkpt>
      <trkpt lat="40.930187" lon="0.777935">
        <ele>136.365891</ele>
        <time>2022-06-05T09:42:39.000Z</time>
      </trkpt>
      <trkpt lat="40.930038" lon="0.777901">
        <ele>136.510975</ele>
        <time>2022-06-05T09:42:41.000Z</time>
      </trkpt>
      <trkpt lat="40.929828" lon="0.778007">
        <ele>136.114832</ele>
        <time>2022-06-05T09:42:43.000Z</time>
      </trkpt>
      <trkpt lat="40.929643" lon="0.778029">
        <ele>135.772171</ele>
        <time>2022-06-05T09:42:45.000Z</time>
      </trkpt>
      <trkpt lat="40.929005" lon="0.777764">
        <ele>134.589286</ele>
        <time>2022-06-05T09:42:52.000Z</time>
      </trkpt>
      <trkpt lat="40.928623" lon="0.777519">
        <ele>133.843014</ele>
        <time>2022-06-05T09:42:57.000Z</time>
      </trkpt>
      <trkpt lat="40.928473" lon="0.777266">
        <ele>133.421327</ele>
        <time>2022-06-05T09:43:00.000Z</time>
      </trkpt>
      <trkpt lat="40.928392" lon="0.776942">
        <ele>132.703522</ele>
        <time>2022-06-05T09:43:03.000Z</time>
      </trkpt>
      <trkpt lat="40.928272" lon="0.776313">
        <ele>131.350373</ele>
        <time>2022-06-05T09:43:08.000Z</time>
      </trkpt>
      <trkpt lat="40.928225" lon="0.776052">
        <ele>130.749653</ele>
        <time>2022-06-05T09:43:10.000Z</time>
      </trkpt>
      <trkpt lat="40.928153" lon="0.775728">
        <ele>130.055138</ele>
        <time>2022-06-05T09:43:13.000Z</time>
      </trkpt>
      <trkpt lat="40.927986" lon="0.77484">
        <ele>128.208116</ele>
        <time>2022-06-05T09:43:21.000Z</time>
      </trkpt>
      <trkpt lat="40.927942" lon="0.774638">
        <ele>128.036666</ele>
        <time>2022-06-05T09:43:23.000Z</time>
      </trkpt>
      <trkpt lat="40.927721" lon="0.773576">
        <ele>127.063841</ele>
        <time>2022-06-05T09:43:32.000Z</time>
      </trkpt>
      <trkpt lat="40.92726" lon="0.771201">
        <ele>126.353876</ele>
        <time>2022-06-05T09:43:53.000Z</time>
      </trkpt>
      <trkpt lat="40.927226" lon="0.771054">
        <ele>126.368919</ele>
        <time>2022-06-05T09:43:54.000Z</time>
      </trkpt>
      <trkpt lat="40.927184" lon="0.770947">
        <ele>126.379675</ele>
        <time>2022-06-05T09:43:55.000Z</time>
      </trkpt>
      <trkpt lat="40.927167" lon="0.770874">
        <ele>126.386829</ele>
        <time>2022-06-05T09:43:56.000Z</time>
      </trkpt>
      <trkpt lat="40.927152" lon="0.770839">
        <ele>126.390444</ele>
        <time>2022-06-05T09:43:56.000Z</time>
      </trkpt>
      <trkpt lat="40.926945" lon="0.7705">
        <ele>126.432191</ele>
        <time>2022-06-05T09:44:00.000Z</time>
      </trkpt>
      <trkpt lat="40.926447" lon="0.769889">
        <ele>125.669847</ele>
        <time>2022-06-05T09:44:08.000Z</time>
      </trkpt>
      <trkpt lat="40.926085" lon="0.769427">
        <ele>125.054377</ele>
        <time>2022-06-05T09:44:14.000Z</time>
      </trkpt>
      <trkpt lat="40.92568" lon="0.768959">
        <ele>124.402595</ele>
        <time>2022-06-05T09:44:20.000Z</time>
      </trkpt>
      <trkpt lat="40.924752" lon="0.767784">
        <ele>118.953328</ele>
        <time>2022-06-05T09:44:34.000Z</time>
      </trkpt>
      <trkpt lat="40.924667" lon="0.767705">
        <ele>118.529284</ele>
        <time>2022-06-05T09:44:35.000Z</time>
      </trkpt>
      <trkpt lat="40.924392" lon="0.76758">
        <ele>117.173221</ele>
        <time>2022-06-05T09:44:38.000Z</time>
      </trkpt>
      <trkpt lat="40.923402" lon="0.76776">
        <ele>112.427347</ele>
        <time>2022-06-05T09:44:49.000Z</time>
      </trkpt>
      <trkpt lat="40.923286" lon="0.767773">
        <ele>111.857017</ele>
        <time>2022-06-05T09:44:50.000Z</time>
      </trkpt>
      <trkpt lat="40.9232" lon="0.767698">
        <ele>111.363897</ele>
        <time>2022-06-05T09:44:51.000Z</time>
      </trkpt>
      <trkpt lat="40.922961" lon="0.767106">
        <ele>108.913185</ele>
        <time>2022-06-05T09:44:57.000Z</time>
      </trkpt>
      <trkpt lat="40.922776" lon="0.766256">
        <ele>107.07268</ele>
        <time>2022-06-05T09:45:04.000Z</time>
      </trkpt>
      <trkpt lat="40.922752" lon="0.765821">
        <ele>106.798673</ele>
        <time>2022-06-05T09:45:08.000Z</time>
      </trkpt>
      <trkpt lat="40.922897" lon="0.76548">
        <ele>106.550979</ele>
        <time>2022-06-05T09:45:11.000Z</time>
      </trkpt>
      <trkpt lat="40.923153" lon="0.764896">
        <ele>106.108318</ele>
        <time>2022-06-05T09:45:17.000Z</time>
      </trkpt>
      <trkpt lat="40.923192" lon="0.764793">
        <ele>106.042603</ele>
        <time>2022-06-05T09:45:18.000Z</time>
      </trkpt>
      <trkpt lat="40.923535" lon="0.764079">
        <ele>107.064296</ele>
        <time>2022-06-05T09:45:25.000Z</time>
      </trkpt>
      <trkpt lat="40.923689" lon="0.763875">
        <ele>107.743941</ele>
        <time>2022-06-05T09:45:27.000Z</time>
      </trkpt>
      <trkpt lat="40.923946" lon="0.763742">
        <ele>108.559725</ele>
        <time>2022-06-05T09:45:30.000Z</time>
      </trkpt>
      <trkpt lat="40.924652" lon="0.763666">
        <ele>110.728348</ele>
        <time>2022-06-05T09:45:38.000Z</time>
      </trkpt>
      <trkpt lat="40.924768" lon="0.763555">
        <ele>111.187788</ele>
        <time>2022-06-05T09:45:40.000Z</time>
      </trkpt>
      <trkpt lat="40.924867" lon="0.76337">
        <ele>111.823484</ele>
        <time>2022-06-05T09:45:42.000Z</time>
      </trkpt>
      <trkpt lat="40.924853" lon="0.763033">
        <ele>112.891775</ele>
        <time>2022-06-05T09:45:45.000Z</time>
      </trkpt>
      <trkpt lat="40.9247" lon="0.762818">
        <ele>113.784143</ele>
        <time>2022-06-05T09:45:47.000Z</time>
      </trkpt>
      <trkpt lat="40.924544" lon="0.76276">
        <ele>114.421332</ele>
        <time>2022-06-05T09:45:49.000Z</time>
      </trkpt>
      <trkpt lat="40.923839" lon="0.762652">
        <ele>117.315944</ele>
        <time>2022-06-05T09:45:57.000Z</time>
      </trkpt>
      <trkpt lat="40.923603" lon="0.762603">
        <ele>118.350302</ele>
        <time>2022-06-05T09:46:00.000Z</time>
      </trkpt>
      <trkpt lat="40.923482" lon="0.762575">
        <ele>118.697584</ele>
        <time>2022-06-05T09:46:01.000Z</time>
      </trkpt>
      <trkpt lat="40.923167" lon="0.762406">
        <ele>118.758277</ele>
        <time>2022-06-05T09:46:05.000Z</time>
      </trkpt>
      <trkpt lat="40.923106" lon="0.762371">
        <ele>118.769608</ele>
        <time>2022-06-05T09:46:06.000Z</time>
      </trkpt>
      <trkpt lat="40.923063" lon="0.762322">
        <ele>118.780639</ele>
        <time>2022-06-05T09:46:07.000Z</time>
      </trkpt>
      <trkpt lat="40.920859" lon="0.760423">
        <ele>117.176967</ele>
        <time>2022-06-05T09:46:36.000Z</time>
      </trkpt>
      <trkpt lat="40.919783" lon="0.759494">
        <ele>115.266165</ele>
        <time>2022-06-05T09:46:50.000Z</time>
      </trkpt>
      <trkpt lat="40.918833" lon="0.758637">
        <ele>113.707746</ele>
        <time>2022-06-05T09:47:03.000Z</time>
      </trkpt>
      <trkpt lat="40.918804" lon="0.758627">
        <ele>113.697304</ele>
        <time>2022-06-05T09:47:03.000Z</time>
      </trkpt>
      <trkpt lat="40.918647" lon="0.758731">
        <ele>113.641989</ele>
        <time>2022-06-05T09:47:05.000Z</time>
      </trkpt>
      <trkpt lat="40.918616" lon="0.758796">
        <ele>113.62166</ele>
        <time>2022-06-05T09:47:06.000Z</time>
      </trkpt>
      <trkpt lat="40.918527" lon="0.759071">
        <ele>113.547385</ele>
        <time>2022-06-05T09:47:09.000Z</time>
      </trkpt>
      <trkpt lat="40.918435" lon="0.759345">
        <ele>113.473482</ele>
        <time>2022-06-05T09:47:12.000Z</time>
      </trkpt>
      <trkpt lat="40.918227" lon="0.760096">
        <ele>113.272599</ele>
        <time>2022-06-05T09:47:19.000Z</time>
      </trkpt>
      <trkpt lat="40.918017" lon="0.76106">
        <ele>112.822198</ele>
        <time>2022-06-05T09:47:27.000Z</time>
      </trkpt>
      <trkpt lat="40.917786" lon="0.761547">
        <ele>112.480063</ele>
        <time>2022-06-05T09:47:32.000Z</time>
      </trkpt>
      <trkpt lat="40.917732" lon="0.761626">
        <ele>112.415523</ele>
        <time>2022-06-05T09:47:33.000Z</time>
      </trkpt>
      <trkpt lat="40.917729" lon="0.761649">
        <ele>112.397455</ele>
        <time>2022-06-05T09:47:33.000Z</time>
      </trkpt>
      <trkpt lat="40.916936" lon="0.762375">
        <ele>111.537789</ele>
        <time>2022-06-05T09:47:44.000Z</time>
      </trkpt>
      <trkpt lat="40.916732" lon="0.762557">
        <ele>111.104256</ele>
        <time>2022-06-05T09:47:47.000Z</time>
      </trkpt>
      <trkpt lat="40.916612" lon="0.762673">
        <ele>110.855798</ele>
        <time>2022-06-05T09:47:49.000Z</time>
      </trkpt>
      <trkpt lat="40.916295" lon="0.762974">
        <ele>110.197125</ele>
        <time>2022-06-05T09:47:53.000Z</time>
      </trkpt>
      <trkpt lat="40.916212" lon="0.763069">
        <ele>110.007298</ele>
        <time>2022-06-05T09:47:54.000Z</time>
      </trkpt>
      <trkpt lat="40.91597" lon="0.763324">
        <ele>109.49706</ele>
        <time>2022-06-05T09:47:57.000Z</time>
      </trkpt>
      <trkpt lat="40.914956" lon="0.764156">
        <ele>107.658421</ele>
        <time>2022-06-05T09:48:10.000Z</time>
      </trkpt>
      <trkpt lat="40.91416" lon="0.765037">
        <ele>106.144365</ele>
        <time>2022-06-05T09:48:22.000Z</time>
      </trkpt>
      <trkpt lat="40.91389" lon="0.765372">
        <ele>105.450673</ele>
        <time>2022-06-05T09:48:26.000Z</time>
      </trkpt>
      <trkpt lat="40.913484" lon="0.766235">
        <ele>103.961485</ele>
        <time>2022-06-05T09:48:35.000Z</time>
      </trkpt>
      <trkpt lat="40.913481" lon="0.766276">
        <ele>103.906704</ele>
        <time>2022-06-05T09:48:35.000Z</time>
      </trkpt>
      <trkpt lat="40.913454" lon="0.766319">
        <ele>103.837967</ele>
        <time>2022-06-05T09:48:35.000Z</time>
      </trkpt>
      <trkpt lat="40.913344" lon="0.766569">
        <ele>103.419381</ele>
        <time>2022-06-05T09:48:37.000Z</time>
      </trkpt>
      <trkpt lat="40.913251" lon="0.766732">
        <ele>103.12088</ele>
        <time>2022-06-05T09:48:39.000Z</time>
      </trkpt>
      <trkpt lat="40.913156" lon="0.766881">
        <ele>102.841838</ele>
        <time>2022-06-05T09:48:41.000Z</time>
      </trkpt>
      <trkpt lat="40.910318" lon="0.770849">
        <ele>94.838285</ele>
        <time>2022-06-05T09:49:27.000Z</time>
      </trkpt>
      <trkpt lat="40.910076" lon="0.771131">
        <ele>94.182911</ele>
        <time>2022-06-05T09:49:31.000Z</time>
      </trkpt>
      <trkpt lat="40.908814" lon="0.772263">
        <ele>91.037854</ele>
        <time>2022-06-05T09:49:48.000Z</time>
      </trkpt>
      <trkpt lat="40.908355" lon="0.772664">
        <ele>89.871582</ele>
        <time>2022-06-05T09:49:54.000Z</time>
      </trkpt>
      <trkpt lat="40.908203" lon="0.772807">
        <ele>89.490439</ele>
        <time>2022-06-05T09:49:56.000Z</time>
      </trkpt>
      <trkpt lat="40.908053" lon="0.772948">
        <ele>89.084641</ele>
        <time>2022-06-05T09:49:58.000Z</time>
      </trkpt>
      <trkpt lat="40.907929" lon="0.773022">
        <ele>88.800995</ele>
        <time>2022-06-05T09:50:00.000Z</time>
      </trkpt>
      <trkpt lat="40.907885" lon="0.773062">
        <ele>88.681127</ele>
        <time>2022-06-05T09:50:01.000Z</time>
      </trkpt>
      <trkpt lat="40.907274" lon="0.773453">
        <ele>87.338669</ele>
        <time>2022-06-05T09:50:09.000Z</time>
      </trkpt>
      <trkpt lat="40.906819" lon="0.773842">
        <ele>86.288523</ele>
        <time>2022-06-05T09:50:15.000Z</time>
      </trkpt>
      <trkpt lat="40.906586" lon="0.774074">
        <ele>85.72404</ele>
        <time>2022-06-05T09:50:18.000Z</time>
      </trkpt>
      <trkpt lat="40.905851" lon="0.774756">
        <ele>83.911883</ele>
        <time>2022-06-05T09:50:28.000Z</time>
      </trkpt>
      <trkpt lat="40.905645" lon="0.774954">
        <ele>83.407975</ele>
        <time>2022-06-05T09:50:31.000Z</time>
      </trkpt>
      <trkpt lat="40.904728" lon="0.775837">
        <ele>80.997474</ele>
        <time>2022-06-05T09:50:44.000Z</time>
      </trkpt>
      <trkpt lat="40.904312" lon="0.776341">
        <ele>79.792548</ele>
        <time>2022-06-05T09:50:50.000Z</time>
      </trkpt>
      <trkpt lat="40.903893" lon="0.776856">
        <ele>78.576435</ele>
        <time>2022-06-05T09:50:56.000Z</time>
      </trkpt>
      <trkpt lat="40.90326" lon="0.777672">
        <ele>76.642123</ele>
        <time>2022-06-05T09:51:06.000Z</time>
      </trkpt>
      <trkpt lat="40.902598" lon="0.778492">
        <ele>74.579059</ele>
        <time>2022-06-05T09:51:16.000Z</time>
      </trkpt>
      <trkpt lat="40.902462" lon="0.778651">
        <ele>74.148448</ele>
        <time>2022-06-05T09:51:18.000Z</time>
      </trkpt>
      <trkpt lat="40.90227" lon="0.778911">
        <ele>73.511933</ele>
        <time>2022-06-05T09:51:21.000Z</time>
      </trkpt>
      <trkpt lat="40.901978" lon="0.779278">
        <ele>72.602407</ele>
        <time>2022-06-05T09:51:25.000Z</time>
      </trkpt>
      <trkpt lat="40.901232" lon="0.780085">
        <ele>70.445897</ele>
        <time>2022-06-05T09:51:36.000Z</time>
      </trkpt>
      <trkpt lat="40.900361" lon="0.781432">
        <ele>67.326343</ele>
        <time>2022-06-05T09:51:51.000Z</time>
      </trkpt>
      <trkpt lat="40.899747" lon="0.782139">
        <ele>65.349382</ele>
        <time>2022-06-05T09:52:00.000Z</time>
      </trkpt>
      <trkpt lat="40.899679" lon="0.782213">
        <ele>65.120084</ele>
        <time>2022-06-05T09:52:01.000Z</time>
      </trkpt>
      <trkpt lat="40.899519" lon="0.78234">
        <ele>64.680932</ele>
        <time>2022-06-05T09:52:03.000Z</time>
      </trkpt>
      <trkpt lat="40.898946" lon="0.782876">
        <ele>62.764503</ele>
        <time>2022-06-05T09:52:11.000Z</time>
      </trkpt>
      <trkpt lat="40.898278" lon="0.783712">
        <ele>60.228584</ele>
        <time>2022-06-05T09:52:21.000Z</time>
      </trkpt>
      <trkpt lat="40.898053" lon="0.784053">
        <ele>59.363253</ele>
        <time>2022-06-05T09:52:25.000Z</time>
      </trkpt>
      <trkpt lat="40.897768" lon="0.784657">
        <ele>58.14916</ele>
        <time>2022-06-05T09:52:31.000Z</time>
      </trkpt>
      <trkpt lat="40.897674" lon="0.784856">
        <ele>57.744922</ele>
        <time>2022-06-05T09:52:33.000Z</time>
      </trkpt>
      <trkpt lat="40.897629" lon="0.78499">
        <ele>57.494525</ele>
        <time>2022-06-05T09:52:34.000Z</time>
      </trkpt>
      <trkpt lat="40.896605" lon="0.786978">
        <ele>54.46112</ele>
        <time>2022-06-05T09:52:54.000Z</time>
      </trkpt>
      <trkpt lat="40.896207" lon="0.788099">
        <ele>53.553627</ele>
        <time>2022-06-05T09:53:04.000Z</time>
      </trkpt>
      <trkpt lat="40.896106" lon="0.788331">
        <ele>53.672411</ele>
        <time>2022-06-05T09:53:06.000Z</time>
      </trkpt>
      <trkpt lat="40.896198" lon="0.788106">
        <ele>53.791203</ele>
        <time>2022-06-05T09:53:08.000Z</time>
      </trkpt>
      <trkpt lat="40.896605" lon="0.786992">
        <ele>54.347042</ele>
        <time>2022-06-05T09:53:18.000Z</time>
      </trkpt>
      <trkpt lat="40.897628" lon="0.784991">
        <ele>57.426373</ele>
        <time>2022-06-05T09:53:38.000Z</time>
      </trkpt>
      <trkpt lat="40.897676" lon="0.784858">
        <ele>57.644926</ele>
        <time>2022-06-05T09:53:39.000Z</time>
      </trkpt>
      <trkpt lat="40.897764" lon="0.784659">
        <ele>57.997781</ele>
        <time>2022-06-05T09:53:41.000Z</time>
      </trkpt>
      <trkpt lat="40.898053" lon="0.78404">
        <ele>59.418745</ele>
        <time>2022-06-05T09:53:47.000Z</time>
      </trkpt>
      <trkpt lat="40.898274" lon="0.783702">
        <ele>60.319055</ele>
        <time>2022-06-05T09:53:51.000Z</time>
      </trkpt>
      <trkpt lat="40.89895" lon="0.782858">
        <ele>62.756483</ele>
        <time>2022-06-05T09:54:01.000Z</time>
      </trkpt>
      <trkpt lat="40.89952" lon="0.782339">
        <ele>64.57861</ele>
        <time>2022-06-05T09:54:09.000Z</time>
      </trkpt>
      <trkpt lat="40.899681" lon="0.782217">
        <ele>65.051593</ele>
        <time>2022-06-05T09:54:11.000Z</time>
      </trkpt>
      <trkpt lat="40.899758" lon="0.782143">
        <ele>65.298577</ele>
        <time>2022-06-05T09:54:12.000Z</time>
      </trkpt>
      <trkpt lat="40.900366" lon="0.781431">
        <ele>67.427939</ele>
        <time>2022-06-05T09:54:21.000Z</time>
      </trkpt>
      <trkpt lat="40.901239" lon="0.780089">
        <ele>70.428243</ele>
        <time>2022-06-05T09:54:36.000Z</time>
      </trkpt>
      <trkpt lat="40.901979" lon="0.779264">
        <ele>72.60817</ele>
        <time>2022-06-05T09:54:47.000Z</time>
      </trkpt>
      <trkpt lat="40.90226" lon="0.778896">
        <ele>73.528524</ele>
        <time>2022-06-05T09:54:51.000Z</time>
      </trkpt>
      <trkpt lat="40.902475" lon="0.778644">
        <ele>74.166111</ele>
        <time>2022-06-05T09:54:54.000Z</time>
      </trkpt>
      <trkpt lat="40.902604" lon="0.778475">
        <ele>74.597451</ele>
        <time>2022-06-05T09:54:56.000Z</time>
      </trkpt>
      <trkpt lat="40.903268" lon="0.777663">
        <ele>76.614356</ele>
        <time>2022-06-05T09:55:06.000Z</time>
      </trkpt>
      <trkpt lat="40.90391" lon="0.776862">
        <ele>78.545424</ele>
        <time>2022-06-05T09:55:16.000Z</time>
      </trkpt>
      <trkpt lat="40.904318" lon="0.776344">
        <ele>79.778161</ele>
        <time>2022-06-05T09:55:22.000Z</time>
      </trkpt>
      <trkpt lat="40.904726" lon="0.77585">
        <ele>80.998307</ele>
        <time>2022-06-05T09:55:28.000Z</time>
      </trkpt>
      <trkpt lat="40.905653" lon="0.77494">
        <ele>83.509233</ele>
        <time>2022-06-05T09:55:41.000Z</time>
      </trkpt>
      <trkpt lat="40.905842" lon="0.77477">
        <ele>83.967583</ele>
        <time>2022-06-05T09:55:44.000Z</time>
      </trkpt>
      <trkpt lat="40.906582" lon="0.774069">
        <ele>85.683619</ele>
        <time>2022-06-05T09:55:54.000Z</time>
      </trkpt>
      <trkpt lat="40.90681" lon="0.773851">
        <ele>86.23715</ele>
        <time>2022-06-05T09:55:57.000Z</time>
      </trkpt>
      <trkpt lat="40.907273" lon="0.773466">
        <ele>87.297814</ele>
        <time>2022-06-05T09:56:03.000Z</time>
      </trkpt>
      <trkpt lat="40.907883" lon="0.773068">
        <ele>88.698274</ele>
        <time>2022-06-05T09:56:11.000Z</time>
      </trkpt>
      <trkpt lat="40.907923" lon="0.77304">
        <ele>88.816249</ele>
        <time>2022-06-05T09:56:12.000Z</time>
      </trkpt>
      <trkpt lat="40.908051" lon="0.772934">
        <ele>89.095404</ele>
        <time>2022-06-05T09:56:14.000Z</time>
      </trkpt>
      <trkpt lat="40.908203" lon="0.772801">
        <ele>89.49476</ele>
        <time>2022-06-05T09:56:16.000Z</time>
      </trkpt>
      <trkpt lat="40.908354" lon="0.772659">
        <ele>89.869863</ele>
        <time>2022-06-05T09:56:18.000Z</time>
      </trkpt>
      <trkpt lat="40.908806" lon="0.772253">
        <ele>91.022978</ele>
        <time>2022-06-05T09:56:24.000Z</time>
      </trkpt>
      <trkpt lat="40.910073" lon="0.771134">
        <ele>94.227971</ele>
        <time>2022-06-05T09:56:41.000Z</time>
      </trkpt>
      <trkpt lat="40.910322" lon="0.770849">
        <ele>94.864758</ele>
        <time>2022-06-05T09:56:45.000Z</time>
      </trkpt>
      <trkpt lat="40.913159" lon="0.766876">
        <ele>102.868806</ele>
        <time>2022-06-05T09:57:31.000Z</time>
      </trkpt>
      <trkpt lat="40.913251" lon="0.766726">
        <ele>103.158642</ele>
        <time>2022-06-05T09:57:33.000Z</time>
      </trkpt>
      <trkpt lat="40.913332" lon="0.766569">
        <ele>103.468687</ele>
        <time>2022-06-05T09:57:35.000Z</time>
      </trkpt>
      <trkpt lat="40.913453" lon="0.766322">
        <ele>103.903454</ele>
        <time>2022-06-05T09:57:37.000Z</time>
      </trkpt>
      <trkpt lat="40.913479" lon="0.766278">
        <ele>103.974838</ele>
        <time>2022-06-05T09:57:37.000Z</time>
      </trkpt>
      <trkpt lat="40.913491" lon="0.766236">
        <ele>104.031754</ele>
        <time>2022-06-05T09:57:37.000Z</time>
      </trkpt>
      <trkpt lat="40.913902" lon="0.765372">
        <ele>105.443635</ele>
        <time>2022-06-05T09:57:46.000Z</time>
      </trkpt>
      <trkpt lat="40.914153" lon="0.765035">
        <ele>106.01383</ele>
        <time>2022-06-05T09:57:50.000Z</time>
      </trkpt>
      <trkpt lat="40.914959" lon="0.764152">
        <ele>107.644788</ele>
        <time>2022-06-05T09:58:02.000Z</time>
      </trkpt>
      <trkpt lat="40.915973" lon="0.763318">
        <ele>109.565264</ele>
        <time>2022-06-05T09:58:15.000Z</time>
      </trkpt>
      <trkpt lat="40.916202" lon="0.763066">
        <ele>110.053005</ele>
        <time>2022-06-05T09:58:18.000Z</time>
      </trkpt>
      <trkpt lat="40.916291" lon="0.762979">
        <ele>110.234442</ele>
        <time>2022-06-05T09:58:19.000Z</time>
      </trkpt>
      <trkpt lat="40.916605" lon="0.762675">
        <ele>110.824288</ele>
        <time>2022-06-05T09:58:23.000Z</time>
      </trkpt>
      <trkpt lat="40.916728" lon="0.76255">
        <ele>111.01226</ele>
        <time>2022-06-05T09:58:25.000Z</time>
      </trkpt>
      <trkpt lat="40.916944" lon="0.762361">
        <ele>111.340284</ele>
        <time>2022-06-05T09:58:28.000Z</time>
      </trkpt>
      <trkpt lat="40.917727" lon="0.761653">
        <ele>112.547688</ele>
        <time>2022-06-05T09:58:39.000Z</time>
      </trkpt>
      <trkpt lat="40.91774" lon="0.761628">
        <ele>112.57715</ele>
        <time>2022-06-05T09:58:39.000Z</time>
      </trkpt>
      <trkpt lat="40.917786" lon="0.761551">
        <ele>112.682377</ele>
        <time>2022-06-05T09:58:40.000Z</time>
      </trkpt>
      <trkpt lat="40.918017" lon="0.761048">
        <ele>113.012409</ele>
        <time>2022-06-05T09:58:45.000Z</time>
      </trkpt>
      <trkpt lat="40.918223" lon="0.760091">
        <ele>113.163705</ele>
        <time>2022-06-05T09:58:53.000Z</time>
      </trkpt>
      <trkpt lat="40.918439" lon="0.759337">
        <ele>113.285277</ele>
        <time>2022-06-05T09:59:00.000Z</time>
      </trkpt>
      <trkpt lat="40.918526" lon="0.759071">
        <ele>113.331723</ele>
        <time>2022-06-05T09:59:02.000Z</time>
      </trkpt>
      <trkpt lat="40.918612" lon="0.758787">
        <ele>113.578718</ele>
        <time>2022-06-05T09:59:05.000Z</time>
      </trkpt>
      <trkpt lat="40.918651" lon="0.758722">
        <ele>113.646334</ele>
        <time>2022-06-05T09:59:06.000Z</time>
      </trkpt>
      <trkpt lat="40.918793" lon="0.758635">
        <ele>113.830311</ele>
        <time>2022-06-05T09:59:08.000Z</time>
      </trkpt>
      <trkpt lat="40.918822" lon="0.758643">
        <ele>113.865017</ele>
        <time>2022-06-05T09:59:08.000Z</time>
      </trkpt>
      <trkpt lat="40.919771" lon="0.759495">
        <ele>115.128245</ele>
        <time>2022-06-05T09:59:21.000Z</time>
      </trkpt>
      <trkpt lat="40.920853" lon="0.760434">
        <ele>117.18801</ele>
        <time>2022-06-05T09:59:35.000Z</time>
      </trkpt>
      <trkpt lat="40.923054" lon="0.762323">
        <ele>119.190106</ele>
        <time>2022-06-05T10:00:04.000Z</time>
      </trkpt>
      <trkpt lat="40.923114" lon="0.76237">
        <ele>119.002832</ele>
        <time>2022-06-05T10:00:05.000Z</time>
      </trkpt>
      <trkpt lat="40.923164" lon="0.762412">
        <ele>118.81066</ele>
        <time>2022-06-05T10:00:06.000Z</time>
      </trkpt>
      <trkpt lat="40.923488" lon="0.762589">
        <ele>117.780173</ele>
        <time>2022-06-05T10:00:10.000Z</time>
      </trkpt>
      <trkpt lat="40.923598" lon="0.76261">
        <ele>117.452328</ele>
        <time>2022-06-05T10:00:11.000Z</time>
      </trkpt>
      <trkpt lat="40.923851" lon="0.762659">
        <ele>116.695271</ele>
        <time>2022-06-05T10:00:14.000Z</time>
      </trkpt>
      <trkpt lat="40.924547" lon="0.762751">
        <ele>114.576668</ele>
        <time>2022-06-05T10:00:22.000Z</time>
      </trkpt>
      <trkpt lat="40.924699" lon="0.762816">
        <ele>114.056378</ele>
        <time>2022-06-05T10:00:24.000Z</time>
      </trkpt>
      <trkpt lat="40.924854" lon="0.76303">
        <ele>113.196399</ele>
        <time>2022-06-05T10:00:26.000Z</time>
      </trkpt>
      <trkpt lat="40.92485" lon="0.763376">
        <ele>112.166879</ele>
        <time>2022-06-05T10:00:29.000Z</time>
      </trkpt>
      <trkpt lat="40.924772" lon="0.763568">
        <ele>111.503461</ele>
        <time>2022-06-05T10:00:31.000Z</time>
      </trkpt>
      <trkpt lat="40.924645" lon="0.763672">
        <ele>110.91234</ele>
        <time>2022-06-05T10:00:33.000Z</time>
      </trkpt>
      <trkpt lat="40.92393" lon="0.763727">
        <ele>108.12216</ele>
        <time>2022-06-05T10:00:41.000Z</time>
      </trkpt>
      <trkpt lat="40.923699" lon="0.763867">
        <ele>107.176026</ele>
        <time>2022-06-05T10:00:44.000Z</time>
      </trkpt>
      <trkpt lat="40.923535" lon="0.764096">
        <ele>107.015689</ele>
        <time>2022-06-05T10:00:47.000Z</time>
      </trkpt>
      <trkpt lat="40.923195" lon="0.764793">
        <ele>106.555586</ele>
        <time>2022-06-05T10:00:54.000Z</time>
      </trkpt>
      <trkpt lat="40.923154" lon="0.76488">
        <ele>106.499568</ele>
        <time>2022-06-05T10:00:55.000Z</time>
      </trkpt>
      <trkpt lat="40.922896" lon="0.765475">
        <ele>106.122309</ele>
        <time>2022-06-05T10:01:01.000Z</time>
      </trkpt>
      <trkpt lat="40.922765" lon="0.765833">
        <ele>105.911209</ele>
        <time>2022-06-05T10:01:04.000Z</time>
      </trkpt>
      <trkpt lat="40.922759" lon="0.766254">
        <ele>107.007055</ele>
        <time>2022-06-05T10:01:08.000Z</time>
      </trkpt>
      <trkpt lat="40.922945" lon="0.767105">
        <ele>109.396955</ele>
        <time>2022-06-05T10:01:15.000Z</time>
      </trkpt>
      <trkpt lat="40.923197" lon="0.767707">
        <ele>111.226678</ele>
        <time>2022-06-05T10:01:21.000Z</time>
      </trkpt>
      <trkpt lat="40.923288" lon="0.767773">
        <ele>111.594842</ele>
        <time>2022-06-05T10:01:22.000Z</time>
      </trkpt>
      <trkpt lat="40.923395" lon="0.767772">
        <ele>112.02064</ele>
        <time>2022-06-05T10:01:23.000Z</time>
      </trkpt>
      <trkpt lat="40.924388" lon="0.767587">
        <ele>117.109199</ele>
        <time>2022-06-05T10:01:34.000Z</time>
      </trkpt>
      <trkpt lat="40.92467" lon="0.767698">
        <ele>118.654947</ele>
        <time>2022-06-05T10:01:37.000Z</time>
      </trkpt>
      <trkpt lat="40.924738" lon="0.767781">
        <ele>119.13832</ele>
        <time>2022-06-05T10:01:38.000Z</time>
      </trkpt>
      <trkpt lat="40.925694" lon="0.768959">
        <ele>123.780023</ele>
        <time>2022-06-05T10:01:53.000Z</time>
      </trkpt>
      <trkpt lat="40.92608" lon="0.769434">
        <ele>125.147845</ele>
        <time>2022-06-05T10:01:59.000Z</time>
      </trkpt>
      <trkpt lat="40.926446" lon="0.769884">
        <ele>126.367097</ele>
        <time>2022-06-05T10:02:05.000Z</time>
      </trkpt>
      <trkpt lat="40.926942" lon="0.77051">
        <ele>126.312607</ele>
        <time>2022-06-05T10:02:13.000Z</time>
      </trkpt>
      <trkpt lat="40.927146" lon="0.770849">
        <ele>126.285999</ele>
        <time>2022-06-05T10:02:17.000Z</time>
      </trkpt>
      <trkpt lat="40.927164" lon="0.77087">
        <ele>126.28369</ele>
        <time>2022-06-05T10:02:17.000Z</time>
      </trkpt>
      <trkpt lat="40.927193" lon="0.77094">
        <ele>126.27914</ele>
        <time>2022-06-05T10:02:18.000Z</time>
      </trkpt>
      <trkpt lat="40.927221" lon="0.771052">
        <ele>126.272288</ele>
        <time>2022-06-05T10:02:19.000Z</time>
      </trkpt>
      <trkpt lat="40.927258" lon="0.771206">
        <ele>126.262688</ele>
        <time>2022-06-05T10:02:20.000Z</time>
      </trkpt>
      <trkpt lat="40.927731" lon="0.773581">
        <ele>126.855437</ele>
        <time>2022-06-05T10:02:41.000Z</time>
      </trkpt>
      <trkpt lat="40.927934" lon="0.774651">
        <ele>128.078915</ele>
        <time>2022-06-05T10:02:50.000Z</time>
      </trkpt>
      <trkpt lat="40.927978" lon="0.774833">
        <ele>128.439039</ele>
        <time>2022-06-05T10:02:52.000Z</time>
      </trkpt>
      <trkpt lat="40.928152" lon="0.775728">
        <ele>130.153781</ele>
        <time>2022-06-05T10:03:00.000Z</time>
      </trkpt>
      <trkpt lat="40.928225" lon="0.776045">
        <ele>130.754187</ele>
        <time>2022-06-05T10:03:03.000Z</time>
      </trkpt>
      <trkpt lat="40.928275" lon="0.776312">
        <ele>131.273502</ele>
        <time>2022-06-05T10:03:05.000Z</time>
      </trkpt>
      <trkpt lat="40.928386" lon="0.776938">
        <ele>132.499783</ele>
        <time>2022-06-05T10:03:10.000Z</time>
      </trkpt>
      <trkpt lat="40.928484" lon="0.777251">
        <ele>133.175841</ele>
        <time>2022-06-05T10:03:13.000Z</time>
      </trkpt>
      <trkpt lat="40.928622" lon="0.777517">
        <ele>133.78971</ele>
        <time>2022-06-05T10:03:16.000Z</time>
      </trkpt>
      <trkpt lat="40.928994" lon="0.777767">
        <ele>134.87606</ele>
        <time>2022-06-05T10:03:21.000Z</time>
      </trkpt>
      <trkpt lat="40.929645" lon="0.77803">
        <ele>135.962262</ele>
        <time>2022-06-05T10:03:29.000Z</time>
      </trkpt>
      <trkpt lat="40.929834" lon="0.778005">
        <ele>135.859217</ele>
        <time>2022-06-05T10:03:31.000Z</time>
      </trkpt>
      <trkpt lat="40.930037" lon="0.777897">
        <ele>135.740101</ele>
        <time>2022-06-05T10:03:33.000Z</time>
      </trkpt>
      <trkpt lat="40.930193" lon="0.77794">
        <ele>135.66213</ele>
        <time>2022-06-05T10:03:35.000Z</time>
      </trkpt>
      <trkpt lat="40.930267" lon="0.778088">
        <ele>135.586613</ele>
        <time>2022-06-05T10:03:36.000Z</time>
      </trkpt>
      <trkpt lat="40.930252" lon="0.778241">
        <ele>135.527043</ele>
        <time>2022-06-05T10:03:37.000Z</time>
      </trkpt>
      <trkpt lat="40.930118" lon="0.778645">
        <ele>135.349889</ele>
        <time>2022-06-05T10:03:41.000Z</time>
      </trkpt>
      <trkpt lat="40.929876" lon="0.779027">
        <ele>135.148912</ele>
        <time>2022-06-05T10:03:45.000Z</time>
      </trkpt>
      <trkpt lat="40.929825" lon="0.779117">
        <ele>135.067287</ele>
        <time>2022-06-05T10:03:46.000Z</time>
      </trkpt>
      <trkpt lat="40.929477" lon="0.779847">
        <ele>133.399366</ele>
        <time>2022-06-05T10:03:53.000Z</time>
      </trkpt>
      <trkpt lat="40.929623" lon="0.780433">
        <ele>132.221493</ele>
        <time>2022-06-05T10:03:58.000Z</time>
      </trkpt>
      <trkpt lat="40.929505" lon="0.78104">
        <ele>131.027326</ele>
        <time>2022-06-05T10:04:03.000Z</time>
      </trkpt>
      <trkpt lat="40.929522" lon="0.781208">
        <ele>130.692838</ele>
        <time>2022-06-05T10:04:04.000Z</time>
      </trkpt>
      <trkpt lat="40.929639" lon="0.781361">
        <ele>130.548967</ele>
        <time>2022-06-05T10:04:06.000Z</time>
      </trkpt>
      <trkpt lat="40.930313" lon="0.781725">
        <ele>130.628105</ele>
        <time>2022-06-05T10:04:14.000Z</time>
      </trkpt>
      <trkpt lat="40.930493" lon="0.781898">
        <ele>130.652405</ele>
        <time>2022-06-05T10:04:16.000Z</time>
      </trkpt>
      <trkpt lat="40.931038" lon="0.783012">
        <ele>131.049704</ele>
        <time>2022-06-05T10:04:27.000Z</time>
      </trkpt>
      <trkpt lat="40.931042" lon="0.783027">
        <ele>131.087857</ele>
        <time>2022-06-05T10:04:27.000Z</time>
      </trkpt>
      <trkpt lat="40.93115" lon="0.783226">
        <ele>131.322436</ele>
        <time>2022-06-05T10:04:29.000Z</time>
      </trkpt>
      <trkpt lat="40.931276" lon="0.783704">
        <ele>131.811129</ele>
        <time>2022-06-05T10:04:33.000Z</time>
      </trkpt>
      <trkpt lat="40.931295" lon="0.783829">
        <ele>131.956389</ele>
        <time>2022-06-05T10:04:34.000Z</time>
      </trkpt>
      <trkpt lat="40.931316" lon="0.783981">
        <ele>132.097444</ele>
        <time>2022-06-05T10:04:35.000Z</time>
      </trkpt>
      <trkpt lat="40.931589" lon="0.785591">
        <ele>132.640371</ele>
        <time>2022-06-05T10:04:49.000Z</time>
      </trkpt>
      <trkpt lat="40.931725" lon="0.787296">
        <ele>131.393987</ele>
        <time>2022-06-05T10:05:03.000Z</time>
      </trkpt>
      <trkpt lat="40.931807" lon="0.787715">
        <ele>130.644985</ele>
        <time>2022-06-05T10:05:07.000Z</time>
      </trkpt>
      <trkpt lat="40.931823" lon="0.787806">
        <ele>130.44347</ele>
        <time>2022-06-05T10:05:08.000Z</time>
      </trkpt>
      <trkpt lat="40.932679" lon="0.792428">
        <ele>121.39543</ele>
        <time>2022-06-05T10:05:48.000Z</time>
      </trkpt>
      <trkpt lat="40.933135" lon="0.793658">
        <ele>118.533123</ele>
        <time>2022-06-05T10:06:00.000Z</time>
      </trkpt>
      <trkpt lat="40.9334" lon="0.794727">
        <ele>116.2979</ele>
        <time>2022-06-05T10:06:09.000Z</time>
      </trkpt>
      <trkpt lat="40.933576" lon="0.795441">
        <ele>114.882326</ele>
        <time>2022-06-05T10:06:15.000Z</time>
      </trkpt>
      <trkpt lat="40.933621" lon="0.795605">
        <ele>114.526614</ele>
        <time>2022-06-05T10:06:16.000Z</time>
      </trkpt>
      <trkpt lat="40.933762" lon="0.795792">
        <ele>114.01374</ele>
        <time>2022-06-05T10:06:18.000Z</time>
      </trkpt>
      <trkpt lat="40.934341" lon="0.795675">
        <ele>113.033065</ele>
        <time>2022-06-05T10:06:25.000Z</time>
      </trkpt>
      <trkpt lat="40.934525" lon="0.795784">
        <ele>113.163933</ele>
        <time>2022-06-05T10:06:27.000Z</time>
      </trkpt>
      <trkpt lat="40.934603" lon="0.795989">
        <ele>113.279571</ele>
        <time>2022-06-05T10:06:29.000Z</time>
      </trkpt>
      <trkpt lat="40.934693" lon="0.796516">
        <ele>113.53896</ele>
        <time>2022-06-05T10:06:34.000Z</time>
      </trkpt>
      <trkpt lat="40.934789" lon="0.796733">
        <ele>113.66553</ele>
        <time>2022-06-05T10:06:36.000Z</time>
      </trkpt>
      <trkpt lat="40.934866" lon="0.796838">
        <ele>113.73353</ele>
        <time>2022-06-05T10:06:37.000Z</time>
      </trkpt>
      <trkpt lat="40.934953" lon="0.796904">
        <ele>113.800069</ele>
        <time>2022-06-05T10:06:38.000Z</time>
      </trkpt>
      <trkpt lat="40.935178" lon="0.797104">
        <ele>113.971458</ele>
        <time>2022-06-05T10:06:41.000Z</time>
      </trkpt>
      <trkpt lat="40.936284" lon="0.797708">
        <ele>118.119815</ele>
        <time>2022-06-05T10:06:54.000Z</time>
      </trkpt>
      <trkpt lat="40.937641" lon="0.798579">
        <ele>124.462235</ele>
        <time>2022-06-05T10:07:11.000Z</time>
      </trkpt>
      <trkpt lat="40.937906" lon="0.798814">
        <ele>125.853786</ele>
        <time>2022-06-05T10:07:15.000Z</time>
      </trkpt>
      <trkpt lat="40.938532" lon="0.799625">
        <ele>129.403734</ele>
        <time>2022-06-05T10:07:25.000Z</time>
      </trkpt>
      <trkpt lat="40.938869" lon="0.800262">
        <ele>130.273334</ele>
        <time>2022-06-05T10:07:32.000Z</time>
      </trkpt>
      <trkpt lat="40.938953" lon="0.800461">
        <ele>130.541739</ele>
        <time>2022-06-05T10:07:34.000Z</time>
      </trkpt>
      <trkpt lat="40.93914" lon="0.800841">
        <ele>131.052517</ele>
        <time>2022-06-05T10:07:38.000Z</time>
      </trkpt>
      <trkpt lat="40.939277" lon="0.801098">
        <ele>131.405079</ele>
        <time>2022-06-05T10:07:41.000Z</time>
      </trkpt>
      <trkpt lat="40.939794" lon="0.802239">
        <ele>130.3308</ele>
        <time>2022-06-05T10:07:52.000Z</time>
      </trkpt>
      <trkpt lat="40.939902" lon="0.802843">
        <ele>129.194621</ele>
        <time>2022-06-05T10:07:57.000Z</time>
      </trkpt>
      <trkpt lat="40.940021" lon="0.803902">
        <ele>127.108324</ele>
        <time>2022-06-05T10:08:06.000Z</time>
      </trkpt>
      <trkpt lat="40.94006" lon="0.804562">
        <ele>125.561981</ele>
        <time>2022-06-05T10:08:12.000Z</time>
      </trkpt>
      <trkpt lat="40.940102" lon="0.805348">
        <ele>123.668993</ele>
        <time>2022-06-05T10:08:19.000Z</time>
      </trkpt>
      <trkpt lat="40.940118" lon="0.805613">
        <ele>123.054099</ele>
        <time>2022-06-05T10:08:21.000Z</time>
      </trkpt>
      <trkpt lat="40.940181" lon="0.805788">
        <ele>122.588805</ele>
        <time>2022-06-05T10:08:23.000Z</time>
      </trkpt>
      <trkpt lat="40.940294" lon="0.805751">
        <ele>122.173785</ele>
        <time>2022-06-05T10:08:24.000Z</time>
      </trkpt>
      <trkpt lat="40.940588" lon="0.805544">
        <ele>121.728632</ele>
        <time>2022-06-05T10:08:28.000Z</time>
      </trkpt>
      <trkpt lat="40.940715" lon="0.805566">
        <ele>121.637261</ele>
        <time>2022-06-05T10:08:29.000Z</time>
      </trkpt>
      <trkpt lat="40.940859" lon="0.805821">
        <ele>121.454423</ele>
        <time>2022-06-05T10:08:32.000Z</time>
      </trkpt>
      <trkpt lat="40.94091" lon="0.806164">
        <ele>121.251852</ele>
        <time>2022-06-05T10:08:35.000Z</time>
      </trkpt>
      <trkpt lat="40.941007" lon="0.806439">
        <ele>121.090581</ele>
        <time>2022-06-05T10:08:38.000Z</time>
      </trkpt>
      <trkpt lat="40.942459" lon="0.808141">
        <ele>120.708029</ele>
        <time>2022-06-05T10:09:00.000Z</time>
      </trkpt>
      <trkpt lat="40.942605" lon="0.80864">
        <ele>120.749056</ele>
        <time>2022-06-05T10:09:04.000Z</time>
      </trkpt>
      <trkpt lat="40.942744" lon="0.810204">
        <ele>120.022059</ele>
        <time>2022-06-05T10:09:17.000Z</time>
      </trkpt>
      <trkpt lat="40.942687" lon="0.814711">
        <ele>116.909681</ele>
        <time>2022-06-05T10:09:55.000Z</time>
      </trkpt>
      <trkpt lat="40.9427" lon="0.815425">
        <ele>116.648581</ele>
        <time>2022-06-05T10:10:01.000Z</time>
      </trkpt>
      <trkpt lat="40.942694" lon="0.81472">
        <ele>116.568956</ele>
        <time>2022-06-05T10:10:07.000Z</time>
      </trkpt>
      <trkpt lat="40.942733" lon="0.810209">
        <ele>120.200615</ele>
        <time>2022-06-05T10:10:45.000Z</time>
      </trkpt>
      <trkpt lat="40.942615" lon="0.808649">
        <ele>120.601999</ele>
        <time>2022-06-05T10:10:58.000Z</time>
      </trkpt>
      <trkpt lat="40.942458" lon="0.808149">
        <ele>120.716966</ele>
        <time>2022-06-05T10:11:03.000Z</time>
      </trkpt>
      <trkpt lat="40.941011" lon="0.806427">
        <ele>120.653535</ele>
        <time>2022-06-05T10:11:25.000Z</time>
      </trkpt>
      <trkpt lat="40.940913" lon="0.806165">
        <ele>120.805901</ele>
        <time>2022-06-05T10:11:27.000Z</time>
      </trkpt>
      <trkpt lat="40.940857" lon="0.805808">
        <ele>121.346465</ele>
        <time>2022-06-05T10:11:30.000Z</time>
      </trkpt>
      <trkpt lat="40.940712" lon="0.805554">
        <ele>121.834368</ele>
        <time>2022-06-05T10:11:33.000Z</time>
      </trkpt>
      <trkpt lat="40.94059" lon="0.805527">
        <ele>122.078169</ele>
        <time>2022-06-05T10:11:34.000Z</time>
      </trkpt>
      <trkpt lat="40.940294" lon="0.805758">
        <ele>122.717371</ele>
        <time>2022-06-05T10:11:38.000Z</time>
      </trkpt>
      <trkpt lat="40.940177" lon="0.805782">
        <ele>122.976337</ele>
        <time>2022-06-05T10:11:39.000Z</time>
      </trkpt>
      <trkpt lat="40.940117" lon="0.805608">
        <ele>123.266659</ele>
        <time>2022-06-05T10:11:41.000Z</time>
      </trkpt>
      <trkpt lat="40.940101" lon="0.805344">
        <ele>123.650332</ele>
        <time>2022-06-05T10:11:43.000Z</time>
      </trkpt>
      <trkpt lat="40.940052" lon="0.804553">
        <ele>125.302083</ele>
        <time>2022-06-05T10:11:50.000Z</time>
      </trkpt>
      <trkpt lat="40.940013" lon="0.803912">
        <ele>126.958553</ele>
        <time>2022-06-05T10:11:55.000Z</time>
      </trkpt>
      <trkpt lat="40.939895" lon="0.802828">
        <ele>129.716933</ele>
        <time>2022-06-05T10:12:04.000Z</time>
      </trkpt>
      <trkpt lat="40.939782" lon="0.802228">
        <ele>130.485346</ele>
        <time>2022-06-05T10:12:09.000Z</time>
      </trkpt>
      <trkpt lat="40.939274" lon="0.801089">
        <ele>131.266426</ele>
        <time>2022-06-05T10:12:20.000Z</time>
      </trkpt>
      <trkpt lat="40.939138" lon="0.800835">
        <ele>131.449624</ele>
        <time>2022-06-05T10:12:23.000Z</time>
      </trkpt>
      <trkpt lat="40.938961" lon="0.800458">
        <ele>131.343955</ele>
        <time>2022-06-05T10:12:27.000Z</time>
      </trkpt>
      <trkpt lat="40.938866" lon="0.800261">
        <ele>130.764332</ele>
        <time>2022-06-05T10:12:29.000Z</time>
      </trkpt>
      <trkpt lat="40.938543" lon="0.799629">
        <ele>128.88631</ele>
        <time>2022-06-05T10:12:35.000Z</time>
      </trkpt>
      <trkpt lat="40.937904" lon="0.798813">
        <ele>126.030905</ele>
        <time>2022-06-05T10:12:45.000Z</time>
      </trkpt>
      <trkpt lat="40.937653" lon="0.798574">
        <ele>124.682236</ele>
        <time>2022-06-05T10:12:48.000Z</time>
      </trkpt>
      <trkpt lat="40.93629" lon="0.797713">
        <ele>117.759557</ele>
        <time>2022-06-05T10:13:05.000Z</time>
      </trkpt>
      <trkpt lat="40.935176" lon="0.797105">
        <ele>114.346351</ele>
        <time>2022-06-05T10:13:18.000Z</time>
      </trkpt>
      <trkpt lat="40.934947" lon="0.796909">
        <ele>113.598903</ele>
        <time>2022-06-05T10:13:21.000Z</time>
      </trkpt>
      <trkpt lat="40.93487" lon="0.796833">
        <ele>113.308714</ele>
        <time>2022-06-05T10:13:22.000Z</time>
      </trkpt>
      <trkpt lat="40.934799" lon="0.796741">
        <ele>113.012111</ele>
        <time>2022-06-05T10:13:23.000Z</time>
      </trkpt>
      <trkpt lat="40.93469" lon="0.796515">
        <ele>112.588346</ele>
        <time>2022-06-05T10:13:25.000Z</time>
      </trkpt>
      <trkpt lat="40.934598" lon="0.795985">
        <ele>113.067868</ele>
        <time>2022-06-05T10:13:30.000Z</time>
      </trkpt>
      <trkpt lat="40.934524" lon="0.795777">
        <ele>113.281621</ele>
        <time>2022-06-05T10:13:32.000Z</time>
      </trkpt>
      <trkpt lat="40.934327" lon="0.795679">
        <ele>113.523536</ele>
        <time>2022-06-05T10:13:34.000Z</time>
      </trkpt>
      <trkpt lat="40.933759" lon="0.795802">
        <ele>114.203857</ele>
        <time>2022-06-05T10:13:40.000Z</time>
      </trkpt>
      <trkpt lat="40.933628" lon="0.795617">
        <ele>114.444082</ele>
        <time>2022-06-05T10:13:42.000Z</time>
      </trkpt>
      <trkpt lat="40.933578" lon="0.795438">
        <ele>114.610692</ele>
        <time>2022-06-05T10:13:44.000Z</time>
      </trkpt>
      <trkpt lat="40.933409" lon="0.794733">
        <ele>116.132331</ele>
        <time>2022-06-05T10:13:50.000Z</time>
      </trkpt>
      <trkpt lat="40.933149" lon="0.793665">
        <ele>118.585834</ele>
        <time>2022-06-05T10:13:59.000Z</time>
      </trkpt>
      <trkpt lat="40.932682" lon="0.79243">
        <ele>121.408527</ele>
        <time>2022-06-05T10:14:11.000Z</time>
      </trkpt>
      <trkpt lat="40.93183" lon="0.787813">
        <ele>130.318535</ele>
        <time>2022-06-05T10:14:51.000Z</time>
      </trkpt>
      <trkpt lat="40.931816" lon="0.787697">
        <ele>130.487959</ele>
        <time>2022-06-05T10:14:52.000Z</time>
      </trkpt>
      <trkpt lat="40.931742" lon="0.787297">
        <ele>131.1364</ele>
        <time>2022-06-05T10:14:55.000Z</time>
      </trkpt>
      <trkpt lat="40.9316" lon="0.785576">
        <ele>132.631151</ele>
        <time>2022-06-05T10:15:10.000Z</time>
      </trkpt>
      <trkpt lat="40.93132" lon="0.783971">
        <ele>132.230487</ele>
        <time>2022-06-05T10:15:24.000Z</time>
      </trkpt>
      <trkpt lat="40.931299" lon="0.783832">
        <ele>132.155093</ele>
        <time>2022-06-05T10:15:25.000Z</time>
      </trkpt>
      <trkpt lat="40.931265" lon="0.7837">
        <ele>132.01508</ele>
        <time>2022-06-05T10:15:26.000Z</time>
      </trkpt>
      <trkpt lat="40.931147" lon="0.783229">
        <ele>131.544003</ele>
        <time>2022-06-05T10:15:30.000Z</time>
      </trkpt>
      <trkpt lat="40.931044" lon="0.783035">
        <ele>131.317885</ele>
        <time>2022-06-05T10:15:32.000Z</time>
      </trkpt>
      <trkpt lat="40.931031" lon="0.783008">
        <ele>131.281127</ele>
        <time>2022-06-05T10:15:32.000Z</time>
      </trkpt>
      <trkpt lat="40.93049" lon="0.781902">
        <ele>130.022754</ele>
        <time>2022-06-05T10:15:43.000Z</time>
      </trkpt>
      <trkpt lat="40.930299" lon="0.781724">
        <ele>130.134805</ele>
        <time>2022-06-05T10:15:46.000Z</time>
      </trkpt>
      <trkpt lat="40.92965" lon="0.781349">
        <ele>131.144783</ele>
        <time>2022-06-05T10:15:54.000Z</time>
      </trkpt>
      <trkpt lat="40.929519" lon="0.781197">
        <ele>131.376756</ele>
        <time>2022-06-05T10:15:56.000Z</time>
      </trkpt>
      <trkpt lat="40.929512" lon="0.781042">
        <ele>131.561155</ele>
        <time>2022-06-05T10:15:57.000Z</time>
      </trkpt>
      <trkpt lat="40.929622" lon="0.780423">
        <ele>132.219548</ele>
        <time>2022-06-05T10:16:02.000Z</time>
      </trkpt>
      <trkpt lat="40.92948" lon="0.77984">
        <ele>133.11433</ele>
        <time>2022-06-05T10:16:07.000Z</time>
      </trkpt>
      <trkpt lat="40.929833" lon="0.779123">
        <ele>134.574412</ele>
        <time>2022-06-05T10:16:14.000Z</time>
      </trkpt>
      <trkpt lat="40.929874" lon="0.779025">
        <ele>134.763713</ele>
        <time>2022-06-05T10:16:15.000Z</time>
      </trkpt>
      <trkpt lat="40.930112" lon="0.778633">
        <ele>135.60419</ele>
        <time>2022-06-05T10:16:19.000Z</time>
      </trkpt>
      <trkpt lat="40.930263" lon="0.778247">
        <ele>136.345033</ele>
        <time>2022-06-05T10:16:23.000Z</time>
      </trkpt>
      <trkpt lat="40.930256" lon="0.778098">
        <ele>136.382266</ele>
        <time>2022-06-05T10:16:24.000Z</time>
      </trkpt>
      <trkpt lat="40.930189" lon="0.777939">
        <ele>136.209998</ele>
        <time>2022-06-05T10:16:26.000Z</time>
      </trkpt>
      <trkpt lat="40.930048" lon="0.77791">
        <ele>136.032169</ele>
        <time>2022-06-05T10:16:28.000Z</time>
      </trkpt>
      <trkpt lat="40.929839" lon="0.778003">
        <ele>135.760437</ele>
        <time>2022-06-05T10:16:30.000Z</time>
      </trkpt>
      <trkpt lat="40.929635" lon="0.778022">
        <ele>135.525422</ele>
        <time>2022-06-05T10:16:32.000Z</time>
      </trkpt>
      <trkpt lat="40.928997" lon="0.777768">
        <ele>134.714099</ele>
        <time>2022-06-05T10:16:39.000Z</time>
      </trkpt>
      <trkpt lat="40.92862" lon="0.777501">
        <ele>134.105896</ele>
        <time>2022-06-05T10:16:44.000Z</time>
      </trkpt>
      <trkpt lat="40.928477" lon="0.777255">
        <ele>133.418645</ele>
        <time>2022-06-05T10:16:47.000Z</time>
      </trkpt>
      <trkpt lat="40.928381" lon="0.776932">
        <ele>132.661751</ele>
        <time>2022-06-05T10:16:50.000Z</time>
      </trkpt>
      <trkpt lat="40.928274" lon="0.776317">
        <ele>131.278786</ele>
        <time>2022-06-05T10:16:55.000Z</time>
      </trkpt>
      <trkpt lat="40.928216" lon="0.776054">
        <ele>130.66483</ele>
        <time>2022-06-05T10:16:57.000Z</time>
      </trkpt>
      <trkpt lat="40.928153" lon="0.775735">
        <ele>129.955007</ele>
        <time>2022-06-05T10:17:00.000Z</time>
      </trkpt>
      <trkpt lat="40.92798" lon="0.774841">
        <ele>128.465218</ele>
        <time>2022-06-05T10:17:08.000Z</time>
      </trkpt>
      <trkpt lat="40.927943" lon="0.774648">
        <ele>128.237911</ele>
        <time>2022-06-05T10:17:10.000Z</time>
      </trkpt>
      <trkpt lat="40.927738" lon="0.773572">
        <ele>126.948177</ele>
        <time>2022-06-05T10:17:19.000Z</time>
      </trkpt>
      <trkpt lat="40.927254" lon="0.771205">
        <ele>126.363204</ele>
        <time>2022-06-05T10:17:40.000Z</time>
      </trkpt>
      <trkpt lat="40.927213" lon="0.771043">
        <ele>126.367686</ele>
        <time>2022-06-05T10:17:41.000Z</time>
      </trkpt>
      <trkpt lat="40.927181" lon="0.770939">
        <ele>126.370909</ele>
        <time>2022-06-05T10:17:42.000Z</time>
      </trkpt>
      <trkpt lat="40.927162" lon="0.770874">
        <ele>126.373048</ele>
        <time>2022-06-05T10:17:43.000Z</time>
      </trkpt>
      <trkpt lat="40.927137" lon="0.770849">
        <ele>126.374111</ele>
        <time>2022-06-05T10:17:43.000Z</time>
      </trkpt>
      <trkpt lat="40.92694" lon="0.770511">
        <ele>126.193424</ele>
        <time>2022-06-05T10:17:47.000Z</time>
      </trkpt>
      <trkpt lat="40.926441" lon="0.769891">
        <ele>125.72005</ele>
        <time>2022-06-05T10:17:55.000Z</time>
      </trkpt>
      <trkpt lat="40.926076" lon="0.769426">
        <ele>125.371209</ele>
        <time>2022-06-05T10:18:01.000Z</time>
      </trkpt>
      <trkpt lat="40.925679" lon="0.768959">
        <ele>124.391988</ele>
        <time>2022-06-05T10:18:07.000Z</time>
      </trkpt>
      <trkpt lat="40.924738" lon="0.767779">
        <ele>119.075079</ele>
        <time>2022-06-05T10:18:21.000Z</time>
      </trkpt>
      <trkpt lat="40.924671" lon="0.767704">
        <ele>118.694028</ele>
        <time>2022-06-05T10:18:22.000Z</time>
      </trkpt>
      <trkpt lat="40.924401" lon="0.767587">
        <ele>117.41605</ele>
        <time>2022-06-05T10:18:25.000Z</time>
      </trkpt>
      <trkpt lat="40.923406" lon="0.767761">
        <ele>112.266363</ele>
        <time>2022-06-05T10:18:36.000Z</time>
      </trkpt>
      <trkpt lat="40.923282" lon="0.767776">
        <ele>111.654437</ele>
        <time>2022-06-05T10:18:37.000Z</time>
      </trkpt>
      <trkpt lat="40.923185" lon="0.767707">
        <ele>111.125364</ele>
        <time>2022-06-05T10:18:38.000Z</time>
      </trkpt>
      <trkpt lat="40.922954" lon="0.767098">
        <ele>108.495938</ele>
        <time>2022-06-05T10:18:44.000Z</time>
      </trkpt>
      <trkpt lat="40.922766" lon="0.766246">
        <ele>107.38516</ele>
        <time>2022-06-05T10:18:51.000Z</time>
      </trkpt>
      <trkpt lat="40.922754" lon="0.765831">
        <ele>106.856919</ele>
        <time>2022-06-05T10:18:54.000Z</time>
      </trkpt>
      <trkpt lat="40.922887" lon="0.765486">
        <ele>106.379436</ele>
        <time>2022-06-05T10:18:57.000Z</time>
      </trkpt>
      <trkpt lat="40.923159" lon="0.764889">
        <ele>105.534575</ele>
        <time>2022-06-05T10:19:03.000Z</time>
      </trkpt>
      <trkpt lat="40.923192" lon="0.764806">
        <ele>105.727331</ele>
        <time>2022-06-05T10:19:04.000Z</time>
      </trkpt>
      <trkpt lat="40.923549" lon="0.764079">
        <ele>107.310668</ele>
        <time>2022-06-05T10:19:11.000Z</time>
      </trkpt>
      <trkpt lat="40.923696" lon="0.763867">
        <ele>107.86241</ele>
        <time>2022-06-05T10:19:13.000Z</time>
      </trkpt>
      <trkpt lat="40.923945" lon="0.763736">
        <ele>108.524679</ele>
        <time>2022-06-05T10:19:16.000Z</time>
      </trkpt>
      <trkpt lat="40.92464" lon="0.763662">
        <ele>110.497196</ele>
        <time>2022-06-05T10:19:24.000Z</time>
      </trkpt>
      <trkpt lat="40.924769" lon="0.763557">
        <ele>111.145007</ele>
        <time>2022-06-05T10:19:26.000Z</time>
      </trkpt>
      <trkpt lat="40.924868" lon="0.763368">
        <ele>111.872072</ele>
        <time>2022-06-05T10:19:28.000Z</time>
      </trkpt>
      <trkpt lat="40.924862" lon="0.763023">
        <ele>113.000312</ele>
        <time>2022-06-05T10:19:31.000Z</time>
      </trkpt>
      <trkpt lat="40.9247" lon="0.762824">
        <ele>113.942783</ele>
        <time>2022-06-05T10:19:33.000Z</time>
      </trkpt>
      <trkpt lat="40.92454" lon="0.762751">
        <ele>114.615742</ele>
        <time>2022-06-05T10:19:35.000Z</time>
      </trkpt>
      <trkpt lat="40.923836" lon="0.762649">
        <ele>117.672817</ele>
        <time>2022-06-05T10:19:43.000Z</time>
      </trkpt>
      <trkpt lat="40.92359" lon="0.762607">
        <ele>117.964445</ele>
        <time>2022-06-05T10:19:46.000Z</time>
      </trkpt>
      <trkpt lat="40.92348" lon="0.762587">
        <ele>118.061419</ele>
        <time>2022-06-05T10:19:47.000Z</time>
      </trkpt>
      <trkpt lat="40.923164" lon="0.762422">
        <ele>118.366257</ele>
        <time>2022-06-05T10:19:51.000Z</time>
      </trkpt>
      <trkpt lat="40.923108" lon="0.762375">
        <ele>118.423093</ele>
        <time>2022-06-05T10:19:52.000Z</time>
      </trkpt>
      <trkpt lat="40.923065" lon="0.762328">
        <ele>118.478496</ele>
        <time>2022-06-05T10:19:53.000Z</time>
      </trkpt>
      <trkpt lat="40.92086" lon="0.760428">
        <ele>117.287984</ele>
        <time>2022-06-05T10:20:22.000Z</time>
      </trkpt>
      <trkpt lat="40.919784" lon="0.759494">
        <ele>115.189792</ele>
        <time>2022-06-05T10:20:36.000Z</time>
      </trkpt>
      <trkpt lat="40.91882" lon="0.758635">
        <ele>113.836242</ele>
        <time>2022-06-05T10:20:49.000Z</time>
      </trkpt>
      <trkpt lat="40.918803" lon="0.758619">
        <ele>113.82065</ele>
        <time>2022-06-05T10:20:49.000Z</time>
      </trkpt>
      <trkpt lat="40.91865" lon="0.758719">
        <ele>113.738027</ele>
        <time>2022-06-05T10:20:51.000Z</time>
      </trkpt>
      <trkpt lat="40.918616" lon="0.758789">
        <ele>113.70767</ele>
        <time>2022-06-05T10:20:52.000Z</time>
      </trkpt>
      <trkpt lat="40.91852" lon="0.759072">
        <ele>113.596736</ele>
        <time>2022-06-05T10:20:55.000Z</time>
      </trkpt>
      <trkpt lat="40.918448" lon="0.759339">
        <ele>113.486339</ele>
        <time>2022-06-05T10:20:57.000Z</time>
      </trkpt>
      <trkpt lat="40.918227" lon="0.760086">
        <ele>113.186163</ele>
        <time>2022-06-05T10:21:04.000Z</time>
      </trkpt>
      <trkpt lat="40.91801" lon="0.761053">
        <ele>112.775664</ele>
        <time>2022-06-05T10:21:12.000Z</time>
      </trkpt>
      <trkpt lat="40.917789" lon="0.761549">
        <ele>112.538747</ele>
        <time>2022-06-05T10:21:17.000Z</time>
      </trkpt>
      <trkpt lat="40.91774" lon="0.761637">
        <ele>112.494062</ele>
        <time>2022-06-05T10:21:18.000Z</time>
      </trkpt>
      <trkpt lat="40.917715" lon="0.761665">
        <ele>112.481549</ele>
        <time>2022-06-05T10:21:18.000Z</time>
      </trkpt>
      <trkpt lat="40.916951" lon="0.762376">
        <ele>111.470545</ele>
        <time>2022-06-05T10:21:28.000Z</time>
      </trkpt>
      <trkpt lat="40.916735" lon="0.762563">
        <ele>111.046254</ele>
        <time>2022-06-05T10:21:31.000Z</time>
      </trkpt>
      <trkpt lat="40.916611" lon="0.762675">
        <ele>110.803097</ele>
        <time>2022-06-05T10:21:33.000Z</time>
      </trkpt>
      <trkpt lat="40.91629" lon="0.762988">
        <ele>110.158436</ele>
        <time>2022-06-05T10:21:37.000Z</time>
      </trkpt>
      <trkpt lat="40.9162" lon="0.763064">
        <ele>109.972655</ele>
        <time>2022-06-05T10:21:38.000Z</time>
      </trkpt>
      <trkpt lat="40.915963" lon="0.763314">
        <ele>109.473287</ele>
        <time>2022-06-05T10:21:41.000Z</time>
      </trkpt>
      <trkpt lat="40.914957" lon="0.764143">
        <ele>107.69855</ele>
        <time>2022-06-05T10:21:54.000Z</time>
      </trkpt>
      <trkpt lat="40.914149" lon="0.765037">
        <ele>106.05635</ele>
        <time>2022-06-05T10:22:06.000Z</time>
      </trkpt>
      <trkpt lat="40.913902" lon="0.765379">
        <ele>105.384559</ele>
        <time>2022-06-05T10:22:10.000Z</time>
      </trkpt>
      <trkpt lat="40.913496" lon="0.766251">
        <ele>103.961135</ele>
        <time>2022-06-05T10:22:19.000Z</time>
      </trkpt>
      <trkpt lat="40.913467" lon="0.766272">
        <ele>103.908775</ele>
        <time>2022-06-05T10:22:19.000Z</time>
      </trkpt>
      <trkpt lat="40.913459" lon="0.766324">
        <ele>103.843064</ele>
        <time>2022-06-05T10:22:19.000Z</time>
      </trkpt>
      <trkpt lat="40.913333" lon="0.766558">
        <ele>103.442973</ele>
        <time>2022-06-05T10:22:21.000Z</time>
      </trkpt>
      <trkpt lat="40.913255" lon="0.766723">
        <ele>103.149349</ele>
        <time>2022-06-05T10:22:23.000Z</time>
      </trkpt>
      <trkpt lat="40.913147" lon="0.766874">
        <ele>102.86649</ele>
        <time>2022-06-05T10:22:25.000Z</time>
      </trkpt>
      <trkpt lat="40.910316" lon="0.770852">
        <ele>94.824156</ele>
        <time>2022-06-05T10:23:11.000Z</time>
      </trkpt>
      <trkpt lat="40.910063" lon="0.771123">
        <ele>94.181634</ele>
        <time>2022-06-05T10:23:15.000Z</time>
      </trkpt>
      <trkpt lat="40.908811" lon="0.772255">
        <ele>91.037021</ele>
        <time>2022-06-05T10:23:32.000Z</time>
      </trkpt>
      <trkpt lat="40.908364" lon="0.772674">
        <ele>89.864428</ele>
        <time>2022-06-05T10:23:38.000Z</time>
      </trkpt>
      <trkpt lat="40.908207" lon="0.772799">
        <ele>89.481229</ele>
        <time>2022-06-05T10:23:40.000Z</time>
      </trkpt>
      <trkpt lat="40.908039" lon="0.772942">
        <ele>89.073225</ele>
        <time>2022-06-05T10:23:42.000Z</time>
      </trkpt>
      <trkpt lat="40.907922" lon="0.773027">
        <ele>88.797095</ele>
        <time>2022-06-05T10:23:43.000Z</time>
      </trkpt>
      <trkpt lat="40.907882" lon="0.773063">
        <ele>88.684819</ele>
        <time>2022-06-05T10:23:44.000Z</time>
      </trkpt>
      <trkpt lat="40.90727" lon="0.773453">
        <ele>87.351996</ele>
        <time>2022-06-05T10:23:52.000Z</time>
      </trkpt>
      <trkpt lat="40.906815" lon="0.773848">
        <ele>86.282654</ele>
        <time>2022-06-05T10:23:58.000Z</time>
      </trkpt>
      <trkpt lat="40.906583" lon="0.774063">
        <ele>85.707853</ele>
        <time>2022-06-05T10:24:01.000Z</time>
      </trkpt>
      <trkpt lat="40.905853" lon="0.774758">
        <ele>83.889702</ele>
        <time>2022-06-05T10:24:11.000Z</time>
      </trkpt>
      <trkpt lat="40.90566" lon="0.774947">
        <ele>83.401788</ele>
        <time>2022-06-05T10:24:14.000Z</time>
      </trkpt>
      <trkpt lat="40.904719" lon="0.775837">
        <ele>81.022085</ele>
        <time>2022-06-05T10:24:27.000Z</time>
      </trkpt>
      <trkpt lat="40.904305" lon="0.776338">
        <ele>79.808519</ele>
        <time>2022-06-05T10:24:33.000Z</time>
      </trkpt>
      <trkpt lat="40.903902" lon="0.776865">
        <ele>78.583714</ele>
        <time>2022-06-05T10:24:39.000Z</time>
      </trkpt>
      <trkpt lat="40.903268" lon="0.777663">
        <ele>76.613744</ele>
        <time>2022-06-05T10:24:49.000Z</time>
      </trkpt>
      <trkpt lat="40.902611" lon="0.778482">
        <ele>74.574065</ele>
        <time>2022-06-05T10:24:59.000Z</time>
      </trkpt>
      <trkpt lat="40.90247" lon="0.778662">
        <ele>74.148344</ele>
        <time>2022-06-05T10:25:01.000Z</time>
      </trkpt>
      <trkpt lat="40.902261" lon="0.778908">
        <ele>73.519795</ele>
        <time>2022-06-05T10:25:04.000Z</time>
      </trkpt>
      <trkpt lat="40.901982" lon="0.779279">
        <ele>72.614451</ele>
        <time>2022-06-05T10:25:08.000Z</time>
      </trkpt>
      <trkpt lat="40.901232" lon="0.780093">
        <ele>70.44088</ele>
        <time>2022-06-05T10:25:19.000Z</time>
      </trkpt>
      <trkpt lat="40.900368" lon="0.781428">
        <ele>67.334799</ele>
        <time>2022-06-05T10:25:34.000Z</time>
      </trkpt>
      <trkpt lat="40.899756" lon="0.782136">
        <ele>65.413222</ele>
        <time>2022-06-05T10:25:43.000Z</time>
      </trkpt>
      <trkpt lat="40.899676" lon="0.782207">
        <ele>65.153058</ele>
        <time>2022-06-05T10:25:44.000Z</time>
      </trkpt>
      <trkpt lat="40.899529" lon="0.78234">
        <ele>64.654799</ele>
        <time>2022-06-05T10:25:46.000Z</time>
      </trkpt>
      <trkpt lat="40.898946" lon="0.782869">
        <ele>62.736254</ele>
        <time>2022-06-05T10:25:54.000Z</time>
      </trkpt>
      <trkpt lat="40.898286" lon="0.783714">
        <ele>60.2479</ele>
        <time>2022-06-05T10:26:04.000Z</time>
      </trkpt>
      <trkpt lat="40.898049" lon="0.784044">
        <ele>59.432992</ele>
        <time>2022-06-05T10:26:08.000Z</time>
      </trkpt>
      <trkpt lat="40.897765" lon="0.78465">
        <ele>58.130071</ele>
        <time>2022-06-05T10:26:14.000Z</time>
      </trkpt>
      <trkpt lat="40.897672" lon="0.784855">
        <ele>57.696252</ele>
        <time>2022-06-05T10:26:16.000Z</time>
      </trkpt>
      <trkpt lat="40.897614" lon="0.784993">
        <ele>57.427535</ele>
        <time>2022-06-05T10:26:17.000Z</time>
      </trkpt>
      <trkpt lat="40.896605" lon="0.786988">
        <ele>53.721879</ele>
        <time>2022-06-05T10:26:37.000Z</time>
      </trkpt>
      <trkpt lat="40.896203" lon="0.788104">
        <ele>51.959321</ele>
        <time>2022-06-05T10:26:47.000Z</time>
      </trkpt>
      <trkpt lat="40.896113" lon="0.788328">
        <ele>51.587678</ele>
        <time>2022-06-05T10:26:49.000Z</time>
      </trkpt>
      <trkpt lat="40.89602" lon="0.788511">
        <ele>51.288947</ele>
        <time>2022-06-05T10:26:51.000Z</time>
      </trkpt>
      <trkpt lat="40.895809" lon="0.788797">
        <ele>50.732329</ele>
        <time>2022-06-05T10:26:54.000Z</time>
      </trkpt>
      <trkpt lat="40.895778" lon="0.788813">
        <ele>50.663897</ele>
        <time>2022-06-05T10:26:54.000Z</time>
      </trkpt>
      <trkpt lat="40.895719" lon="0.788824">
        <ele>50.579248</ele>
        <time>2022-06-05T10:26:55.000Z</time>
      </trkpt>
      <trkpt lat="40.895682" lon="0.788871">
        <ele>50.479474</ele>
        <time>2022-06-05T10:26:56.000Z</time>
      </trkpt>
      <trkpt lat="40.895649" lon="0.788904">
        <ele>50.412228</ele>
        <time>2022-06-05T10:26:56.000Z</time>
      </trkpt>
      <trkpt lat="40.895651" lon="0.788935">
        <ele>50.366716</ele>
        <time>2022-06-05T10:26:56.000Z</time>
      </trkpt>
      <trkpt lat="40.895651" lon="0.788969">
        <ele>50.295196</ele>
        <time>2022-06-05T10:26:56.000Z</time>
      </trkpt>
      <trkpt lat="40.895659" lon="0.789026">
        <ele>50.219239</ele>
        <time>2022-06-05T10:26:56.000Z</time>
      </trkpt>
      <trkpt lat="40.89567" lon="0.789084">
        <ele>50.147953</ele>
        <time>2022-06-05T10:26:57.000Z</time>
      </trkpt>
      <trkpt lat="40.895594" lon="0.789309">
        <ele>49.811381</ele>
        <time>2022-06-05T10:26:59.000Z</time>
      </trkpt>
      <trkpt lat="40.895569" lon="0.789357">
        <ele>49.713672</ele>
        <time>2022-06-05T10:26:59.000Z</time>
      </trkpt>
      <trkpt lat="40.895394" lon="0.789597">
        <ele>49.171604</ele>
        <time>2022-06-05T10:27:02.000Z</time>
      </trkpt>
      <trkpt lat="40.89522" lon="0.789831">
        <ele>48.495055</ele>
        <time>2022-06-05T10:27:05.000Z</time>
      </trkpt>
      <trkpt lat="40.894959" lon="0.790172">
        <ele>47.54532</ele>
        <time>2022-06-05T10:27:09.000Z</time>
      </trkpt>
      <trkpt lat="40.894634" lon="0.790615">
        <ele>46.308332</ele>
        <time>2022-06-05T10:27:14.000Z</time>
      </trkpt>
      <trkpt lat="40.894482" lon="0.790782">
        <ele>45.800239</ele>
        <time>2022-06-05T10:27:16.000Z</time>
      </trkpt>
      <trkpt lat="40.894332" lon="0.790974">
        <ele>45.250512</ele>
        <time>2022-06-05T10:27:18.000Z</time>
      </trkpt>
      <trkpt lat="40.894187" lon="0.791197">
        <ele>44.664985</ele>
        <time>2022-06-05T10:27:20.000Z</time>
      </trkpt>
      <trkpt lat="40.894141" lon="0.791295">
        <ele>44.419129</ele>
        <time>2022-06-05T10:27:21.000Z</time>
      </trkpt>
      <trkpt lat="40.894068" lon="0.791463">
        <ele>44.078489</ele>
        <time>2022-06-05T10:27:23.000Z</time>
      </trkpt>
      <trkpt lat="40.894021" lon="0.791612">
        <ele>43.759148</ele>
        <time>2022-06-05T10:27:24.000Z</time>
      </trkpt>
      <trkpt lat="40.893937" lon="0.791781">
        <ele>43.371402</ele>
        <time>2022-06-05T10:27:26.000Z</time>
      </trkpt>
      <trkpt lat="40.893901" lon="0.791921">
        <ele>43.094103</ele>
        <time>2022-06-05T10:27:27.000Z</time>
      </trkpt>
      <trkpt lat="40.893853" lon="0.792049">
        <ele>42.821348</ele>
        <time>2022-06-05T10:27:28.000Z</time>
      </trkpt>
      <trkpt lat="40.893823" lon="0.792107">
        <ele>42.688632</ele>
        <time>2022-06-05T10:27:29.000Z</time>
      </trkpt>
      <trkpt lat="40.89381" lon="0.792164">
        <ele>42.570204</ele>
        <time>2022-06-05T10:27:30.000Z</time>
      </trkpt>
      <trkpt lat="40.89378" lon="0.792242">
        <ele>42.43123</ele>
        <time>2022-06-05T10:27:31.000Z</time>
      </trkpt>
      <trkpt lat="40.893773" lon="0.792253">
        <ele>42.393595</ele>
        <time>2022-06-05T10:27:31.000Z</time>
      </trkpt>
      <trkpt lat="40.893722" lon="0.792432">
        <ele>42.001736</ele>
        <time>2022-06-05T10:27:33.000Z</time>
      </trkpt>
      <trkpt lat="40.893467" lon="0.792988">
        <ele>40.763525</ele>
        <time>2022-06-05T10:27:38.000Z</time>
      </trkpt>
      <trkpt lat="40.893337" lon="0.793258">
        <ele>40.147063</ele>
        <time>2022-06-05T10:27:41.000Z</time>
      </trkpt>
      <trkpt lat="40.892971" lon="0.793866">
        <ele>39.003538</ele>
        <time>2022-06-05T10:27:48.000Z</time>
      </trkpt>
      <trkpt lat="40.892554" lon="0.794581">
        <ele>37.641185</ele>
        <time>2022-06-05T10:27:56.000Z</time>
      </trkpt>
      <trkpt lat="40.892468" lon="0.794741">
        <ele>37.356382</ele>
        <time>2022-06-05T10:27:58.000Z</time>
      </trkpt>
      <trkpt lat="40.892253" lon="0.795161">
        <ele>36.568871</ele>
        <time>2022-06-05T10:28:02.000Z</time>
      </trkpt>
      <trkpt lat="40.89192" lon="0.795774">
        <ele>35.141851</ele>
        <time>2022-06-05T10:28:08.000Z</time>
      </trkpt>
      <trkpt lat="40.891775" lon="0.795887">
        <ele>34.699332</ele>
        <time>2022-06-05T10:28:10.000Z</time>
      </trkpt>
      <trkpt lat="40.89173" lon="0.795907">
        <ele>34.555518</ele>
        <time>2022-06-05T10:28:11.000Z</time>
      </trkpt>
      <trkpt lat="40.891688" lon="0.795923">
        <ele>34.472137</ele>
        <time>2022-06-05T10:28:11.000Z</time>
      </trkpt>
      <trkpt lat="40.891647" lon="0.795937">
        <ele>34.368526</ele>
        <time>2022-06-05T10:28:11.000Z</time>
      </trkpt>
      <trkpt lat="40.891584" lon="0.795987">
        <ele>34.168865</ele>
        <time>2022-06-05T10:28:12.000Z</time>
      </trkpt>
      <trkpt lat="40.89157" lon="0.796049">
        <ele>34.068428</ele>
        <time>2022-06-05T10:28:13.000Z</time>
      </trkpt>
      <trkpt lat="40.891561" lon="0.796068">
        <ele>33.999117</ele>
        <time>2022-06-05T10:28:13.000Z</time>
      </trkpt>
      <trkpt lat="40.891562" lon="0.796115">
        <ele>33.931344</ele>
        <time>2022-06-05T10:28:13.000Z</time>
      </trkpt>
      <trkpt lat="40.891532" lon="0.796227">
        <ele>33.704855</ele>
        <time>2022-06-05T10:28:14.000Z</time>
      </trkpt>
      <trkpt lat="40.891457" lon="0.79636">
        <ele>33.362516</ele>
        <time>2022-06-05T10:28:15.000Z</time>
      </trkpt>
      <trkpt lat="40.891108" lon="0.796691">
        <ele>32.275872</ele>
        <time>2022-06-05T10:28:20.000Z</time>
      </trkpt>
      <trkpt lat="40.890375" lon="0.797155">
        <ele>30.402068</ele>
        <time>2022-06-05T10:28:29.000Z</time>
      </trkpt>
      <trkpt lat="40.890279" lon="0.797193">
        <ele>30.207688</ele>
        <time>2022-06-05T10:28:30.000Z</time>
      </trkpt>
      <trkpt lat="40.890165" lon="0.797256">
        <ele>29.901984</ele>
        <time>2022-06-05T10:28:31.000Z</time>
      </trkpt>
      <trkpt lat="40.889365" lon="0.797733">
        <ele>27.932004</ele>
        <time>2022-06-05T10:28:41.000Z</time>
      </trkpt>
      <trkpt lat="40.888647" lon="0.798129">
        <ele>26.481323</ele>
        <time>2022-06-05T10:28:50.000Z</time>
      </trkpt>
      <trkpt lat="40.888284" lon="0.798249">
        <ele>25.789842</ele>
        <time>2022-06-05T10:28:54.000Z</time>
      </trkpt>
      <trkpt lat="40.888129" lon="0.79829">
        <ele>25.506359</ele>
        <time>2022-06-05T10:28:56.000Z</time>
      </trkpt>
      <trkpt lat="40.88794" lon="0.798352">
        <ele>25.146594</ele>
        <time>2022-06-05T10:28:58.000Z</time>
      </trkpt>
      <trkpt lat="40.887826" lon="0.798386">
        <ele>24.958024</ele>
        <time>2022-06-05T10:28:59.000Z</time>
      </trkpt>
      <trkpt lat="40.887714" lon="0.798396">
        <ele>24.733641</ele>
        <time>2022-06-05T10:29:00.000Z</time>
      </trkpt>
      <trkpt lat="40.887648" lon="0.798358">
        <ele>24.619834</ele>
        <time>2022-06-05T10:29:01.000Z</time>
      </trkpt>
      <trkpt lat="40.887618" lon="0.798332">
        <ele>24.571223</ele>
        <time>2022-06-05T10:29:01.000Z</time>
      </trkpt>
      <trkpt lat="40.887579" lon="0.798304">
        <ele>24.521623</ele>
        <time>2022-06-05T10:29:01.000Z</time>
      </trkpt>
      <trkpt lat="40.887544" lon="0.798304">
        <ele>24.459199</ele>
        <time>2022-06-05T10:29:01.000Z</time>
      </trkpt>
      <trkpt lat="40.887465" lon="0.798356">
        <ele>24.336951</ele>
        <time>2022-06-05T10:29:02.000Z</time>
      </trkpt>
      <trkpt lat="40.887434" lon="0.798404">
        <ele>24.274855</ele>
        <time>2022-06-05T10:29:03.000Z</time>
      </trkpt>
      <trkpt lat="40.887413" lon="0.798421">
        <ele>24.246511</ele>
        <time>2022-06-05T10:29:03.000Z</time>
      </trkpt>
      <trkpt lat="40.887373" lon="0.798476">
        <ele>24.169848</ele>
        <time>2022-06-05T10:29:04.000Z</time>
      </trkpt>
      <trkpt lat="40.887284" lon="0.798552">
        <ele>24.029487</ele>
        <time>2022-06-05T10:29:05.000Z</time>
      </trkpt>
      <trkpt lat="40.887208" lon="0.798604">
        <ele>23.893603</ele>
        <time>2022-06-05T10:29:06.000Z</time>
      </trkpt>
      <trkpt lat="40.887094" lon="0.798638">
        <ele>23.739088</ele>
        <time>2022-06-05T10:29:07.000Z</time>
      </trkpt>
      <trkpt lat="40.886869" lon="0.798761">
        <ele>23.419362</ele>
        <time>2022-06-05T10:29:10.000Z</time>
      </trkpt>
      <trkpt lat="40.886806" lon="0.798808">
        <ele>23.315417</ele>
        <time>2022-06-05T10:29:11.000Z</time>
      </trkpt>
      <trkpt lat="40.88675" lon="0.798861">
        <ele>23.214287</ele>
        <time>2022-06-05T10:29:12.000Z</time>
      </trkpt>
      <trkpt lat="40.886297" lon="0.799317">
        <ele>22.44471</ele>
        <time>2022-06-05T10:29:18.000Z</time>
      </trkpt>
      <trkpt lat="40.886268" lon="0.799347">
        <ele>22.399486</ele>
        <time>2022-06-05T10:29:18.000Z</time>
      </trkpt>
      <trkpt lat="40.886001" lon="0.799477">
        <ele>22.182852</ele>
        <time>2022-06-05T10:29:21.000Z</time>
      </trkpt>
      <trkpt lat="40.885794" lon="0.799452">
        <ele>22.148649</ele>
        <time>2022-06-05T10:29:23.000Z</time>
      </trkpt>
      <trkpt lat="40.885757" lon="0.79944">
        <ele>22.141344</ele>
        <time>2022-06-05T10:29:23.000Z</time>
      </trkpt>
      <trkpt lat="40.885702" lon="0.799398">
        <ele>22.128992</ele>
        <time>2022-06-05T10:29:24.000Z</time>
      </trkpt>
      <trkpt lat="40.88563" lon="0.799307">
        <ele>22.113072</ele>
        <time>2022-06-05T10:29:25.000Z</time>
      </trkpt>
      <trkpt lat="40.885617" lon="0.799259">
        <ele>22.105792</ele>
        <time>2022-06-05T10:29:25.000Z</time>
      </trkpt>
      <trkpt lat="40.885599" lon="0.799228">
        <ele>22.101313</ele>
        <time>2022-06-05T10:29:25.000Z</time>
      </trkpt>
      <trkpt lat="40.88558" lon="0.7992">
        <ele>22.097356</ele>
        <time>2022-06-05T10:29:25.000Z</time>
      </trkpt>
      <trkpt lat="40.885567" lon="0.799184">
        <ele>22.093224</ele>
        <time>2022-06-05T10:29:25.000Z</time>
      </trkpt>
      <trkpt lat="40.885536" lon="0.799185">
        <ele>22.089397</ele>
        <time>2022-06-05T10:29:25.000Z</time>
      </trkpt>
      <trkpt lat="40.885518" lon="0.799196">
        <ele>22.085276</ele>
        <time>2022-06-05T10:29:25.000Z</time>
      </trkpt>
      <trkpt lat="40.885499" lon="0.799204">
        <ele>22.0813</ele>
        <time>2022-06-05T10:29:25.000Z</time>
      </trkpt>
      <trkpt lat="40.885464" lon="0.799223">
        <ele>22.073145</ele>
        <time>2022-06-05T10:29:25.000Z</time>
      </trkpt>
      <trkpt lat="40.885407" lon="0.799249">
        <ele>22.064629</ele>
        <time>2022-06-05T10:29:26.000Z</time>
      </trkpt>
      <trkpt lat="40.88534" lon="0.799247">
        <ele>22.052773</ele>
        <time>2022-06-05T10:29:27.000Z</time>
      </trkpt>
      <trkpt lat="40.885312" lon="0.799247">
        <ele>22.048891</ele>
        <time>2022-06-05T10:29:27.000Z</time>
      </trkpt>
      <trkpt lat="40.885259" lon="0.799258">
        <ele>22.039722</ele>
        <time>2022-06-05T10:29:28.000Z</time>
      </trkpt>
      <trkpt lat="40.885236" lon="0.799263">
        <ele>22.0333</ele>
        <time>2022-06-05T10:29:28.000Z</time>
      </trkpt>
      <trkpt lat="40.885177" lon="0.799286">
        <ele>22.024735</ele>
        <time>2022-06-05T10:29:29.000Z</time>
      </trkpt>
      <trkpt lat="40.885106" lon="0.799346">
        <ele>22.008832</ele>
        <time>2022-06-05T10:29:30.000Z</time>
      </trkpt>
      <trkpt lat="40.885065" lon="0.799376">
        <ele>22.001647</ele>
        <time>2022-06-05T10:29:31.000Z</time>
      </trkpt>
      <trkpt lat="40.885046" lon="0.799425">
        <ele>21.994012</ele>
        <time>2022-06-05T10:29:31.000Z</time>
      </trkpt>
      <trkpt lat="40.884934" lon="0.799634">
        <ele>21.959844</ele>
        <time>2022-06-05T10:29:33.000Z</time>
      </trkpt>
      <trkpt lat="40.884927" lon="0.799649">
        <ele>21.957157</ele>
        <time>2022-06-05T10:29:33.000Z</time>
      </trkpt>
      <trkpt lat="40.884951" lon="0.799797">
        <ele>21.937854</ele>
        <time>2022-06-05T10:29:34.000Z</time>
      </trkpt>
      <trkpt lat="40.885398" lon="0.800221">
        <ele>21.955793</ele>
        <time>2022-06-05T10:29:40.000Z</time>
      </trkpt>
      <trkpt lat="40.885434" lon="0.800245">
        <ele>21.965339</ele>
        <time>2022-06-05T10:29:40.000Z</time>
      </trkpt>
      <trkpt lat="40.885469" lon="0.800295">
        <ele>21.975292</ele>
        <time>2022-06-05T10:29:41.000Z</time>
      </trkpt>
      <trkpt lat="40.885523" lon="0.800334">
        <ele>21.98597</ele>
        <time>2022-06-05T10:29:42.000Z</time>
      </trkpt>
      <trkpt lat="40.885575" lon="0.800391">
        <ele>21.999372</ele>
        <time>2022-06-05T10:29:43.000Z</time>
      </trkpt>
      <trkpt lat="40.885675" lon="0.800513">
        <ele>22.026939</ele>
        <time>2022-06-05T10:29:45.000Z</time>
      </trkpt>
      <trkpt lat="40.885724" lon="0.800565">
        <ele>22.039387</ele>
        <time>2022-06-05T10:29:46.000Z</time>
      </trkpt>
      <trkpt lat="40.886229" lon="0.80104">
        <ele>22.158019</ele>
        <time>2022-06-05T10:29:53.000Z</time>
      </trkpt>
      <trkpt lat="40.886299" lon="0.801103">
        <ele>22.172834</ele>
        <time>2022-06-05T10:29:54.000Z</time>
      </trkpt>
      <trkpt lat="40.886334" lon="0.801134">
        <ele>22.180602</ele>
        <time>2022-06-05T10:29:54.000Z</time>
      </trkpt>
      <trkpt lat="40.886467" lon="0.801322">
        <ele>22.217612</ele>
        <time>2022-06-05T10:29:56.000Z</time>
      </trkpt>
      <trkpt lat="40.886488" lon="0.801377">
        <ele>22.227602</ele>
        <time>2022-06-05T10:29:57.000Z</time>
      </trkpt>
      <trkpt lat="40.886481" lon="0.801425">
        <ele>22.233883</ele>
        <time>2022-06-05T10:29:57.000Z</time>
      </trkpt>
      <trkpt lat="40.886474" lon="0.801458">
        <ele>22.237113</ele>
        <time>2022-06-05T10:29:57.000Z</time>
      </trkpt>
      <trkpt lat="40.886471" lon="0.801473">
        <ele>22.241745</ele>
        <time>2022-06-05T10:29:57.000Z</time>
      </trkpt>
      <trkpt lat="40.886404" lon="0.801595">
        <ele>22.066417</ele>
        <time>2022-06-05T10:29:58.000Z</time>
      </trkpt>
      <trkpt lat="40.886268" lon="0.80188">
        <ele>21.638862</ele>
        <time>2022-06-05T10:30:01.000Z</time>
      </trkpt>
      <trkpt lat="40.886206" lon="0.801998">
        <ele>21.464863</ele>
        <time>2022-06-05T10:30:02.000Z</time>
      </trkpt>
      <trkpt lat="40.885992" lon="0.802437">
        <ele>20.821487</ele>
        <time>2022-06-05T10:30:06.000Z</time>
      </trkpt>
      <trkpt lat="40.885789" lon="0.802844">
        <ele>20.195691</ele>
        <time>2022-06-05T10:30:10.000Z</time>
      </trkpt>
      <trkpt lat="40.885746" lon="0.802921">
        <ele>20.074442</ele>
        <time>2022-06-05T10:30:11.000Z</time>
      </trkpt>
      <trkpt lat="40.885708" lon="0.803005">
        <ele>19.957274</ele>
        <time>2022-06-05T10:30:12.000Z</time>
      </trkpt>
      <trkpt lat="40.885581" lon="0.803276">
        <ele>19.550011</ele>
        <time>2022-06-05T10:30:15.000Z</time>
      </trkpt>
      <trkpt lat="40.885563" lon="0.803317">
        <ele>19.486353</ele>
        <time>2022-06-05T10:30:15.000Z</time>
      </trkpt>
      <trkpt lat="40.885472" lon="0.8035">
        <ele>19.179375</ele>
        <time>2022-06-05T10:30:17.000Z</time>
      </trkpt>
      <trkpt lat="40.885403" lon="0.803634">
        <ele>18.601361</ele>
        <time>2022-06-05T10:30:18.000Z</time>
      </trkpt>
      <trkpt lat="40.885355" lon="0.803723">
        <ele>18.154451</ele>
        <time>2022-06-05T10:30:19.000Z</time>
      </trkpt>
      <trkpt lat="40.885252" lon="0.803948">
        <ele>17.193271</ele>
        <time>2022-06-05T10:30:21.000Z</time>
      </trkpt>
      <trkpt lat="40.885177" lon="0.804129">
        <ele>16.464017</ele>
        <time>2022-06-05T10:30:23.000Z</time>
      </trkpt>
      <trkpt lat="40.885137" lon="0.804214">
        <ele>16.081885</ele>
        <time>2022-06-05T10:30:24.000Z</time>
      </trkpt>
      <trkpt lat="40.884979" lon="0.804525">
        <ele>14.685002</ele>
        <time>2022-06-05T10:30:27.000Z</time>
      </trkpt>
      <trkpt lat="40.884859" lon="0.804738">
        <ele>13.780188</ele>
        <time>2022-06-05T10:30:29.000Z</time>
      </trkpt>
      <trkpt lat="40.884797" lon="0.804845">
        <ele>13.285584</ele>
        <time>2022-06-05T10:30:30.000Z</time>
      </trkpt>
      <trkpt lat="40.884829" lon="0.804877">
        <ele>13.045572</ele>
        <time>2022-06-05T10:30:30.000Z</time>
      </trkpt>
      <trkpt lat="40.884863" lon="0.804915">
        <ele>12.857218</ele>
        <time>2022-06-05T10:30:30.000Z</time>
      </trkpt>
      <trkpt lat="40.884865" lon="0.804998">
        <ele>12.601529</ele>
        <time>2022-06-05T10:30:31.000Z</time>
      </trkpt>
      <trkpt lat="40.884884" lon="0.805347">
        <ele>11.321835</ele>
        <time>2022-06-05T10:30:34.000Z</time>
      </trkpt>
      <trkpt lat="40.884886" lon="0.805382">
        <ele>11.152347</ele>
        <time>2022-06-05T10:30:34.000Z</time>
      </trkpt>
      <trkpt lat="40.884902" lon="0.805405">
        <ele>11.08513</ele>
        <time>2022-06-05T10:30:34.000Z</time>
      </trkpt>
      <trkpt lat="40.885035" lon="0.805786">
        <ele>10.5312336402</ele>
        <time>2022-06-05T10:30:38.000Z</time>
      </trkpt>
      <trkpt lat="40.885046" lon="0.806133">
        <ele>10.0728296991</ele>
        <time>2022-06-05T10:30:41.000Z</time>
      </trkpt>
      <trkpt lat="40.885037" lon="0.806176">
        <ele>10.013939655</ele>
        <time>2022-06-05T10:30:41.000Z</time>
      </trkpt>
      <trkpt lat="40.885033" lon="0.806195">
        <ele>9.98790760831</ele>
        <time>2022-06-05T10:30:41.000Z</time>
      </trkpt>
      <trkpt lat="40.88507" lon="0.80631">
        <ele>9.82294713347</ele>
        <time>2022-06-05T10:30:42.000Z</time>
      </trkpt>
      <trkpt lat="40.885501" lon="0.806852">
        <ele>8.78470399789</ele>
        <time>2022-06-05T10:30:49.000Z</time>
      </trkpt>
      <trkpt lat="40.885596" lon="0.806928">
        <ele>8.59087491429</ele>
        <time>2022-06-05T10:30:50.000Z</time>
      </trkpt>
      <trkpt lat="40.88586" lon="0.807307">
        <ele>7.9106834103</ele>
        <time>2022-06-05T10:30:54.000Z</time>
      </trkpt>
      <trkpt lat="40.885866" lon="0.807324">
        <ele>7.88592090883</ele>
        <time>2022-06-05T10:30:54.000Z</time>
      </trkpt>
    </trkseg>
  </trk>
</gpx>

<!--
Performance optimized by W3 Total Cache. Learn more: https://www.boldgrid.com/w3-total-cache/?utm_source=w3tc&utm_medium=footer_comment&utm_campaign=free_plugin

Page Caching using Disk: Enhanced{w3tc_pagecache_reject_reason} 

Served from: www.aquabike.world @ 2026-05-10 04:29:33 by W3 Total Cache
-->